[[{"header":{"parameterUnit":"m.s-1","parameterCategory":1,"la1":30.6,"la2":28.766,"lo1":-90.7593,"lo2":-88.6598,"dy":0.0162,"dx":0.0183,"nx":116,"ny":114,"refTime":"2023-07-17T00:00:00:Z","depth":0,"parameterNumber":2,"parameterNumberName":"U-component_of_WINDS"},"data":[0.0,0.0,0.0,0.0,0.0,0.0,0.0,0.0,0.0,0.0,0.0,0.0,0.0,0.0,0.0,0.0,0.0,0.0,0.0,0.0,0.0,0.0,0.0,0.0,0.0,0.0,0.0,0.0,0.0,0.0,0.0,0.0,0.0,0.0,0.0,0.0,0.0,0.0,0.0,0.0,0.0,0.0,0.0,0.0,0.0,0.0,0.0,0.0,0.0,0.0,0.0,0.0,0.0,0.0,0.0,0.0,0.0,0.0,0.0,0.0,0.0,0.0,0.0,0.0,0.0,0.0,0.0,0.0,0.0,0.0,0.0,0.0,0.0,0.0,0.0,0.0,0.0,0.0,0.0,0.0,0.0,0.0,0.0,0.0,0.0,0.0,0.0,0.0,0.0,0.0,0.0,0.0,0.0,0.0,0.0,0.0,0.0,0.0,0.0,0.0,0.0,0.0,0.0,0.0,0.0,0.0,0.0,0.0,0.0,0.0,0.0,0.0,0.0,0.0,0.0,0.0,0.0,0.0,0.0,0.0,0.0,0.0,0.0,0.0,0.0,0.0,0.0,0.0,0.0,0.0,0.0,0.0,0.0,0.0,0.0,0.0,0.0,0.0,0.0,0.0,0.0,0.0,0.0,0.0,0.0,0.0,0.0,0.0,0.0,0.0,0.0,0.0,0.0,0.0,0.0,0.0,0.0,0.0,0.0,0.0,0.0,0.0,0.0,0.0,0.0,0.0,0.0,0.0,0.0,0.0,0.0,0.0,0.0,0.0,0.0,0.0,0.0,0.0,0.0,0.0,0.0,0.0,0.0,0.0,0.0,0.0,0.0,0.0,0.0,0.0,0.0,0.0,0.0,0.0,0.0,0.0,0.0,0.0,0.0,0.0,0.0,0.0,0.0,0.0,0.0,0.0,0.0,0.0,0.0,0.0,0.0,0.0,0.0,0.0,0.0,0.0,0.0,0.0,0.0,0.0,0.0,0.0,0.0,0.0,0.0,0.0,0.0,0.0,0.0,0.0,0.0,0.0,0.0,0.0,0.0,0.0,0.0,0.0,0.0,0.0,0.0,0.0,0.0,0.0,0.0,0.0,0.0,0.0,0.0,0.0,0.0,0.0,0.0,0.0,0.0,0.0,0.0,0.0,0.0,0.0,0.0,0.0,0.0,0.0,0.0,0.0,0.0,0.0,0.0,0.0,0.0,0.0,0.0,0.0,0.0,0.0,0.0,0.0,0.0,0.0,0.0,0.0,0.0,0.0,0.0,0.0,0.0,0.0,0.0,0.0,0.0,0.0,0.0,0.0,0.0,0.0,0.0,0.0,0.0,0.0,0.0,0.0,0.0,0.0,0.0,0.0,0.0,0.0,0.0,0.0,0.0,0.0,0.0,0.0,0.0,0.0,0.0,0.0,0.0,0.0,0.0,0.0,0.0,0.0,0.0,0.0,0.0,0.0,0.0,0.0,0.0,0.0,0.0,0.0,0.0,0.0,0.0,0.0,0.0,0.0,0.0,0.0,0.0,0.0,0.0,0.0,0.0,0.0,0.0,0.0,0.0,0.0,0.0,0.0,0.0,0.0,0.0,0.0,0.0,0.0,0.0,0.0,0.0,0.0,0.0,0.0,0.0,0.0,0.0,0.0,0.0,0.0,0.0,0.0,0.0,0.0,0.0,0.0,0.0,0.0,0.0,0.0,0.0,0.0,0.0,0.0,0.0,0.0,0.0,0.0,0.0,0.0,0.0,0.0,0.0,0.0,0.0,0.0,0.0,0.0,0.0,0.0,0.0,0.0,0.0,0.0,0.0,0.0,0.0,0.0,0.0,0.0,0.0,0.0,0.0,0.0,0.0,0.0,0.0,0.0,0.0,0.0,0.0,0.0,0.0,0.0,0.0,0.0,0.0,0.0,0.0,0.0,0.0,0.0,0.0,0.0,0.0,0.0,0.0,0.0,0.0,0.0,0.0,0.0,0.0,0.0,0.0,0.0,0.0,0.0,0.0,0.0,0.0,0.0,0.0,0.0,0.0,0.0,0.0,0.0,0.0,0.0,0.0,0.0,0.0,0.0,0.0,0.0,0.0,0.0,0.0,0.0,0.0,0.0,0.0,0.0,0.0,0.0,0.0,0.0,0.0,0.0,0.0,0.0,0.0,0.0,0.0,0.0,0.0,0.0,0.0,0.0,0.0,0.0,0.0,0.0,0.0,0.0,0.0,0.0,0.0,0.0,0.0,0.0,0.0,0.0,0.0,0.0,0.0,0.0,0.0,0.0,0.0,0.0,0.0,0.0,0.0,0.0,0.0,0.0,0.0,0.0,0.0,0.0,0.0,0.0,0.0,0.0,0.0,0.0,0.0,0.0,0.0,0.0,0.0,0.0,0.0,0.0,0.0,0.0,0.0,0.0,0.0,0.0,0.0,0.0,0.0,0.0,0.0,0.0,0.0,0.0,0.0,0.0,0.0,0.0,0.0,0.0,0.0,0.0,0.0,0.0,0.0,0.0,0.0,0.0,0.0,0.0,0.0,0.0,0.0,0.0,0.0,0.0,0.0,0.0,0.0,0.0,0.0,0.0,0.0,0.0,0.0,0.0,0.0,0.0,0.0,0.0,0.0,0.0,0.0,0.0,0.0,0.0,0.0,0.0,0.0,0.0,0.0,0.0,0.0,0.0,0.0,0.0,0.0,0.0,0.0,0.0,0.0,0.0,0.0,0.0,0.0,0.0,0.0,0.0,0.0,0.0,0.0,0.0,0.0,0.0,0.0,0.0,0.0,0.0,0.0,0.0,0.0,0.0,0.0,0.0,0.0,0.0,0.0,0.0,0.0,0.0,0.0,0.0,0.0,0.0,0.0,0.0,0.0,0.0,0.0,0.0,0.0,0.0,0.0,0.0,0.0,0.0,0.0,0.0,0.0,0.0,0.0,0.0,0.0,0.0,0.0,0.0,0.0,0.0,0.0,0.0,0.0,0.0,0.0,0.0,0.0,0.0,0.0,0.0,0.0,0.0,0.0,0.0,0.0,0.0,0.0,0.0,0.0,0.0,0.0,0.0,0.0,0.0,0.0,0.0,0.0,0.0,0.0,0.0,0.0,0.0,0.0,0.0,0.0,0.0,0.0,0.0,0.0,0.0,0.0,0.0,0.0,0.0,0.0,0.0,0.0,0.0,0.0,0.0,0.0,0.0,0.0,0.0,0.0,0.0,0.0,0.0,0.0,0.0,0.0,0.0,0.0,0.0,0.0,0.0,0.0,0.0,0.0,0.0,0.0,0.0,0.0,0.0,0.0,0.0,0.0,0.0,0.0,0.0,0.0,0.0,0.0,0.0,0.0,0.0,0.0,0.0,0.0,0.0,0.0,0.0,0.0,0.0,0.0,0.0,0.0,0.0,0.0,0.0,0.0,0.0,0.0,0.0,0.0,0.0,0.0,0.0,0.0,0.0,0.0,0.0,0.0,0.0,0.0,0.0,0.0,0.0,0.0,0.0,0.0,0.0,0.0,0.0,0.0,0.0,0.0,0.0,0.0,0.0,0.0,0.0,0.0,0.0,0.0,0.0,0.0,0.0,0.0,0.0,0.0,0.0,0.0,0.0,0.0,0.0,0.0,0.0,0.0,0.0,0.0,0.0,0.0,0.0,0.0,0.0,0.0,0.0,0.0,0.0,0.0,0.0,0.0,0.0,0.0,0.0,0.0,0.0,0.0,0.0,0.0,0.0,0.0,0.0,0.0,0.0,0.0,0.0,0.0,0.0,0.0,0.0,0.0,0.0,0.0,0.0,0.0,0.0,0.0,0.0,0.0,0.0,0.0,0.0,0.0,0.0,0.0,0.0,0.0,0.0,0.0,0.0,0.0,0.0,0.0,0.0,0.0,0.0,0.0,0.0,0.0,0.0,0.0,0.0,0.0,0.0,0.0,0.0,0.0,0.0,0.0,0.0,0.0,0.0,0.0,0.0,0.0,0.0,0.0,0.0,0.0,0.0,0.0,0.0,0.0,0.0,0.0,0.0,0.0,0.0,0.0,0.0,0.0,0.0,0.0,0.0,0.0,0.0,0.0,0.0,0.0,0.0,0.0,0.0,0.0,0.0,0.0,0.0,0.0,0.0,0.0,0.0,0.0,0.0,0.0,0.0,0.0,0.0,0.0,0.0,0.0,0.0,0.0,0.0,0.0,0.0,0.0,0.0,0.0,0.0,0.0,0.0,0.0,0.0,0.0,0.0,0.0,0.0,0.0,0.0,0.0,0.0,0.0,0.0,0.0,0.0,0.0,0.0,0.0,0.0,0.0,0.0,0.0,0.0,0.0,0.0,0.0,0.0,0.0,0.0,0.0,0.0,0.0,0.0,0.0,0.0,0.0,0.0,0.0,0.0,0.0,0.0,0.0,0.0,0.0,0.0,0.0,0.0,0.0,0.0,0.0,0.0,0.0,0.0,0.0,0.0,0.0,0.0,0.0,0.0,0.0,0.0,0.0,0.0,0.0,0.0,0.0,0.0,0.0,0.0,0.0,0.0,0.0,0.0,0.0,0.0,0.0,0.0,0.0,0.0,0.0,0.0,0.0,0.0,0.0,0.0,0.0,0.0,0.0,0.0,0.0,0.0,0.0,0.0,0.0,0.0,0.0,0.0,0.0,0.0,0.0,0.0,0.0,0.0,0.0,0.0,0.0,0.0,0.0,0.0,0.0,0.0,0.0,0.0,0.0,0.0,0.0,0.0,0.0,0.0,0.0,0.0,0.0,0.0,0.0,0.0,0.0,0.0,0.0,0.0,0.0,0.0,0.0,0.0,0.0,0.0,0.0,0.0,0.0,0.0,0.0,0.0,0.0,0.0,0.0,0.0,0.0,0.0,0.0,0.0,0.0,0.0,0.0,0.0,0.0,0.0,0.0,0.0,0.0,0.0,0.0,0.0,0.0,0.0,0.0,0.0,0.0,0.0,0.0,0.0,0.0,0.0,0.0,0.0,0.0,0.0,0.0,0.0,0.0,0.0,0.0,0.0,0.0,0.0,0.0,0.0,0.0,0.0,0.0,0.0,0.0,0.0,0.0,0.0,0.0,0.0,0.0,0.0,0.0,0.0,0.0,0.0,0.0,0.0,0.0,0.0,0.0,0.0,0.0,0.0,0.0,0.0,0.0,0.0,0.0,0.0,0.0,0.0,0.0,0.0,0.0,0.0,0.0,0.0,0.0,0.0,0.0,0.0,0.0,0.0,0.0,0.0,0.0,0.0,0.0,0.0,0.0,0.0,0.0,0.0,0.0,0.0,0.0,0.0,0.0,0.0,0.0,0.0,0.0,0.0,0.0,0.0,0.0,0.0,0.0,0.0,0.0,0.0,0.0,0.0,0.0,0.0,0.0,0.0,0.0,0.0,0.0,0.0,0.0,0.0,0.0,0.0,0.0,0.0,0.0,0.0,0.0,0.0,0.0,0.0,0.0,0.0,0.0,0.0,0.0,0.0,0.0,0.0,0.0,0.0,0.0,0.0,0.0,0.0,0.0,0.0,0.0,0.0,0.0,0.0,0.0,0.0,0.0,0.0,0.0,0.0,0.0,0.0,0.0,0.0,0.0,0.0,0.0,0.0,0.0,0.0,0.0,0.0,0.0,0.0,0.0,0.0,0.0,0.0,0.0,0.0,0.0,0.0,0.0,0.0,0.0,0.0,0.0,0.0,0.0,0.0,0.0,0.0,0.0,0.0,0.0,0.0,0.0,0.0,0.0,0.0,0.0,0.0,0.0,0.0,0.0,0.0,0.0,0.0,0.0,0.0,0.0,0.0,0.0,0.0,0.0,0.0,0.0,0.0,0.0,0.0,0.0,0.0,0.0,0.0,0.0,0.0,0.0,0.0,0.0,0.0,0.0,0.0,0.0,0.0,0.0,0.0,0.0,0.0,0.0,0.0,0.0,0.0,0.0,0.0,0.0,0.0,0.0,0.0,0.0,0.0,0.0,0.0,0.0,0.0,0.0,0.0,0.0,0.0,0.0,0.0,0.0,0.0,0.0,0.0,0.0,0.0,0.0,0.0,0.0,0.0,0.0,0.0,0.0,0.0,0.0,0.0,0.0,0.0,0.0,0.0,0.0,0.0,0.0,0.0,0.0,0.0,0.0,0.0,-0.8168,-0.7721,0.0,0.0,0.0,0.0,0.0,0.0,0.0,0.0,0.0,0.0,0.0,0.0,0.0,0.0,0.0,0.0,0.0,0.0,0.0,0.0,0.0,0.0,0.0,0.0,0.0,0.0,0.0,0.0,0.0,0.0,0.0,0.0,0.0,0.0,0.0,0.0,0.0,0.0,0.0,0.0,0.0,0.0,0.0,0.0,0.0,0.0,0.0,0.0,0.0,0.0,0.0,0.0,0.0,0.0,0.0,0.0,0.0,0.0,0.0,0.0,0.0,0.0,0.0,0.0,0.0,0.0,0.0,0.0,0.0,0.0,0.0,0.0,0.0,0.0,0.0,0.0,0.0,0.0,0.0,0.0,0.0,0.0,0.0,0.0,0.0,0.0,0.0,0.0,0.0,0.0,0.0,0.0,0.0,0.0,0.0,0.0,0.0,0.0,0.0,0.0,0.0,0.0,0.0,0.0,0.0,0.0,0.0,0.0,0.0,0.0,0.0,0.0,0.0,0.0,-0.9068,-0.849,0.0,0.0,0.0,0.0,0.0,0.0,0.0,0.0,0.0,0.0,0.0,0.0,0.0,0.0,0.0,0.0,0.0,0.0,0.0,0.0,0.0,0.0,0.0,0.0,0.0,0.0,0.0,0.0,0.0,0.0,0.0,0.0,0.0,0.0,0.0,0.0,0.0,0.0,0.0,0.0,0.0,0.0,0.0,0.0,0.0,0.0,0.0,0.0,0.0,0.0,0.0,0.0,0.0,0.0,0.0,0.0,0.0,0.0,0.0,0.0,0.0,0.0,0.0,0.0,0.0,0.0,0.0,0.0,0.0,0.0,0.0,0.0,0.0,0.0,0.0,0.0,0.0,0.0,0.0,0.0,0.0,0.0,0.0,0.0,0.0,0.0,0.0,0.0,0.0,0.0,0.0,0.0,0.0,0.0,0.0,0.0,0.0,0.0,0.0,0.0,0.0,0.0,0.0,0.0,0.0,0.0,0.0,0.0,-1.1052,-1.1149,-1.1171,-1.1367,-1.1334,-1.1029,-0.9978,-0.9373,-0.9078,-0.8854,0.0,0.0,0.0,0.0,0.0,0.0,0.0,0.0,0.0,0.0,0.0,0.0,0.0,0.0,0.0,0.0,0.0,0.0,0.0,0.0,0.0,0.0,0.0,0.0,0.0,0.0,0.0,0.0,0.0,0.0,0.0,0.0,0.0,0.0,0.0,0.0,0.0,0.0,-1.162,-1.1433,-1.0984,-1.0275,0.0,0.0,0.0,0.0,0.0,0.0,0.0,0.0,0.0,0.0,0.0,0.0,0.0,0.0,0.0,0.0,0.0,0.0,0.0,0.0,0.0,0.0,0.0,0.0,0.0,0.0,0.0,0.0,0.0,0.0,0.0,0.0,0.0,0.0,0.0,0.0,0.0,0.0,0.0,0.0,0.0,0.0,0.0,0.0,-0.6615,-0.6696,0.0,0.0,0.0,0.0,0.0,0.0,0.0,0.0,0.0,0.0,0.0,0.0,0.0,-1.055,-1.088,-1.1202,-1.1531,-1.1853,-1.2109,-1.2202,-1.2143,-1.1952,-1.1784,-1.1567,-1.1114,0.0,-1.0301,-0.9928,0.0,0.0,0.0,0.0,0.0,0.0,0.0,0.0,0.0,0.0,0.0,0.0,0.0,0.0,0.0,0.0,0.0,0.0,0.0,0.0,0.0,0.0,0.0,0.0,0.0,0.0,0.0,0.0,0.0,0.0,0.0,0.0,0.0,0.0,0.0,0.0,-1.2168,-1.2272,-1.2371,-1.2206,-1.1914,-1.1415,-1.0811,-0.9859,-0.8641,-0.7855,0.0,0.0,0.0,0.0,0.0,0.0,0.0,0.0,0.0,0.0,0.0,0.0,0.0,0.0,0.0,0.0,0.0,0.0,0.0,0.0,0.0,0.0,0.0,0.0,0.0,0.0,0.0,0.0,0.0,0.0,0.0,0.0,0.0,0.0,0.0,0.0,0.0,0.0,0.0,-0.652,-0.6951,-0.7424,-0.7789,-0.8051,0.0,0.0,0.0,0.0,0.0,0.0,0.0,0.0,0.0,-1.0925,-1.1263,-1.1594,-1.1932,-1.227,-1.2437,-1.2447,-1.2779,-1.2866,-1.2666,-1.2706,-1.2565,-1.2352,-1.2067,-1.1781,-1.1312,-1.0597,-1.0152,-0.9941,0.0,0.0,0.0,0.0,-0.9321,-0.927,0.0,0.0,0.0,0.0,0.0,0.0,0.0,0.0,0.0,0.0,0.0,0.0,0.0,0.0,0.0,-0.8781,0.0,0.0,0.0,0.0,0.0,0.0,0.0,0.0,0.0,0.0,0.0,0.0,-1.3622,-1.3437,-1.3238,-1.3038,-1.2725,-1.226,-1.1724,-1.0607,-0.9089,-0.8331,-0.7479,0.0,0.0,0.0,0.0,0.0,0.0,0.0,0.0,0.0,0.0,0.0,0.0,0.0,0.0,0.0,0.0,0.0,0.0,0.0,0.0,0.0,0.0,0.0,0.0,0.0,0.0,0.0,0.0,0.0,0.0,0.0,0.0,0.0,0.0,0.0,0.0,0.0,0.0,-0.7013,-0.748,-0.8151,-0.8399,-0.8574,0.0,0.0,0.0,0.0,0.0,0.0,-1.0801,-1.105,-1.1382,-1.1989,-1.225,-1.2549,-1.2828,-1.308,-1.318,-1.3119,-1.3304,-1.3353,-1.3211,-1.3237,-1.3162,-1.3012,-1.279,-1.2533,-1.2192,-1.1335,-1.0783,-1.0509,-1.0575,-1.0454,-1.0243,-1.0243,-1.0243,-1.0193,0.0,0.0,0.0,0.0,0.0,0.0,0.0,0.0,0.0,0.0,0.0,0.0,0.0,0.0,-0.8686,-0.9818,-1.0861,-1.1715,0.0,0.0,0.0,0.0,0.0,0.0,0.0,0.0,0.0,-1.4995,-1.4634,-1.4545,-1.479,-1.4204,-1.3653,-1.313,-1.2393,-1.1392,-1.0222,-0.8941,-0.796,-0.7283,0.0,0.0,0.0,0.0,0.0,0.0,0.0,0.0,0.0,0.0,0.0,0.0,0.0,0.0,0.0,0.0,0.0,0.0,0.0,0.0,0.0,0.0,0.0,0.0,0.0,0.0,0.0,0.0,0.0,0.0,0.0,0.0,0.0,0.0,0.0,0.0,0.0,0.0,0.0,-0.8808,-0.9421,0.0,0.0,0.0,0.0,-1.0676,-1.0748,-1.1105,-1.1951,-1.2004,-1.2317,-1.2981,-1.3019,-1.3195,-1.3531,-1.3553,-1.3706,-1.4004,-1.3825,-1.3768,-1.3768,-1.3339,-1.3209,-1.3251,-1.3099,-1.2963,-1.2824,-1.2286,-1.1935,-1.1729,-1.1745,-1.1682,-1.1523,-1.1523,-1.1369,-1.1209,0.0,0.0,0.0,0.0,0.0,0.0,0.0,0.0,0.0,0.0,0.0,0.0,0.0,-0.7892,-0.9175,-1.0365,-1.1483,-1.2354,-1.2883,0.0,0.0,0.0,0.0,0.0,0.0,0.0,-1.5871,-1.6123,-1.5752,-1.5501,-1.5322,-1.4709,-1.4201,-1.3684,-1.2822,-1.195,-1.1006,-0.9643,-0.8514,-0.7657,-0.6595,-0.5755,0.0,0.0,0.0,0.0,0.0,0.0,0.0,0.0,0.0,0.0,0.0,0.0,0.0,0.0,0.0,0.0,0.0,0.0,0.0,0.0,0.0,0.0,0.0,0.0,0.0,0.0,0.0,0.0,0.0,0.0,0.0,0.0,0.0,0.0,0.0,0.0,0.0,-0.9798,-1.0073,0.0,-1.0629,-1.0701,-1.0897,-1.1297,-1.151,-1.1897,-1.2553,-1.2794,-1.3193,-1.3713,-1.3729,-1.4003,-1.459,-1.4598,-1.4762,-1.494,-1.4721,-1.457,-1.441,-1.419,-1.3949,-1.3895,-1.3656,-1.3406,-1.3279,-1.2968,-1.2584,-1.2116,-1.2129,-1.2006,-1.1766,-1.1766,-1.176,-1.1709,0.0,0.0,0.0,0.0,0.0,0.0,0.0,0.0,0.0,0.0,0.0,-0.5481,-0.7115,-0.8378,-0.9647,-1.105,-1.2119,-1.2992,-1.3689,0.0,0.0,0.0,0.0,0.0,0.0,-1.6967,-1.7036,-1.7131,-1.6765,-1.638,-1.5976,-1.5377,-1.4789,-1.4247,-1.3294,-1.2384,-1.1501,-1.0226,-0.9033,-0.7966,-0.6965,-0.6067,-0.5199,0.0,0.0,0.0,0.0,0.0,0.0,0.0,0.0,0.0,0.0,0.0,0.0,0.0,0.0,0.0,0.0,0.0,0.0,0.0,0.0,0.0,0.0,0.0,0.0,0.0,0.0,0.0,0.0,0.0,0.0,0.0,0.0,0.0,0.0,0.0,-0.9715,-1.0523,-1.0697,-1.085,-1.1195,-1.1269,-1.1464,-1.1989,-1.2228,-1.2615,-1.3204,-1.3455,-1.3805,-1.4275,-1.4291,-1.4577,-1.5181,-1.5189,-1.5281,-1.5536,-1.5304,-1.5072,-1.4909,-1.4691,-1.4516,-1.4309,-1.4136,-1.3954,-1.3817,-1.3701,-1.3339,-1.277,-1.26,-1.2437,-1.2273,-1.2186,-1.2186,-1.221,0.0,0.0,0.0,0.0,0.0,0.0,0.0,0.0,0.0,0.0,-0.4415,-0.596,-0.7878,-0.8931,-1.0227,-1.1949,-1.2743,-1.3594,-1.4756,-1.5264,0.0,0.0,0.0,0.0,-1.7754,-1.7995,-1.812,-1.8028,-1.7558,-1.7146,-1.6837,-1.6139,-1.5522,-1.4858,-1.3873,-1.2812,-1.1765,-1.0669,-0.9496,-0.8315,-0.7283,-0.6241,-0.5288,0.0,0.0,0.0,0.0,0.0,0.0,0.0,0.0,0.0,0.0,0.0,0.0,0.0,0.0,0.0,0.0,0.0,0.0,0.0,0.0,0.0,0.0,0.0,0.0,0.0,0.0,0.0,0.0,0.0,0.0,0.0,0.0,0.0,-0.899,-0.982,-1.0617,-1.1048,-1.1264,-1.1511,-1.2027,-1.2135,-1.2336,-1.2796,-1.2842,-1.3204,-1.4077,-1.4125,-1.4283,-1.4633,-1.4641,-1.4816,-1.5181,-1.5197,-1.5364,-1.569,-1.549,-1.5343,-1.5103,-1.494,-1.4727,-1.4624,-1.4631,-1.4543,-1.4398,-1.4398,-1.4153,-1.3652,-1.3307,-1.3143,-1.3052,-1.279,-1.2705,-1.2705,0.0,0.0,0.0,0.0,0.0,0.0,0.0,0.0,0.0,0.0,-0.4651,-0.6207,-0.7913,-0.9194,-1.057,-1.2105,-1.2975,-1.4004,-1.5223,0.0,0.0,0.0,0.0,0.0,-1.914,-1.9082,-1.8945,-1.8784,-1.8316,-1.7907,-1.7504,-1.6854,-1.6182,-1.5478,-1.4422,-1.3283,-1.2159,-1.0965,-0.9799,-0.8567,-0.7391,-0.6387,-0.5573,0.0,0.0,0.0,0.0,0.0,0.0,0.0,0.0,0.0,0.0,0.0,0.0,0.0,0.0,0.0,0.0,0.0,0.0,0.0,0.0,0.0,0.0,0.0,0.0,0.0,0.0,0.0,0.0,0.0,0.0,0.0,0.0,-1.0154,-1.0335,-1.0653,-1.1122,-1.176,-1.1859,-1.1958,-1.2236,-1.2468,-1.2726,-1.302,-1.3478,-1.391,-1.4316,-1.4574,-1.4759,-1.5062,-1.5062,-1.517,-1.5388,-1.5646,-1.5875,-1.6063,-1.6077,-1.604,-1.5812,-1.5553,-1.536,-1.5209,-1.5043,-1.483,-1.465,-1.4482,-1.4237,-1.3997,-1.3652,-1.3392,-1.3052,-1.3052,-1.2881,-1.2705,0.0,0.0,0.0,0.0,0.0,0.0,0.0,0.0,0.0,0.0,-0.4655,-0.6233,-0.7878,-0.9291,-1.0698,-1.2176,-1.3135,-1.4299,-1.5887,0.0,0.0,0.0,0.0,-2.0277,-2.0243,-2.0054,-1.9879,-1.9737,-1.9273,-1.8812,-1.8391,-1.7693,-1.6925,-1.6102,-1.4892,-1.3595,-1.2316,-1.1065,-0.9799,-0.8521,-0.7283,-0.6372,-0.571,-0.4962,-0.4338,-0.3893,-0.3714,-0.3493,-0.3294,-0.3241,0.0,0.0,0.0,0.0,0.0,0.0,0.0,0.0,0.0,0.0,0.0,0.0,0.0,0.0,0.0,0.0,0.0,0.0,0.0,0.0,0.0,0.0,0.0,0.0,-1.054,-1.1219,-1.167,-1.163,-1.1854,-1.2575,-1.267,-1.2797,-1.2925,-1.3244,-1.3493,-1.3719,-1.4098,-1.4458,-1.4743,-1.4885,-1.507,-1.5204,-1.5204,-1.5306,-1.5602,-1.5739,-1.5871,-1.6148,-1.6111,-1.6051,-1.6044,-1.5784,-1.5614,-1.5499,-1.534,-1.509,-1.4824,-1.465,-1.4405,-1.4159,0.0,0.0,0.0,0.0,-1.3137,-1.2966,0.0,0.0,0.0,0.0,0.0,0.0,0.0,0.0,0.0,0.0,0.0,-0.611,-0.773,-0.9223,-1.068,-1.2152,-1.311,-1.4574,0.0,0.0,0.0,-2.0877,-2.0991,-2.1055,-2.1134,-2.0975,-2.083,-2.0765,-2.0317,-1.9904,-1.9462,-1.866,-1.7693,-1.6638,-1.5295,-1.3799,-1.2258,-1.0855,-0.9496,-0.8156,-0.6966,-0.6209,-0.5719,-0.4959,-0.4411,-0.3965,-0.3855,-0.3618,-0.3369,-0.326,0.0,0.0,0.0,0.0,0.0,0.0,0.0,0.0,0.0,0.0,0.0,0.0,0.0,0.0,0.0,0.0,0.0,0.0,0.0,0.0,0.0,0.0,0.0,0.0,-1.1265,-1.2079,-1.2811,-1.2668,-1.2775,-1.3384,-1.3534,-1.3717,-1.3933,-1.4106,-1.4405,-1.4668,-1.4726,-1.4882,-1.5188,0.0,0.0,0.0,0.0,-1.5433,-1.5691,-1.5585,-1.569,-1.594,-1.5819,-1.5771,-1.5856,-1.5689,-1.5617,-1.5598,-1.5448,-1.5304,-1.5082,-1.4824,-1.465,-1.4314,-1.3899,-1.3737,-1.3652,-1.3483,-1.3398,-1.3398,0.0,0.0,0.0,0.0,0.0,0.0,0.0,0.0,0.0,-0.2761,-0.4352,-0.5913,-0.7198,-0.8892,-1.0497,-1.1852,-1.2879,-1.4719,0.0,0.0,-2.1102,-2.1521,-2.174,-2.1898,-2.1967,-2.1938,-2.1836,-2.1732,-2.142,-2.1083,-2.0654,-1.9672,-1.8584,-1.733,-1.5521,-1.3653,-1.1828,-1.0238,-0.881,-0.7396,-0.6372,-0.5832,-0.5563,-0.4794,-0.4298,-0.3968,-0.3747,-0.3511,-0.3379,-0.3157,-0.3087,-0.3059,-0.2978,0.0,0.0,0.0,0.0,0.0,0.0,0.0,0.0,0.0,0.0,0.0,0.0,0.0,0.0,0.0,0.0,0.0,0.0,0.0,0.0,-1.1035,-1.1783,-1.248,-1.3301,-1.3699,-1.3846,-1.3832,-1.38,-1.3924,-1.414,-1.4404,-1.461,-1.4684,-1.4948,-1.5209,-1.5417,-1.5426,-1.5505,-1.5655,-1.5655,-1.561,-1.5535,-1.5763,-1.5799,-1.5567,-1.5851,0.0,-1.549,-1.5498,-1.5354,-1.5249,-1.5256,-1.5167,-1.509,-1.4999,-1.4741,-1.4314,-1.3899,-1.3737,-1.3652,-1.3483,-1.3398,-1.3398,0.0,0.0,0.0,0.0,0.0,0.0,0.0,0.0,0.0,0.0,-0.3814,-0.5331,-0.6557,-0.8235,-0.9769,-1.1068,-1.3534,0.0,0.0,-2.0397,-2.1802,-2.239,-2.2642,-2.2807,-2.2952,-2.2928,-2.2887,-2.2786,-2.2536,-2.2246,-2.1946,-2.0949,-1.9463,-1.7501,-1.5399,-1.3062,-1.063,-0.8847,-0.7458,-0.6303,-0.5382,-0.4897,-0.468,-0.4294,-0.3965,-0.3691,-0.3413,-0.3244,-0.3132,-0.2965,-0.2886,-0.2805,-0.2705,-0.2665,-0.2693,0.0,0.0,0.0,0.0,0.0,0.0,0.0,0.0,0.0,0.0,0.0,0.0,0.0,0.0,-0.7981,0.0,0.0,-1.0492,-1.1457,-1.227,-1.2997,-1.3727,-1.4104,-1.4323,-1.4425,-1.4607,-1.4745,-1.4813,-1.5057,-1.5244,-1.5244,-1.5404,-1.5505,-1.5647,-1.5655,-1.5726,-1.5805,-1.5805,-1.5726,-1.5655,-1.569,-1.563,-1.534,-1.5446,-1.5418,-1.5292,-1.5132,-1.5158,-1.5159,-1.5001,-1.4866,-1.4793,-1.4871,-1.4774,-1.4482,-1.4146,-1.3984,-1.3913,-1.3828,-1.3743,-1.3743,0.0,0.0,0.0,0.0,0.0,0.0,0.0,0.0,0.0,0.0,-0.3165,-0.4578,-0.5781,-0.7336,-0.8842,0.0,0.0,0.0,0.0,-1.8377,-1.9318,-1.8387,-1.8531,-1.8727,-1.8895,-1.8855,-1.8815,-1.8818,-1.8596,-1.8368,-1.8163,-1.7329,-1.5979,-1.423,-1.2397,-1.0355,-0.8229,-0.6733,-0.5666,-0.4992,-0.4229,-0.3738,-0.3519,-0.3463,-0.3408,-0.3299,-0.3074,-0.2907,-0.274,-0.2631,-0.2522,-0.2413,-0.2235,-0.2285,-0.2405,-0.2709,-0.277,0.0,0.0,0.0,0.0,0.0,0.0,0.0,0.0,0.0,-0.6151,-0.6813,-0.7509,-0.824,-0.9244,-1.0087,-1.0959,-1.1729,-1.2594,-1.3339,-1.3992,-1.4281,-1.4577,-1.4935,-1.5213,-1.5497,-1.5576,-1.5726,-1.5805,-1.5805,-1.5805,-1.5805,-1.5805,-1.5805,-1.5805,-1.5805,-1.5805,-1.5805,-1.5805,-1.5647,-1.5426,-1.5204,-1.507,-1.5017,-1.5078,-1.484,-1.4878,-1.4981,-1.4747,-1.4621,-1.4487,-1.4583,-1.4586,-1.4566,-1.4455,-1.4239,-1.4092,-1.4068,-1.4088,-1.4088,0.0,0.0,0.0,0.0,0.0,0.0,0.0,0.0,0.0,0.0,0.0,0.0,0.0,0.0,0.0,0.0,0.0,0.0,0.0,-0.9837,-0.8542,-0.1638,-0.1529,-0.1684,-0.1768,-0.1812,-0.1816,-0.1756,-0.1664,-0.1521,-0.1304,-0.0914,-0.1355,-0.25,-0.2314,-0.269,-0.3478,-0.352,-0.3528,-0.3508,-0.3067,-0.2738,-0.2519,-0.235,-0.2573,-0.2907,-0.2687,-0.2464,-0.2238,-0.2127,-0.2002,-0.1882,-0.1882,-0.2044,-0.2219,-0.228,0.0,-0.2467,-0.2653,-0.2897,-0.3261,-0.3753,-0.4099,-0.4524,0.0,0.0,-0.616,-0.6812,-0.7328,-0.8037,-0.8902,-0.9696,-1.0586,-1.155,-1.2432,-1.3119,-1.3717,-1.4289,-1.4713,-1.5133,-1.5204,-1.5355,-1.5726,-1.5797,-1.5805,-1.5805,-1.5805,-1.5805,-1.5805,-1.5805,-1.5805,-1.5805,-1.5805,-1.5805,-1.5805,-1.5805,-1.5576,-1.5204,-1.5204,-1.5015,-1.4697,-1.4624,-1.4595,-1.4637,-1.4565,-1.4543,-1.4472,-1.4509,-1.4381,-1.4187,-1.4303,-1.4179,-1.3974,-1.4072,-1.4088,-1.4088,0.0,0.0,0.0,0.0,0.0,0.0,0.0,0.0,0.0,0.0,0.0,0.0,0.0,0.0,0.0,0.0,0.0,0.0,-0.4197,-0.4195,-0.2793,0.0609,0.0638,0.0546,0.0482,0.0492,0.0468,0.042,0.0411,0.0406,0.0411,0.0479,0.0461,0.0398,0.0273,0.0136,-0.0,-0.0215,-0.0549,-0.0943,-0.0891,-0.1004,-0.1118,-0.1008,-0.1175,-0.1511,-0.2071,-0.213,0.0,0.0,-0.1719,-0.1536,-0.1565,-0.1668,-0.1778,-0.1938,-0.2013,0.0,-0.2403,-0.2725,-0.3126,0.0,-0.3857,-0.4211,-0.4836,-0.5421,-0.5932,-0.6441,-0.7179,-0.7948,-0.8707,-0.9473,-1.0324,0.0,-1.1929,-1.2599,-1.3346,-1.3855,-1.4281,-1.4776,-1.5062,-1.5355,-1.5726,-1.5805,-1.5805,-1.5805,-1.5805,-1.5805,-1.5805,-1.5805,-1.5805,-1.5805,-1.5805,-1.5805,-1.5805,-1.5805,-1.5576,-1.5204,-1.5204,-1.4991,-1.4569,-1.4569,-1.4504,-1.4278,-1.4059,-1.4011,-1.4187,-1.4187,-1.4296,-1.4316,-1.4122,-1.3933,-1.3835,-1.4081,-1.4088,-1.4088,0.0,0.0,0.0,0.0,0.0,0.0,0.0,0.0,0.0,0.0,0.0,0.0,0.0,0.0,0.0,0.0,0.0,0.0,0.0,0.2026,0.396,0.6772,0.6958,0.0,0.6969,0.7016,0.6995,0.6896,0.6818,0.6686,0.6494,0.622,0.6033,0.5859,0.5165,0.4595,0.4092,0.3317,0.2456,0.1645,0.1131,0.0791,0.0565,0.0337,0.0112,-0.0224,-0.1288,-0.1513,0.0,0.0,-0.1148,-0.0948,-0.0979,-0.1134,-0.1297,-0.1467,-0.1614,-0.1817,-0.2154,0.0,0.0,-0.3138,-0.3538,-0.3949,-0.4387,-0.5012,-0.5629,-0.6006,-0.6855,-0.7629,-0.8165,-0.8927,-0.9765,-1.0507,-1.118,-1.1929,-1.2753,-1.3346,-1.3855,-1.4425,-1.4776,-1.5141,-1.5513,-1.5726,-1.5805,-1.5805,-1.5805,-1.5805,-1.5805,-1.5805,-1.5805,-1.5805,-1.5805,-1.5805,-1.5805,-1.5805,-1.5576,-1.5204,-1.5204,-1.4991,-1.4569,-1.4497,-1.4281,-1.3992,-1.3637,-1.3631,-1.385,-1.385,-1.3989,-1.4209,-1.3818,-1.3691,-1.3676,-1.3811,-1.3848,-1.3848,0.0,0.0,0.0,0.0,0.0,0.0,0.0,0.0,0.0,0.0,0.0,0.0,0.0,0.0,0.0,0.0,0.0,0.0,0.0,0.9944,1.3684,2.3065,2.3851,2.4105,2.4246,2.4242,2.4244,2.4244,2.4107,2.3917,2.3637,2.2995,2.1001,1.7872,1.5737,1.2816,0.9439,0.7196,0.5423,0.3971,0.2817,0.2448,0.251,0.1754,0.1119,0.0561,-0.0168,0.0,0.0,0.0,-0.0172,-0.0059,-0.0061,-0.0378,0.0,-0.0733,-0.1076,-0.148,0.0,0.0,-0.2311,-0.273,-0.3199,-0.3693,-0.4143,-0.4607,-0.5154,-0.5538,-0.6167,-0.6791,-0.7165,-0.7936,-0.8627,-0.9226,-1.0207,-1.1111,-1.1929,-1.2746,-1.3411,-1.4057,-1.4418,-1.4713,0.0,-1.5443,-1.5805,-1.5805,-1.5805,-1.5805,-1.5805,-1.5805,-1.5805,-1.5805,-1.5805,-1.5805,-1.5805,-1.5805,-1.5576,-1.5204,-1.5204,-1.4991,-1.4569,-1.4274,-1.3992,-1.3797,-1.3572,-1.3499,-1.3514,-1.3514,-1.3514,-1.355,-1.34,-1.3293,-1.3328,-1.3277,-1.324,-1.324,0.0,0.0,0.0,0.0,0.0,0.0,0.0,0.0,0.0,0.0,0.0,0.0,0.0,0.0,0.0,0.0,0.0,0.0,0.0,1.5011,1.8511,2.3198,2.3861,2.4216,2.4402,2.4483,2.4488,2.44,2.4256,2.4007,2.3645,2.2781,2.1306,1.9189,1.695,1.4437,1.1778,0.954,0.762,0.5947,0.479,0.3893,0.3232,0.2579,0.2014,0.1512,0.0,0.0,0.0,0.0,0.0,0.0634,0.0668,0.0311,-0.0063,-0.0199,-0.0538,-0.0941,-0.1076,0.0,-0.183,-0.215,-0.2508,-0.2884,-0.339,-0.3814,-0.4307,-0.4693,-0.516,-0.5702,-0.6244,-0.6938,-0.7629,-0.8385,-0.9221,-1.0056,-1.0887,-1.1781,-1.2599,-1.3258,-1.384,0.0,0.0,0.0,0.0,-1.5576,-1.5726,-1.5805,-1.5805,-1.5805,-1.5805,-1.5805,-1.5805,-1.5805,-1.5805,-1.5655,-1.5497,-1.5204,-1.4919,-1.4713,-1.4425,-1.4201,-1.3992,-1.379,-1.3572,-1.3492,-1.3492,-1.3492,-1.3492,-1.3506,-1.316,-1.3047,-1.2993,-1.2716,-1.2605,-1.2665,0.0,0.0,0.0,0.0,0.0,0.0,0.0,0.0,0.0,0.0,0.0,0.0,0.0,0.0,0.0,0.0,0.0,0.0,0.0,0.0,1.9776,2.1948,2.2843,2.3425,2.3682,2.38,2.3836,2.3735,2.3569,2.3285,2.2919,2.2057,2.0955,1.9622,1.7607,1.5639,1.3668,1.1595,0.9693,0.7984,0.6588,0.5353,0.43,0.3418,0.2794,0.0,0.0,0.0,0.0,0.0,0.0,0.0,0.1151,0.094,0.0642,0.0466,0.0134,-0.0269,-0.0408,-0.0835,-0.1359,-0.1616,-0.1944,-0.2201,-0.2697,-0.3074,-0.3512,-0.3741,-0.4194,-0.4649,-0.5031,-0.5632,-0.64,-0.706,-0.797,-0.89,-0.9739,-1.0875,-1.1781,-1.2378,-1.3258,-1.392,0.0,0.0,0.0,-1.5505,-1.5647,-1.5726,-1.5805,-1.5805,-1.5805,-1.5805,-1.5805,-1.5805,-1.5805,-1.5576,-1.5355,-1.507,-1.4784,-1.4497,-1.4281,-1.4129,-1.392,-1.3717,-1.3572,-1.3492,-1.3492,-1.3492,-1.3492,-1.3492,-1.3119,-1.3046,-1.2973,-1.2673,-1.2594,-1.2743,0.0,0.0,0.0,0.0,0.0,0.0,0.0,0.0,0.0,0.0,0.0,0.0,0.0,0.0,0.0,0.0,0.0,0.0,0.0,0.0,0.0,2.0127,2.1579,2.247,2.2835,2.2961,2.3045,2.3045,2.2772,2.2512,2.2231,2.1502,2.0652,1.9611,1.819,1.6683,1.5115,1.3291,1.1617,0.9988,0.8196,0.6823,0.5682,0.4399,0.0,0.0,0.0,0.0,0.0,0.0,0.0,0.0,0.0,0.148,0.1345,0.121,0.0942,0.061,0.0209,-0.0357,-0.0807,-0.1052,-0.1359,-0.166,-0.2037,-0.2445,-0.2622,-0.2622,-0.3129,-0.3491,0.0,0.0,-0.4823,-0.5387,-0.6448,-0.7546,-0.8486,-0.9814,-1.0962,0.0,0.0,0.0,0.0,0.0,0.0,-1.5434,0.0,-1.5576,-1.5797,-1.5805,-1.5805,-1.5805,-1.5805,-1.5805,-1.5805,-1.5576,-1.5292,-1.4872,-1.4713,-1.4425,-1.4129,-1.4129,-1.392,-1.3499,-1.3492,-1.3492,-1.3492,-1.3492,-1.3492,-1.3499,-1.3273,-1.32,-1.32,-1.2987,-1.311,-1.3369,0.0,0.0,0.0,0.0,0.0,0.0,0.0,0.0,0.0,0.0,0.0,0.0,0.0,0.0,0.0,0.0,0.0,0.0,0.0,0.0,0.0,0.0,0.0,0.0,0.0,0.0,0.0,0.0,0.0,2.1882,2.1524,2.0991,2.0299,0.0,1.826,1.698,1.5629,1.3852,1.2218,1.0621,0.0,0.7626,0.628,0.0,0.0,0.0,0.0,0.0,0.0,0.0,0.0,0.0,0.0,0.1634,0.1547,0.148,0.1228,0.0972,0.0839,0.0286,-0.0219,-0.0294,-0.0809,-0.1398,-0.1472,-0.1757,-0.2041,-0.2041,-0.2187,-0.2331,0.0,0.0,0.0,-0.4393,-0.5427,0.0,-0.7488,-0.8815,0.0,-1.1105,0.0,-1.2893,-1.3717,-1.4072,0.0,0.0,-1.5426,-1.5576,-1.5797,-1.5805,-1.5805,-1.5805,-1.5805,-1.5726,-1.5576,-1.5221,-1.4935,-1.4713,-1.4641,-1.4497,-1.4353,-1.4209,-1.3992,-1.3717,-1.3572,-1.3492,-1.3492,-1.3492,-1.3492,-1.3499,-1.3273,-1.32,-1.3228,-1.3234,-1.3292,-1.3432,0.0,0.0,0.0,0.0,0.0,0.0,0.0,0.0,0.0,0.0,0.0,0.0,0.0,0.0,0.0,0.0,0.0,0.0,0.0,0.0,0.0,0.0,0.0,0.0,0.0,0.0,0.0,0.0,0.0,0.0,0.0,2.0512,2.0015,1.9413,1.8366,1.7272,1.6034,0.0,0.0,0.0,0.0,0.0,0.0,0.0,0.0,0.0,0.0,0.0,0.0,0.0,0.0,0.2044,0.2109,0.2039,0.1956,0.1911,0.0,0.1339,0.1153,0.08,0.0438,0.0074,-0.0364,-0.0788,-0.0932,-0.0995,-0.0984,-0.1042,-0.1178,0.0,-0.1591,0.0,0.0,0.0,0.0,0.0,-0.6641,-0.8125,-0.9447,0.0,-1.1704,0.0,-1.3572,-1.4065,-1.4561,0.0,-1.5275,-1.5497,-1.5805,-1.5805,-1.5805,-1.5805,-1.5805,-1.5655,-1.5355,-1.5078,-1.4792,-1.4569,-1.4569,-1.4497,-1.4353,-1.4201,-1.3992,-1.379,-1.3572,-1.3492,-1.3492,-1.3492,-1.3492,-1.3492,-1.3346,-1.3346,-1.3382,-1.3558,-1.3765,-1.3951,0.0,0.0,0.0,0.0,0.0,0.0,0.0,0.0,0.0,0.0,0.0,0.0,0.0,0.0,0.0,0.0,0.0,0.0,0.0,0.0,0.0,0.0,0.0,0.0,0.0,0.0,0.0,0.0,0.0,0.0,0.0,0.0,0.0,0.0,0.0,0.0,0.0,0.0,0.0,0.0,0.0,0.0,0.0,0.0,0.0,0.0,0.0,0.0,0.0,0.0,0.2762,0.2544,0.2633,0.2509,0.2367,0.2287,0.1963,0.1636,0.1335,0.1183,0.0952,0.0298,0.0072,-0.0,-0.0348,-0.0205,0.0067,0.0065,0.0,-0.0514,-0.0706,-0.1026,-0.1564,-0.2335,0.0,-0.4691,-0.5955,-0.7627,-0.9135,-1.0145,-1.1695,-1.2903,-1.3498,-1.425,-1.4848,-1.5275,-1.5346,-1.5497,-1.5797,-1.5797,-1.5805,-1.5805,-1.5797,-1.5576,-1.5204,-1.4999,-1.4792,-1.4569,-1.4569,-1.4569,-1.4425,-1.4209,-1.4,-1.3863,-1.3645,-1.3492,-1.3492,-1.3492,-1.3492,-1.3492,-1.3492,-1.3492,-1.3543,-1.3909,-1.4223,-1.4523,0.0,0.0,0.0,0.0,0.0,0.0,0.0,0.0,0.0,0.0,-0.1033,0.0,0.0,0.0,0.0,0.0,0.0,0.0,0.0,0.0,0.0,0.0,0.0,0.0,0.0,0.0,0.0,0.0,0.0,0.0,0.0,0.0,0.0,0.0,0.0,0.0,0.0,0.0,0.0,0.0,0.0,0.0,0.0,0.0,0.0,0.0,0.0,0.0,0.0,0.0,0.2835,0.2678,0.289,0.2679,0.2426,0.237,0.203,0.1661,0.164,0.1368,0.1161,0.0927,0.0625,0.0407,0.0339,0.0332,0.0,0.0,0.0697,0.0436,-0.0125,-0.0685,-0.1321,-0.2082,0.0,0.0,0.0,0.0,-0.9103,0.0,0.0,0.0,0.0,0.0,0.0,0.0,-1.5921,-1.5991,-1.607,-1.5867,-1.5805,-1.5805,-1.5647,-1.5426,-1.5204,-1.4999,-1.4792,-1.4569,-1.4569,-1.4569,-1.4569,-1.4425,-1.4209,-1.4065,-1.3855,-1.3645,-1.3492,-1.3492,-1.3492,-1.3492,-1.3492,-1.3492,-1.3565,-1.4165,-1.4421,-1.4553,0.0,0.0,0.0,0.0,0.0,0.0,0.0,0.0,0.0,0.0,-0.1915,-0.1072,0.0,0.0,0.0,0.0,0.0,0.0,0.0,0.0,0.0,0.0,0.0,0.0,0.0,0.0,0.0,0.0,0.0,0.0,0.0,0.0,0.0,0.0,0.0,0.0,0.0,0.0,0.0,0.0,0.0,0.0,0.0,0.0,0.0,0.0,0.0,0.0,0.0,0.0,0.3207,0.3103,0.3099,0.2856,0.2562,0.2601,0.217,0.1715,0.1717,0.143,0.1139,0.1125,0.0963,0.0806,0.0794,0.0,0.0,0.0,0.0975,0.0784,0.0241,0.0,0.0,0.0,0.0,0.0,0.0,0.0,0.0,0.0,0.0,0.0,0.0,0.0,-1.5956,-1.6585,-1.6682,-1.6542,-1.6202,-1.614,-1.6,-1.5929,-1.5788,-1.5576,-1.5355,-1.5141,-1.4927,-1.4792,-1.4792,-1.4721,-1.4569,-1.4425,-1.4281,-1.4057,-1.3863,-1.3717,-1.3492,-1.3492,-1.3492,-1.3492,-1.3492,-1.3601,-1.3806,-1.4289,-1.4575,-1.4779,0.0,0.0,0.0,0.0,0.0,0.0,0.0,-0.2939,-0.2957,-0.304,-0.2759,-0.2144,-0.1073,-0.0,0.1112,0.0,0.0,0.0,0.0,0.0,0.0,0.0,0.0,0.0,0.0,0.0,0.0,1.5948,0.0,0.0,0.0,0.0,0.0,0.0,0.0,0.0,0.0,0.0,0.0,0.0,0.0,0.0,0.0,0.0,0.0,0.0,0.0,0.0,0.0,0.0,0.3587,0.3526,0.3292,0.2978,0.2741,0.2736,0.2222,0.1688,0.1714,0.1418,0.1119,0.1113,0.109,0.1063,0.1039,0.096,0.0,0.0,0.0879,0.07,0.0117,0.0,0.0,0.0,0.0,0.0,0.0,0.0,0.0,0.0,0.0,0.0,0.0,0.0,0.0,-1.7453,-1.7491,-1.7166,-1.6482,-1.6421,-1.6342,-1.6202,-1.6,-1.5797,-1.5576,-1.5355,-1.5141,-1.4935,-1.4935,-1.4792,-1.4641,-1.4497,-1.4353,-1.4057,-1.3928,-1.3717,-1.3492,-1.3492,-1.3492,-1.3492,-1.3492,-1.3653,-1.3923,-1.4326,-1.4626,-1.4896,0.0,0.0,0.0,0.0,0.0,0.0,0.0,-0.3352,-0.3428,-0.3597,-0.3429,-0.3084,-0.2551,-0.1162,0.0134,0.0,0.0,0.0,0.0,0.0,0.0,0.0,0.0,0.0,0.0,0.0,0.0,1.4219,1.4605,0.0,0.0,0.0,0.0,0.0,0.0,1.7269,0.0,0.0,0.0,0.0,0.0,0.0,0.0,0.0,0.0,0.0,0.0,0.0,0.0,0.0,0.0,0.3842,0.3576,0.3149,0.2781,0.2662,0.0,0.0,0.1637,0.1378,0.1114,0.1087,0.1059,0.1037,0.0969,0.0,0.0,0.1003,0.0691,0.0225,-0.062,-0.135,-0.2552,0.0,0.0,-0.6827,0.0,0.0,0.0,0.0,0.0,0.0,0.0,-1.752,0.0,-1.8593,-1.8499,-1.7901,-1.6899,-1.6839,-1.676,-1.6542,-1.6272,-1.6,-1.5797,-1.5576,-1.5355,-1.5204,-1.5007,-1.4864,-1.4864,-1.4641,-1.4425,-1.4129,-1.4057,-1.3848,-1.3492,-1.3492,-1.3492,-1.3492,-1.3492,-1.3514,-1.3616,-1.4238,-1.4487,-1.4604,0.0,0.0,0.0,0.0,0.0,0.0,0.0,-0.3558,-0.3636,-0.3875,-0.3687,-0.3483,-0.3173,-0.241,-0.1337,0.0,0.0,0.0,0.0,0.0,0.0,0.0,0.0,0.0,0.0,0.0,0.0,1.2869,1.3997,0.0,0.0,0.0,0.0,0.0,0.0,1.6892,1.6441,0.0,0.0,0.0,0.0,0.0,0.0,0.0,0.0,0.0,0.0,0.0,0.0,0.0,0.0,0.0,0.3635,0.3274,0.0,0.0,0.2235,0.1822,0.1767,0.1503,0.1303,0.1309,0.122,0.1127,0.1106,0.0,0.0,0.0728,0.022,-0.0378,-0.095,-0.2306,-0.3755,0.0,0.0,0.0,0.0,0.0,0.0,0.0,0.0,0.0,0.0,0.0,-1.9602,-1.9836,-1.9628,-1.9233,-1.8643,-1.8056,-1.751,-1.7097,-1.689,-1.6612,-1.6272,-1.5991,-1.578,-1.5576,-1.5213,-1.4999,-1.4864,-1.4713,-1.4418,-1.4129,-1.4129,-1.3848,-1.3492,-1.3346,-1.3346,-1.3346,-1.3193,-1.3241,-1.344,-1.3765,-1.398,-1.418,0.0,0.0,0.0,0.0,0.0,0.0,-0.3549,-0.3701,-0.3809,-0.3988,-0.3948,-0.3788,-0.3571,-0.3258,-0.2544,-0.1339,0.0,0.0,0.0,0.0,0.0,0.0,0.0,0.0,0.0,0.0,0.0,1.1807,1.3277,1.4393,0.0,0.0,1.6429,1.6642,0.0,0.0,0.0,0.0,0.0,0.0,0.0,0.0,0.0,0.0,0.0,0.0,0.0,0.0,0.0,0.0,0.0,0.0,0.0,0.0,0.0,0.0,0.2355,0.1959,0.1956,0.1693,0.1489,0.1518,0.1369,0.1209,0.0,0.0,0.0,0.0159,-0.0419,-0.109,-0.1917,-0.3401,-0.4886,0.0,0.0,-0.9909,0.0,0.0,0.0,0.0,0.0,0.0,0.0,-2.0914,-2.1193,-2.1192,-2.091,-2.0602,-2.0355,-1.9573,-1.8721,-1.7852,-1.751,-1.7166,-1.6742,-1.6403,-1.6132,-1.5867,-1.5497,-1.5213,-1.5007,-1.4713,-1.4353,-1.4057,-1.3985,-1.3702,-1.3419,-1.3193,-1.3119,-1.3119,-1.2973,-1.3033,-1.3236,-1.3327,-1.3502,-1.3705,0.0,0.0,0.0,0.0,0.0,0.0,0.0,-0.3779,-0.3965,-0.4061,-0.4201,-0.4188,-0.3924,-0.3619,-0.3262,-0.299,0.0,0.0,0.0,0.0,0.0,0.0,0.0,0.0,0.0,0.0,0.0,1.1126,1.2128,1.3265,1.4538,1.4994,1.5421,1.5832,0.0,0.0,0.0,0.0,0.0,0.0,0.0,0.0,0.0,0.0,0.0,0.0,0.0,0.0,0.0,0.0,0.0,0.0,0.0,0.0,0.0,0.0,0.2527,0.2192,0.2202,0.1973,0.1724,0.1725,0.1447,0.1228,0.0,0.0,0.0053,-0.0814,-0.1208,-0.1959,-0.382,-0.4542,-0.5599,-0.7832,-0.9475,0.0,-1.4563,0.0,0.0,0.0,0.0,0.0,-2.1908,-2.2629,-2.2955,-2.2592,-2.2286,0.0,-2.1616,-2.125,-2.0355,-1.8808,-1.8056,-1.7501,-1.7166,-1.6811,-1.6403,-1.6061,-1.5718,-1.5355,-1.5204,-1.4641,-1.4281,-1.4057,-1.371,-1.3419,-1.3193,-1.2973,-1.29,-1.29,-1.29,-1.29,-1.2942,-1.325,-1.3286,-1.3182,0.0,0.0,0.0,0.0,0.0,0.0,0.0,-0.3589,-0.3849,-0.4151,-0.4224,-0.4269,-0.4172,-0.41,-0.3877,-0.352,0.0,0.0,0.0,0.0,0.0,0.0,0.0,0.0,0.0,0.0,0.0,0.9372,1.0915,1.2128,1.309,1.382,1.4343,1.4664,1.4915,1.4983,0.0,0.0,0.0,0.0,0.0,0.0,0.0,0.0,0.0,0.0,0.0,0.0,0.0,0.0,0.0,0.0,0.0,0.0,0.0,0.0,0.0,0.0,0.2268,0.1978,0.1738,0.1724,0.1526,0.1219,0.0838,0.0,0.0,-0.1317,-0.2365,-0.344,-0.4393,-0.5509,-0.6995,-0.9289,-1.0955,0.0,0.0,0.0,0.0,0.0,0.0,0.0,0.0,0.0,-2.4368,-2.3917,-2.3492,-2.3195,-2.2967,-2.2408,-2.1416,-1.9977,-1.9177,-1.8576,-1.8104,-1.7364,-1.6821,-1.6403,-1.578,-1.5355,-1.5204,-1.4641,-1.4217,-1.3855,-1.3637,-1.3346,-1.2973,-1.2599,-1.2526,-1.2452,-1.2157,-1.2077,-1.209,-1.2182,-1.214,-1.1928,0.0,0.0,0.0,0.0,0.0,0.0,0.0,-0.3535,-0.3831,-0.4172,-0.4302,-0.4369,-0.4426,-0.436,-0.4184,-0.3965,0.0,0.0,0.0,0.0,0.0,0.0,0.0,0.0,0.0,0.5129,0.6437,0.7648,0.9318,1.0554,1.1423,1.2308,1.2898,1.3338,1.3747,0.0,0.0,0.0,0.0,0.0,0.0,0.0,1.0586,0.0,0.0,0.0,0.0,0.0,0.0,0.0,0.0,0.0,0.0,0.0,0.0,0.0,0.2744,0.0,0.0,0.2053,0.1777,0.1819,0.1437,0.0,0.0,0.0,0.0,0.0,-0.3556,-0.461,-0.5454,-0.6875,-0.8672,-1.0937,-1.2647,0.0,0.0,0.0,0.0,0.0,0.0,0.0,0.0,-2.5986,-2.5714,-2.5231,-2.4811,-2.4469,-2.4208,-2.361,-2.2774,-2.1655,-2.0526,-1.9562,-1.8834,-1.8037,-1.7364,-1.6682,-1.6061,-1.5497,-1.507,-1.4433,-1.4008,-1.3645,-1.32,-1.29,0.0,-1.2157,-1.1929,-1.1929,-1.1632,-1.1484,-1.1484,-1.1409,-1.126,-1.1037,0.0,0.0,0.0,0.0,0.0,0.0,0.0,0.0,0.0,0.0,-0.4363,-0.4523,-0.4578,-0.4439,-0.4316,0.0,0.0,0.0,0.0,0.0,0.0,0.0,0.0,0.0,0.0,0.3156,0.4402,0.593,0.7406,0.8613,0.9622,1.0418,1.1182,1.1814,1.2258,0.0,0.0,0.0,0.0,0.0,0.0,0.0,0.0,0.0,0.0,0.0,0.0,0.0,0.0,0.0,0.0,0.0,0.0,0.0,0.0,0.0,0.0,0.0,0.0,0.0,0.0,0.0,0.0,0.0,0.0,0.0,0.0,0.0,0.0,0.0,0.0,-0.8675,-1.0558,-1.2661,0.0,0.0,0.0,0.0,0.0,0.0,-2.6517,0.0,-2.7202,-2.721,-2.6967,-2.6443,-2.6079,-2.5755,-2.5342,-2.4724,-2.4221,-2.3682,-2.2027,-2.059,-1.9431,-1.8834,-1.7969,-1.6978,-1.6342,-1.5718,-1.4872,-1.4152,-1.3645,-1.3419,-1.2599,-1.2224,-1.2157,-1.1558,-1.1335,-1.1335,-1.1111,-1.1037,-1.0962,-1.0812,-1.0588,-1.0368,0.0,0.0,0.0,0.0,0.0,0.0,0.0,0.0,0.0,0.0,0.0,-0.4438,-0.4514,-0.4629,0.0,0.0,0.0,0.0,0.0,0.0,0.0,0.0,0.0,0.0,0.0,0.1821,0.2983,0.4168,0.5536,0.6699,0.7659,0.8652,0.9445,1.0033,1.0738,0.0,0.0,0.0,0.0,0.0,0.0,0.0,0.0,0.0,0.0,0.0,0.651,0.5976,0.0,0.0,0.0,0.0,0.0,0.0,0.0,0.0,0.2357,0.2179,0.1445,0.0,0.1107,0.0823,0.0184,0.0,0.0,0.0,0.0,0.0,0.0,0.0,0.0,0.0,0.0,0.0,0.0,0.0,0.0,0.0,0.0,0.0,-2.7488,-2.7982,-2.8449,-2.8207,-2.7898,-2.755,-2.7181,-2.682,-2.652,-2.6,-2.5329,-2.4627,-2.3644,-2.2262,-2.0526,-1.9431,-1.8442,-1.7501,-1.6542,-1.578,-1.5133,-1.4217,-1.3492,-1.2973,-1.2378,-1.1929,-1.1558,-1.0962,-1.0738,-1.0663,-1.0293,-1.0067,-0.9916,-0.9922,-0.969,-0.9306,0.0,0.0,0.0,0.0,0.0,0.0,0.0,0.0,0.0,0.0,0.0,0.0,0.0,0.0,0.0,0.0,0.0,0.0,0.0,0.0,0.0,0.0,0.0,0.0,0.0,0.0337,0.1298,0.2345,0.3531,0.4583,0.5617,0.6577,0.7435,0.814,0.9075,0.0,0.0,0.0,0.0,0.0,0.9666,0.0,0.0,0.0,0.0,0.0,0.6013,0.5466,0.0,0.4673,0.4226,0.3754,0.0,0.0,0.0,0.0,0.1608,0.1324,0.0601,0.0478,0.0421,-0.0173,-0.088,-0.1782,0.0,0.0,0.0,0.0,0.0,0.0,0.0,0.0,0.0,0.0,0.0,0.0,0.0,0.0,0.0,0.0,-2.8511,-2.9139,0.0,-2.9104,-2.881,-2.8496,-2.8143,-2.7784,-2.7399,-2.6849,-2.6201,-2.5481,-2.4641,-2.3289,-2.1365,-2.0215,-1.9034,-1.7842,-1.6811,-1.5771,-1.4776,-1.392,-1.3127,-1.2452,-1.1781,-1.126,-1.0962,-1.0218,-0.9916,-0.9922,-0.9387,-0.9165,-0.9013,-0.8856,-0.8551,-0.8241,0.0,0.0,0.0,0.0,0.0,0.0,0.0,0.0,0.0,0.0,0.0,0.0,0.0,0.0,0.0,0.0,0.0,0.0,0.0,0.0,0.0,0.0,0.0,-0.26,-0.1665,-0.1161,-0.0402,0.0557,0.151,0.2498,0.3602,0.4474,0.5396,0.6377,0.7287,0.7935,0.0,0.0,0.8652,0.8712,0.8554,0.0,0.0,0.0,0.0,0.0,0.0,0.0,0.0,0.384,0.3395,0.2944,0.2417,0.0,0.0,0.0,0.0,0.0,-0.0283,-0.0501,-0.0746,-0.1296,-0.1986,-0.3064,0.0,0.0,0.0,0.0,0.0,0.0,0.0,0.0,0.0,0.0,0.0,0.0,0.0,0.0,0.0,-2.8174,-2.9502,0.0,-2.9968,-2.9924,-2.9657,-2.9159,-2.8965,-2.8591,-2.8005,-2.7555,-2.696,-2.6179,-2.5218,-2.3812,-2.1873,-2.0905,-1.9628,-1.8037,-1.701,-1.5754,-1.4266,-1.3477,-1.2673,-1.1855,-1.1037,-1.0513,-1.0212,-0.9468,-0.9094,-0.8937,-0.8403,-0.8174,-0.8097,-0.7706,-0.7399,-0.7176,0.0,0.0,0.0,0.0,0.0,0.0,0.0,0.0,0.0,0.0,0.0,0.0,0.0,0.0,0.0,0.0,0.0,0.0,0.0,0.0,0.0,0.0,-0.3832,-0.3356,-0.2864,-0.2405,-0.1783,-0.0947,-0.0273,0.0556,0.1556,0.2441,0.3652,0.5186,0.5679,0.622,0.6763,0.6934,0.7154,0.7374,0.7165,0.0,0.0,0.0,0.0,0.0,0.0,0.0,0.0,0.3164,0.2679,0.2187,0.1771,0.0,0.0,0.0,0.0,0.0,-0.1183,-0.2377,-0.3221,-0.2563,-0.3138,-0.4243,0.0,0.0,0.0,0.0,0.0,0.0,0.0,0.0,0.0,0.0,0.0,-2.4238,0.0,0.0,-2.8666,-2.9499,0.0,-3.0707,-3.0625,-3.0493,-3.0037,-2.9179,-2.9426,-2.9182,-2.8192,-2.8248,-2.7655,-2.6332,-2.527,-2.3784,-2.1837,-2.0962,-1.9879,-1.8375,-1.6862,-1.5463,-1.4235,-1.3171,-1.2157,-1.1186,-1.0368,-0.976,-0.915,-0.8556,-0.8102,-0.7714,-0.7488,-0.718,-0.6868,-0.6553,-0.6321,-0.6093,0.0,0.0,0.0,0.0,0.0,0.0,0.0,0.0,0.0,0.0,0.0,0.0,0.0,0.0,0.0,0.0,0.0,0.0,0.0,0.0,0.0,0.0,-0.4543,-0.4178,-0.3691,-0.3395,-0.3016,-0.2597,-0.1972,-0.1225,-0.0445,0.089,0.2221,0.3553,0.3877,0.4316,0.4918,0.5089,0.5425,0.581,0.0,0.0,0.0,0.0,0.0,0.0,0.0,0.0,0.0,0.0,0.1782,0.1282,0.0947,0.0,0.0,0.0,0.0,0.0,-0.2137,-0.3239,-0.4285,-0.4281,-0.4747,-0.546,0.0,0.0,0.0,0.0,0.0,0.0,0.0,0.0,0.0,0.0,0.0,-2.4927,-2.6792,-2.7952,-2.895,0.0,0.0,-3.0565,-3.047,-3.0039,-2.9515,-2.8932,-2.8999,-2.8747,-2.8049,-2.7926,-2.7302,-2.6163,-2.5218,-2.3848,-2.2161,-2.0818,-1.9375,-1.7909,-1.6597,-1.5163,-1.3665,-1.2586,-1.1477,-1.0276,-0.9533,-0.8851,-0.8165,-0.7633,-0.7173,-0.6784,-0.6475,-0.6093,-0.5702,-0.5234,-0.5002,-0.4846,0.0,0.0,0.0,0.0,0.0,0.0,0.0,0.0,0.0,0.0,0.0,0.0,0.0,0.0,0.0,0.0,0.0,0.0,0.0,0.0,-0.5029,-0.5029,-0.5072,-0.4875,-0.4498,-0.4345,-0.4155,-0.4018,-0.3468,-0.2843,-0.2006,-0.0612,0.0613,0.1616,0.1949,0.2391,0.3003,0.3282,0.3727,0.4284,0.0,0.0,0.0,0.0,0.0,0.0,0.0,0.0,0.0,0.0,0.0,0.0,0.0,0.0,0.0,-0.1271,-0.1976,-0.269,-0.3078,-0.3978,-0.498,-0.5839,0.0,-0.6719,-0.7859,0.0,0.0,0.0,0.0,0.0,0.0,0.0,0.0,0.0,-2.4185,-2.5269,-2.69,-2.7935,-2.8868,-2.9776,-3.008,-3.017,-3.0063,-2.9551,-2.9017,-2.8614,-2.8585,-2.8398,-2.7888,-2.7656,-2.7079,-2.6099,-2.5163,-2.3865,-2.2167,-2.039,-1.8846,-1.7386,-1.6183,-1.464,-1.2865,-1.1768,-1.0576,-0.9216,-0.8542,-0.7859,-0.7096,-0.663,-0.6163,-0.5699,-0.5312,-0.4924,-0.446,-0.3992,-0.3759,-0.3679,0.0,0.0,0.0,0.0,0.0,0.0,0.0,0.0,0.0,0.0,0.0,0.0,0.0,0.0,0.0,0.0,0.0,0.0,0.0,0.0,-0.5193,-0.5193,-0.5241,-0.5305,-0.5322,-0.5296,-0.5174,-0.498,-0.4835,-0.4064,-0.2783,-0.2117,-0.1394,-0.0614,-0.0056,0.0502,0.1116,0.1393,0.2117,0.3128,0.2903,0.0,0.0,0.0,0.0,0.0,0.0,0.0,0.0,0.0,0.0,0.0,0.0,0.0,-0.154,-0.2139,-0.257,-0.31,-0.4118,-0.4995,-0.5857,-0.6852,0.0,0.0,-0.9418,0.0,0.0,0.0,0.0,0.0,0.0,0.0,0.0,-2.339,-2.4659,-2.5912,-2.7127,0.0,-2.8144,-2.9158,-2.9437,-2.9558,-2.9558,-2.9575,-2.9213,-2.8305,-2.8853,-2.8816,-2.7855,-2.806,-2.765,-2.6342,-2.5244,-2.3637,-2.141,-1.9814,-1.8471,-1.7386,-1.5281,-1.3558,-1.205,-1.064,-0.9367,-0.8156,-0.7395,-0.6633,-0.5938,-0.5392,-0.4927,-0.4462,-0.4073,-0.3528,-0.2981,-0.2902,-0.2746,-0.2588,0.0,0.0,0.0,0.0,0.0,0.0,0.0,0.0,0.0,0.0,0.0,0.0,0.0,0.0,0.0,0.0,0.0,0.0,0.0,0.0,-0.5236,-0.5366,-0.5501,-0.5692,-0.6008,-0.5866,-0.5827,-0.5958,-0.5716,-0.5113,-0.4119,-0.3619,-0.3065,-0.2565,-0.184,-0.1395,-0.1115,-0.0556,0.0167,0.0892,0.0781,0.106,0.0,0.0,0.0,0.0,0.0,0.0,0.0,0.0,-0.1195,-0.175,0.0,-0.1937,-0.2344,-0.2904,-0.3474,-0.4059,-0.4842,-0.5821,-0.681,-0.7578,0.0,0.0,0.0,0.0,0.0,0.0,0.0,0.0,0.0,0.0,0.0,-2.4035,-2.4994,-2.6015,-2.7127,-2.7593,-2.8182,-2.909,-2.9025,-2.8883,-2.8883,-2.858,-2.8195,-2.7837,-2.8097,-2.8051,-2.7646,-2.7572,-2.7177,-2.6323,-2.533,-2.3897,-2.1978,-1.9902,-1.7879,-1.5841,-1.4254,-1.2742,-1.123,-0.9513,-0.8075,-0.6853,-0.6237,-0.5389,-0.454,-0.4384,-0.3917,-0.3372,-0.3136,-0.2824,-0.2589,-0.2357,-0.22,-0.2042,0.0,0.0,0.0,0.0,0.0,0.0,0.0,0.0,0.0,0.0,0.0,0.0,0.0,0.0,0.0,0.0,0.0,0.0,0.0,-0.5111,-0.5323,-0.5539,-0.5717,-0.5968,-0.6404,-0.6324,-0.6406,-0.6678,-0.6435,-0.605,-0.5496,-0.5054,-0.4615,-0.4174,-0.3561,-0.3174,-0.2952,-0.2393,-0.1838,-0.1282,-0.1227,-0.1227,0.0,0.0,0.0,0.0,0.0,0.0,0.0,0.0,-0.232,0.0,0.0,0.0,0.0,0.0,-0.4471,-0.5074,-0.578,-0.6722,-0.7664,0.0,0.0,0.0,0.0,0.0,0.0,0.0,0.0,0.0,0.0,0.0,0.0,0.0,-2.5146,-2.5859,-2.6813,-2.7276,-2.7776,-2.8425,-2.8301,-2.8184,-2.8216,-2.7901,-2.7707,-2.7766,-2.7766,-2.7736,-2.7719,-2.7522,-2.7192,-2.6704,-2.5922,-2.4657,-2.2993,-2.007,-1.7276,-1.462,-1.2892,-1.1255,-0.976,-0.8112,-0.6692,-0.5541,-0.4999,-0.4382,-0.3608,-0.345,-0.2902,-0.2119,-0.1883,-0.1804,-0.1648,-0.1414,-0.1335,-0.1178,0.0,0.0,0.0,0.0,0.0,0.0,0.0,0.0,0.0,0.0,0.0,0.0,0.0,0.0,0.0,0.0,0.0,0.0,0.0,-0.5203,-0.542,-0.568,-0.589,-0.611,-0.6416,-0.6748,-0.696,-0.7098,-0.7125,-0.7025,-0.6907,-0.6421,-0.5982,-0.5487,-0.5214,-0.4772,-0.4216,-0.4061,-0.3729,-0.3287,-0.3118,-0.34,-0.3993,0.0,0.0,0.0,0.0,0.0,0.0,0.0,-0.3282,0.0,0.0,0.0,0.0,-0.5147,-0.5559,-0.6026,-0.6948,-0.7633,-0.8412,0.0,0.0,0.0,0.0,0.0,0.0,0.0,0.0,0.0,0.0,0.0,0.0,-2.4384,-2.5068,-2.5605,-2.6134,-2.6504,-2.6775,-2.6975,-2.7279,-2.7526,-2.7587,-2.7783,-2.7946,-2.8099,-2.8099,-2.8136,-2.8201,-2.8083,-2.7908,-2.7607,-2.702,-2.5896,-2.4241,-2.0265,-1.6807,-1.3927,-1.1102,-0.8974,-0.7612,-0.6222,-0.4991,-0.4068,-0.3839,-0.3608,-0.3219,-0.2668,-0.1804,-0.0786,-0.0393,-0.0157,-0.0,-0.0,-0.0,0.0079,0.0,0.0,0.0,0.0,0.0,0.0,0.0,0.0,0.0,0.0,0.0,0.0,0.0,0.0,0.0,0.0,0.0,0.0,0.0,-0.5376,-0.568,-0.589,-0.6153,-0.641,-0.6751,-0.7277,-0.7569,-0.7646,-0.777,-0.7795,-0.7759,-0.7391,-0.7122,-0.6891,-0.6524,-0.619,-0.5855,-0.5651,-0.5378,-0.5039,-0.4824,-0.4776,-0.4747,0.0,0.0,0.0,0.0,0.0,0.0,0.0,0.0,0.0,0.0,0.0,0.0,-0.5881,-0.6399,-0.6968,-0.7548,-0.8251,0.0,0.0,0.0,0.0,0.0,0.0,0.0,0.0,0.0,0.0,-2.0777,0.0,0.0,-2.4333,-2.4966,-2.547,-2.5917,-2.6295,-2.6607,-2.6876,-2.7233,-2.7465,-2.7587,-2.7824,-2.8014,-2.8154,-2.83,-2.8414,-2.8543,-2.8565,-2.8535,-2.8445,-2.8036,-2.7308,-2.6176,-1.9116,-1.4776,-1.3125,-0.6325,-0.3935,-0.5448,-0.4236,-0.3203,-0.2344,-0.18,-0.1333,-0.0942,-0.0471,-0.0078,0.0314,0.0471,0.0864,0.1335,0.1335,0.1335,0.1339,0.0,0.0,0.0,0.0,0.0,0.0,0.0,0.0,0.0,0.0,0.0,0.0,0.0,0.0,0.0,0.0,0.0,0.0,0.0,0.0,-0.5847,-0.6153,-0.6453,-0.6745,-0.7112,-0.7631,-0.7971,-0.814,-0.8322,-0.8484,-0.8606,-0.8408,-0.8243,-0.8072,0.0,-0.7593,-0.7379,-0.7224,-0.695,-0.6617,-0.6514,-0.6298,-0.5986,0.0,0.0,0.0,0.0,0.0,0.0,0.0,0.0,0.0,0.0,0.0,0.0,-0.6842,-0.7322,-0.7842,-0.8244,0.0,0.0,0.0,0.0,0.0,0.0,0.0,0.0,0.0,0.0,-1.935,-2.0393,-2.1739,0.0,-2.3881,-2.4697,-2.5394,-2.586,-2.6189,-2.6538,-2.6859,-2.7201,-2.7465,-2.763,-2.7882,-2.8126,-2.8318,-2.8484,-2.8651,-2.885,-2.8952,-2.9052,-2.9147,-2.8945,-2.6542,-2.1797,-1.6025,-1.0721,-0.5923,-0.115,0.0623,-0.0364,-0.0993,-0.0937,-0.0391,0.0078,0.0627,0.1256,0.1413,0.157,0.1649,0.1492,0.1727,0.212,0.212,0.212,0.2207,0.0,0.0,0.0,0.0,0.0,0.0,0.0,0.0,0.0,0.0,0.0,0.0,0.0,0.0,0.0,0.0,0.0,0.0,0.0,0.0,-0.6056,-0.641,-0.6793,-0.716,-0.7523,-0.7855,-0.8231,-0.8568,-0.8835,-0.9105,-0.9422,-0.9354,-0.9249,-0.9131,0.0,-0.8981,-0.8778,-0.8725,-0.8514,-0.8084,-0.8084,-0.7919,-0.7647,-0.7086,0.0,0.0,0.0,0.0,0.0,0.0,0.0,0.0,0.0,0.0,-0.7648,-0.7912,-0.8275,-0.8651,0.0,0.0,0.0,0.0,0.0,0.0,0.0,0.0,0.0,0.0,0.0,-1.9073,-1.9675,-2.1167,-2.2484,-2.3069,-2.4124,-2.507,-2.5575,-2.5955,-2.6268,-2.6605,-2.6946,-2.7239,-2.7461,-2.771,-2.8013,-2.8358,-2.8535,-2.8772,-2.9126,-2.9258,-2.9476,-2.9737,-2.8793,-2.3682,-1.4085,-1.0943,-0.4673,0.459,0.4315,0.4979,0.6375,0.3167,0.1634,0.1562,0.1801,0.243,0.3217,0.3061,0.2982,0.2981,0.2746,0.2588,0.2588,0.2588,0.2588,0.2678,0.0,0.0,0.0,0.0,0.0,0.0,0.0,0.0,0.0,0.0,0.0,0.0,0.0,0.0,0.0,0.0,0.0,0.0,0.0,0.0,-0.6483,-0.6793,-0.7251,-0.7621,-0.7897,-0.8152,-0.8574,-0.9047,-0.9211,-0.9454,0.0,0.0,0.0,-1.0087,0.0,-1.0056,-1.0012,-0.9909,-0.9806,-0.9695,-0.9496,-0.9287,-0.9068,-0.8366,-0.8085,0.0,0.0,0.0,0.0,0.0,0.0,0.0,-0.8036,-0.8193,-0.8308,-0.8529,-0.8846,-0.9261,0.0,-1.0354,0.0,0.0,0.0,0.0,0.0,0.0,0.0,0.0,-1.7814,-1.8547,-1.9589,-2.0371,-2.1158,-2.21,-2.2778,-2.3285,-2.3738,-2.4074,-2.4431,-2.4824,-2.5122,-2.5407,-2.5697,-2.5975,-2.6516,-2.7425,-2.7796,-2.8386,-2.9275,-2.9625,-2.9867,-3.0087,-2.2476,-1.746,-1.5539,-0.2263,0.4727,0.5402,0.9681,1.094,0.9489,0.6596,0.4751,0.3754,0.3756,0.3915,0.4073,0.3915,0.3834,0.3837,0.3604,0.3528,0.3528,0.3528,0.3528,0.3549,0.0,0.0,0.0,0.0,0.0,0.0,0.0,0.0,0.0,0.0,0.0,0.0,0.0,0.0,0.0,0.0,0.0,0.0,0.0,0.0,0.0,-0.7377,-0.7753,-0.8077,-0.8349,-0.857,-0.8865,-0.9257,-0.9588,0.0,0.0,0.0,0.0,-1.0706,0.0,-1.0939,-1.078,-1.0722,-1.0681,-1.0681,-1.0483,-1.0431,-1.041,-0.9843,-0.9597,-0.9455,-0.8763,0.0,0.0,0.0,0.0,0.0,0.0,0.0,-0.8999,-0.9088,-0.9502,-0.9985,0.0,0.0,0.0,0.0,0.0,0.0,0.0,0.0,0.0,-1.7031,-1.757,-1.8192,-1.9018,-1.9817,-2.0605,-2.1333,-2.2108,-2.2734,-2.3147,-2.3481,-2.3836,-2.4242,-2.4537,-2.482,-2.5153,-2.5464,-2.5936,-2.6615,-2.7049,-2.7576,-2.8259,-2.9011,-2.95,-2.9715,-2.0401,-1.3337,-0.906,0.3619,1.1308,1.3958,1.5473,1.4382,1.0978,0.8208,0.6547,0.5696,0.5389,0.5234,0.5076,0.4921,0.4768,0.4693,0.454,0.4462,0.4384,0.4384,0.4307,0.4252,0.0,0.0,0.0,0.0,0.0,0.0,0.0,0.0,0.0,0.0,0.0,0.0,0.0,0.0,0.0,0.0,0.0,0.0,0.0,0.0,0.0,0.0,-0.8167,-0.8447,-0.8765,-0.8935,-0.9168,-0.9408,0.0,0.0,0.0,0.0,0.0,-1.1196,0.0,-1.1713,-1.1515,-1.1563,-1.1563,-1.1515,-1.1411,-1.1504,-1.1621,-1.1217,-1.1084,-1.0939,-1.0215,-0.9916,-0.9915,-0.9647,0.0,0.0,0.0,0.0,-0.9807,-0.9848,-1.0261,-1.077,0.0,0.0,0.0,0.0,0.0,0.0,0.0,0.0,0.0,-1.6791,-1.7378,-1.7949,-1.84,-1.9343,-2.0209,-2.0625,-2.1526,-2.2337,-2.2745,-2.3074,-2.3441,-2.3825,-2.4133,-2.4413,-2.4743,-2.5059,-2.5419,-2.587,-2.6255,-2.6674,-2.7092,-2.8139,-2.8879,-2.921,-1.8461,-0.9046,-0.1486,0.8936,1.7212,2.3208,1.9947,1.6223,1.2183,0.9661,0.8157,0.7499,0.6889,0.6521,0.6234,0.6009,0.578,0.555,0.5553,0.5395,0.5237,0.516,0.5085,0.4948,0.0,0.0,0.0,0.0,0.0,0.0,0.0,0.0,0.0,0.0,0.0,0.0,0.0,0.0,0.0,0.0,0.0,0.0,-0.6937,0.0,0.0,-0.8332,-0.8529,-0.8724,-0.8935,-0.9168,-0.9408,0.0,0.0,0.0,0.0,0.0,0.0,-1.1892,0.0,0.0,-1.2782,-1.2878,-1.2936,-1.2936,-1.2782,-1.2764,-1.2715,-1.227,-1.2115,-1.2001,-1.1455,-1.1238,-1.1228,-1.1069,-1.1007,0.0,0.0,0.0,-1.1094,-1.118,-1.1349,-1.1606,0.0,0.0,0.0,0.0,0.0,0.0,0.0,0.0,0.0,0.0,-1.724,-1.772,-1.824,-1.8725,-1.9255,-1.9788,-2.0294,-2.074,-2.1079,-2.1408,-2.1758,-2.2079,-2.2437,-2.2722,-2.3022,-2.3342,-2.3969,-2.4995,-2.5431,-2.6116,-2.7135,-2.7675,-2.8357,-2.926,-1.1075,-0.1351,-0.1488,1.6225,2.4837,2.4146,1.9744,1.656,1.4515,1.2732,1.0784,0.8856,0.8425,0.8076,0.7774,0.7399,0.7019,0.6633,0.6483,0.6247,0.6009,0.586,0.5783,0.5727,0.0,0.0,0.0,0.0,0.0,0.0,0.0,0.0,0.0,0.0,0.0,0.0,0.0,0.0,0.0,-0.6349,-0.6743,-0.7112,-0.7489,-0.7912,-0.8332,-0.8667,-0.8854,-0.9096,-0.9386,-0.9576,-0.9813,0.0,0.0,0.0,0.0,-1.1015,-1.1486,0.0,0.0,0.0,0.0,0.0,-1.3447,-1.3595,-1.3447,-1.3548,-1.3805,-1.3476,-1.3356,-1.3294,-1.2727,-1.2484,-1.242,-1.2068,-1.1857,-1.1737,-1.1737,0.0,0.0,0.0,-1.1959,0.0,-1.2955,0.0,0.0,0.0,0.0,0.0,0.0,0.0,-1.6057,-1.6534,-1.6905,-1.7406,-1.8095,-1.8553,-1.9011,-1.9493,-1.994,-2.0323,-2.0728,-2.1087,-2.1433,-2.1751,-2.2077,-2.2349,-2.2605,-2.2902,-2.3364,-2.4073,-2.4513,-2.5074,-2.5767,-2.6647,-2.7342,-2.7827,-0.9657,-0.0155,-0.0712,1.7513,2.5513,2.318,2.0109,1.7741,1.5898,1.4394,1.2482,1.0254,0.9624,0.9119,0.8663,0.83,0.7921,0.7561,0.7484,0.7176,0.6714,0.6637,0.6483,0.6338,0.0,0.0,0.0,0.0,0.0,0.0,0.0,0.0,0.0,0.0,0.0,0.0,0.0,0.0,0.0,0.0,-0.7121,-0.7545,-0.8036,-0.8332,-0.8659,-0.8984,-0.9226,-0.9466,-0.9753,-0.998,0.0,0.0,0.0,0.0,-1.105,-1.1191,-1.1691,0.0,-1.2913,0.0,0.0,0.0,0.0,0.0,-1.4194,-1.4407,-1.4731,-1.4593,-1.4501,-1.4411,-1.3947,-1.3692,-1.3525,-1.3107,-1.2848,-1.264,-1.2552,-1.2518,0.0,0.0,0.0,0.0,0.0,0.0,0.0,0.0,0.0,0.0,0.0,0.0,-1.5564,0.0,-1.6191,-1.6645,-1.7368,-1.8187,-1.8898,-1.9332,-1.9803,-2.0239,-2.0695,-2.1055,-2.1371,-2.1708,-2.1961,-2.2203,-2.2453,-2.2721,-2.3028,-2.3394,-2.3864,-2.4296,-2.4667,-2.5697,-2.5425,-2.3588,-0.8377,0.0725,0.2757,1.8047,2.4671,2.2552,2.0793,1.8992,1.7148,1.5716,1.397,1.1954,1.0831,1.0067,0.9531,0.9166,0.8778,0.8406,0.8385,0.8025,0.7488,0.7411,0.718,0.6945,0.0,0.0,0.0,0.0,0.0,0.0,0.0,0.0,0.0,0.0,0.0,0.0,-0.6099,-0.6393,-0.6807,-0.7383,-0.7572,-0.7919,-0.8439,-0.8741,-0.8984,-0.9279,-0.9545,0.0,-0.998,-1.0166,0.0,0.0,0.0,0.0,-1.1384,-1.1448,-1.2102,-1.3253,-1.3275,-1.3781,-1.4663,0.0,0.0,0.0,0.0,0.0,0.0,0.0,-1.5345,-1.521,-1.5085,-1.4846,-1.4571,-1.4354,-1.4204,-1.4054,-1.3784,-1.37,-1.37,0.0,0.0,0.0,0.0,0.0,0.0,0.0,0.0,0.0,0.0,0.0,0.0,-1.4667,-1.4926,-1.5286,-1.5577,-1.7208,-1.8655,-1.9132,-1.9696,-2.0254,-2.066,-2.099,-2.131,-2.1589,-2.1738,-2.1899,-2.2096,-2.2364,-2.273,-2.3182,-2.3653,-2.4137,-2.4667,-2.5119,-2.2131,-1.5074,-0.4899,0.3715,1.0546,1.9829,2.4071,2.3244,2.1722,2.0167,1.8549,1.7092,1.5593,1.4121,1.2322,1.1156,1.0628,1.0319,0.9779,0.9155,0.9236,0.8865,0.8327,0.8102,0.7944,0.7706,0.0,0.0,0.0,0.0,0.0,0.0,0.0,0.0,0.0,0.0,0.0,0.0,0.0,-0.6852,-0.7201,-0.7592,-0.7987,-0.8365,-0.8741,-0.9016,-0.9297,-0.9616,-0.9853,-1.0088,-1.04,-1.0582,0.0,0.0,0.0,-1.1362,-1.1459,-1.176,-1.2465,-1.3499,-1.3499,-1.4112,-1.5244,-1.5435,0.0,0.0,0.0,0.0,0.0,0.0,0.0,0.0,0.0,0.0,-1.617,-1.5563,-1.5166,-1.4884,-1.4331,-1.4057,-1.3926,-1.3926,-1.401,-1.414,0.0,0.0,0.0,0.0,0.0,0.0,0.0,-1.4128,-1.4205,-1.4245,-1.4487,-1.4799,-1.5057,-1.6217,-1.7245,-1.7726,-1.818,-1.8652,-1.9106,-1.9421,-1.9697,-1.9887,-2.0394,-2.0803,-2.1052,-2.1685,-2.232,-2.2764,-2.3401,-2.4008,-2.4592,-2.5018,-2.1619,-1.3678,-0.4919,0.5951,1.9076,2.2729,2.4004,2.31,2.2286,2.1156,1.98,1.8442,1.7036,1.5688,1.4312,1.2806,1.1269,1.0844,1.0399,0.9924,0.9805,0.9489,0.8937,0.8865,0.8556,0.8169,0.0,0.0,0.0,0.0,0.0,0.0,0.0,0.0,0.0,0.0,0.0,0.0,0.0,0.0,-0.7518,-0.7938,-0.8398,-0.8773,-0.9065,-0.9337,-0.9646,-0.9971,-1.0157,-1.0428,-1.0774,-1.0916,0.0,0.0,0.0,0.0,0.0,-1.1968,-1.2637,-1.3591,-1.3806,-1.4577,0.0,0.0,0.0,-1.6374,0.0,0.0,-1.701,0.0,0.0,0.0,0.0,0.0,-1.7206,-1.6572,-1.6003,-1.5474,-1.4996,-1.4562,-1.4255,-1.4255,-1.4337,0.0,-1.4523,0.0,0.0,0.0,0.0,0.0,-1.3605,0.0,-1.3465,-1.3423,-1.3593,-1.3797,-1.405,-1.4691,-1.5491,-1.6515,-1.7103,-1.7537,-1.7908,-1.8192,-1.8422,-1.8616,-1.907,-1.9477,-1.9777,-2.045,-2.1171,-2.2021,-2.2774,-2.3602,-2.453,-2.4965,-2.0211,-0.9317,0.1673,1.2638,2.3574,2.4032,2.3834,2.3145,2.2848,2.2039,2.0864,1.9647,1.8401,1.7102,1.6042,1.4312,1.2116,1.1711,1.1129,1.053,1.0504,1.0098,0.959,0.9518,0.9241,0.8784,0.0,0.0,0.0,0.0,0.0,0.0,0.0,0.0,0.0,0.0,0.0,0.0,0.0,0.0,0.0,-0.8471,-0.8839,-0.9171,-0.9515,-0.9732,-1.0048,-1.0419,-1.0584,-1.0815,-1.1158,-1.1212,0.0,0.0,0.0,0.0,0.0,0.0,-1.2611,-1.3529,-1.4177,-1.5032,-1.6008,0.0,-1.6577,-1.6718,0.0,-1.7381,-1.793,0.0,0.0,0.0,-1.8346,-1.8026,0.0,-1.7411,-1.6714,0.0,0.0,-1.5287,-1.4787,-1.4787,-1.4787,0.0,0.0,0.0,0.0,0.0,0.0,0.0,-1.3099,0.0,-1.2636,-1.218,-1.2138,-1.2246,-1.2425,-1.2696,-1.3531,-1.5658,-1.6487,-1.6949,-1.7165,-1.743,-1.7642,-1.7772,-1.7818,-1.796,-1.8284,-1.8602,-1.9382,-2.0853,-2.1703,-2.283,-2.4384,-2.4463,-1.725,-0.1494,1.4984,2.3625,2.3667,2.3599,2.3545,2.3484,2.3432,2.2817,2.1697,2.0766,1.971,1.8478,1.7501,1.5631,1.3346,1.294,1.2121,1.1161,1.1185,1.0767,1.0092,0.9969,0.976,0.9533,0.0,0.0,0.0,0.0,0.0,0.0,0.0,0.0,0.0,0.0,0.0,0.0,0.0,-0.829,-0.8978,-0.9528,-0.9873,-1.0257,-1.0646,-1.1041,-1.1422,-1.1757,-1.2016,-1.2263,-1.2619,-1.2307,0.0,0.0,0.0,0.0,0.0,0.0,0.0,0.0,-1.3939,-1.4826,-1.6014,-1.6557,0.0,-1.7086,-1.7225,-1.7692,0.0,0.0,0.0,0.0,0.0,-1.9609,-1.9221,-1.8399,-1.7831,-1.7281,0.0,0.0,0.0,0.0,0.0,0.0,-1.4834,0.0,0.0,0.0,0.0,0.0,0.0,0.0,-1.2087,-1.1852,-1.187,-1.192,-1.1872,-1.2043,-1.2388,-1.2987,-1.3934,-1.466,-1.4831,-1.4948,-1.5077,-1.5202,-1.5791,-1.6272,-1.6562,-1.7545,-1.8588,-1.9608,-2.0587,-2.1844,-2.346,-1.3232,-0.5384,-0.1136,1.4949,2.3312,2.2901,2.2973,2.3127,2.3279,2.3312,2.3185,2.2891,2.1932,2.0851,1.9762,1.8691,1.7269,1.5651,1.4045,1.2978,1.2216,1.1549,1.1009,1.0606,1.0515,1.0104,0.9548,0.0,0.0,0.0,0.0,0.0,0.0,0.0,0.0,0.0,0.0,0.0,0.0,0.0,0.0,-0.9673,-1.0237,-1.0633,-1.1034,-1.1441,-1.1857,-1.2244,-1.2595,-1.2816,-1.3109,-1.3399,-1.3157,0.0,0.0,0.0,0.0,0.0,0.0,0.0,0.0,0.0,0.0,0.0,0.0,0.0,0.0,-1.7556,0.0,0.0,-1.9377,-1.9946,0.0,0.0,0.0,-2.0029,-1.9345,-1.8641,-1.7909,0.0,0.0,0.0,0.0,0.0,0.0,0.0,0.0,0.0,0.0,0.0,0.0,-1.289,-1.24,-1.2016,-1.1619,-1.149,-1.1404,-1.1319,-1.1356,-1.1356,-1.1356,-1.1852,-1.2448,-1.3048,-1.315,-1.3217,-1.3377,-1.3864,-1.4365,-1.4826,-1.5816,-1.7,-1.8354,-1.9476,-2.0961,-2.2885,-0.8365,-0.0128,-0.0404,1.5189,2.3328,2.2824,2.2982,2.3073,2.3061,2.3231,2.3359,2.3356,2.2498,2.1713,2.0997,1.9927,1.8732,1.739,1.5736,1.4243,1.2955,1.2156,1.1473,1.0999,1.0734,1.0201,0.9675,0.0,0.0,0.0,0.0,0.0,0.0,0.0,0.0,0.0,0.0,0.0,0.0,0.0,0.0,0.0,-1.0976,-1.1358,-1.1787,-1.2274,-1.255,-1.2904,-1.3242,-1.3421,-1.3682,-1.3912,-1.3936,0.0,0.0,0.0,0.0,0.0,0.0,0.0,0.0,0.0,0.0,0.0,0.0,0.0,-1.776,-1.7882,-1.8671,0.0,0.0,-2.0484,-2.1423,-2.1131,-2.0785,-2.0422,-2.0131,-1.9205,-1.8172,-1.7615,-1.6967,0.0,0.0,-1.6032,0.0,0.0,0.0,0.0,0.0,-1.4545,0.0,-1.3026,-1.2581,-1.2196,-1.1416,-1.1057,-1.0829,-1.074,-1.0578,-1.0416,-1.0328,-1.0098,-1.0354,-1.1611,-1.1768,-1.1841,-1.2033,-1.2129,-1.2448,-1.3107,-1.3815,-1.5041,-1.7014,-1.8567,-2.0359,-2.2445,-0.7763,0.0612,0.0427,1.5582,2.3518,2.3151,2.3278,2.3228,2.2981,2.3194,2.3343,2.3413,2.2753,2.235,2.2112,2.1075,1.9978,1.8809,1.7665,1.5803,1.3597,1.2806,1.2034,1.1355,1.0789,1.0278,0.991,-0.6168,0.0,0.0,0.0,0.0,0.0,0.0,0.0,0.0,0.0,0.0,0.0,0.0,0.0,0.0,-1.293,-1.3159,-1.35,-1.4131,-1.4168,-1.4406,-1.4831,-1.4975,-1.5175,-1.5405,-1.5103,0.0,0.0,0.0,0.0,0.0,0.0,0.0,0.0,0.0,0.0,0.0,0.0,0.0,-1.8083,-1.8016,-1.8783,-1.9954,-1.9954,-2.0698,-2.1712,-2.1423,-2.118,-2.0934,-2.0233,-1.937,-1.8534,-1.8349,-1.775,-1.7074,-1.7074,-1.667,0.0,0.0,0.0,0.0,-1.5217,-1.4824,0.0,-1.3376,-1.2776,-1.2157,-1.1324,-1.0888,-1.0472,-0.9814,-0.9487,-0.9115,-0.8577,-0.829,-0.8666,-1.0232,-1.0369,-1.0369,-1.0522,-1.073,-1.1095,-1.1721,-1.2645,-1.3878,-1.5575,-1.8539,-2.0661,-2.1601,-0.7444,0.0662,0.056,1.5704,2.3692,2.3341,2.3175,2.3221,2.3557,2.3325,2.3372,2.361,2.2995,2.2678,2.2545,2.1506,2.0651,1.9889,1.872,1.688,1.4756,1.351,1.2499,1.1621,1.1021,1.0342,0.9649,-0.6722,0.0,0.0,0.0,0.0,0.0,0.0,0.0,0.0,0.0,0.0,0.0,0.0,0.0,0.0,0.0,-1.4397,-1.4868,-1.5432,-1.5714,-1.5834,-1.5845,-1.613,-1.6191,-1.61,-1.5948,0.0,0.0,0.0,0.0,0.0,0.0,0.0,0.0,0.0,0.0,0.0,0.0,-1.7194,-1.8202,-1.8161,0.0,-2.0272,-2.0185,-2.0952,-2.1996,-2.1746,-2.1471,-2.1131,-2.0472,-1.994,-1.9409,-1.9207,-1.8634,-1.8056,-1.7969,-1.7303,-1.6537,-1.6537,-1.6109,-1.5603,-1.5435,-1.518,0.0,0.0,-1.317,-1.2429,-1.1491,-1.0782,-1.0099,-0.9448,-0.8896,-0.8328,-0.7854,-0.7331,-0.7258,-0.801,-0.8477,-0.8859,-0.9178,-0.9442,-0.9817,-1.0454,-1.1337,-1.3,-1.5582,-1.4813,-1.4698,-1.5816,-0.1847,0.6174,0.6144,1.7705,2.3837,2.3588,2.3405,2.3364,2.3544,2.3284,2.3335,2.3622,2.3112,2.2863,2.2786,2.2215,2.1494,2.0569,1.9762,1.8312,1.6419,1.4523,1.3174,1.2182,1.1277,1.0438,0.97,-0.7297,0.0,0.0,0.0,0.0,0.0,0.0,0.0,0.0,0.0,0.0,0.0,0.0,0.0,0.0,0.0,0.0,-1.6118,-1.6707,-1.7027,-1.7063,-1.6774,-1.71,-1.7082,-1.6654,-1.6685,-1.6665,0.0,0.0,0.0,0.0,0.0,0.0,0.0,0.0,0.0,0.0,0.0,0.0,-1.8189,0.0,-1.9234,-2.0486,-2.0472,-2.1189,-2.2231,-2.2044,-2.1664,-2.118,-2.0809,-2.0523,-2.022,-2.0003,-1.951,-1.9008,-1.8858,-1.8056,-1.7176,-1.702,-1.6469,-1.5912,-1.5582,-1.5513,-1.5239,0.0,0.0,0.0,-1.1644,-1.0695,-0.9848,-0.92,0.0,0.0,-0.7272,0.0,0.0,0.0,-0.6598,0.0,-0.7901,-0.8253,-0.8659,-0.9217,-1.0059,-1.164,-1.434,-1.0166,-0.7901,-0.8836,0.4103,1.1581,1.167,1.9666,2.3171,2.1532,2.138,2.0469,1.8815,2.0223,2.0999,2.1276,2.2451,2.3,2.2969,2.2767,2.2192,2.1292,2.0643,1.9598,1.8097,1.5648,1.3999,1.2826,1.16,1.0604,0.9874,-0.7879,-0.7617,0.0,0.0,0.0,0.0,0.0,0.0,0.0,0.0,0.0,0.0,0.0,0.0,0.0,0.0,-1.7132,-1.7499,-1.8182,-1.784,-1.7725,-1.7972,-1.8125,-1.8012,-1.7543,-1.7574,-1.7332,0.0,0.0,0.0,0.0,0.0,0.0,0.0,-1.5761,0.0,0.0,0.0,-1.765,0.0,-1.8517,-1.9409,0.0,-2.0613,-2.1396,-2.2324,-2.2091,-2.1746,-2.1375,-2.118,-2.0871,-2.051,-2.0372,-2.0131,-1.9838,-1.971,-1.9133,-1.8413,-1.7726,-1.7107,-1.6505,-1.5721,-1.5513,-1.5194,-1.4104,0.0,-1.2989,-1.1459,0.0,-0.9853,-0.8545,0.0,0.0,0.0,-0.5726,-0.5378,-0.5233,-0.5331,-0.5742,-0.6765,-0.7188,-0.7585,-0.8146,-0.8798,-0.8955,-0.8287,-0.688,-0.5388,-0.3906,0.5589,1.1152,1.1511,1.9578,2.0481,1.3323,1.319,0.9462,0.2306,0.9472,1.2837,1.2944,1.9856,2.3135,2.3317,2.2573,2.2384,2.2484,2.1322,2.0271,1.916,1.6648,1.4817,1.3416,1.2158,1.1115,1.0174,-0.8398,-0.8214,0.0,0.0,0.0,0.0,0.0,0.0,0.0,0.0,0.0,0.0,0.0,-1.6327,-1.7272,0.0,-1.8641,-1.9159,-1.9857,-1.9883,0.0,-1.9307,-1.9515,-1.9296,-1.8462,-1.8571,-1.8341,-1.7721,-1.7721,0.0,0.0,0.0,0.0,0.0,-1.6757,0.0,-1.733,0.0,-1.7968,0.0,0.0,-1.9857,0.0,-2.0698,-2.1469,-2.2463,-2.2231,-2.1996,-2.1793,-2.152,-2.1264,-2.1019,-2.0822,-2.0573,-2.0321,-2.0067,-1.9522,-1.8722,-1.7933,-1.7251,-1.6566,-1.5733,-1.5424,-1.5197,-1.444,-1.3759,-1.2929,-1.1684,0.0,0.0,0.0,0.0,0.0,0.0,-0.5356,-0.4926,-0.4812,0.0,-0.5206,-0.6019,-0.6331,-0.6698,-0.7176,-0.7309,-0.7233,-0.6868,-0.227,0.0916,0.1823,1.0783,1.6153,1.6764,1.6723,1.5128,1.1877,0.7223,0.31,-0.0403,0.3009,0.4536,0.445,0.7758,1.1774,1.6156,1.6014,1.8432,2.2476,2.2109,2.1203,1.9943,1.8242,1.6187,1.4058,1.2634,1.1351,1.0301,-0.9232,0.0,0.0,0.0,0.0,0.0,0.0,0.0,0.0,0.0,0.0,0.0,-1.6769,-1.7616,-1.8516,-1.9248,-1.9838,-2.0429,-2.1092,-2.14,-2.1293,-2.0732,-2.0991,-2.0657,-1.9574,-1.9734,-1.9362,-1.853,-1.8385,0.0,0.0,0.0,0.0,0.0,0.0,-1.757,-1.772,0.0,-1.8202,-1.8284,-1.9353,-2.0282,-2.1069,-2.1198,-2.1828,-2.2615,-2.237,-2.2278,-2.2184,-2.1888,-2.1664,-2.1471,-2.118,-2.0934,-2.0673,-2.0372,-1.9825,-1.9107,-1.8127,-1.7468,-1.6805,-1.5723,-1.53,-1.5074,-1.4523,-1.379,-1.2898,-1.1881,-1.0739,0.0,0.0,0.0,0.0,0.0,0.0,-0.471,-0.4524,-0.4649,-0.4949,-0.547,-0.5774,-0.6008,-0.6216,-0.5922,-0.533,-0.4454,0.1509,0.5688,0.6993,1.4628,1.9369,2.0315,1.4499,1.0418,0.8409,0.0506,-0.4679,-0.7039,-0.4801,-0.3823,-0.3922,-0.1689,0.2371,0.767,0.7914,1.2302,1.9289,1.9489,2.0123,2.0865,1.9622,1.7585,1.508,1.327,1.1834,1.0611,-1.0454,-0.9812,0.0,0.0,0.0,0.0,0.0,0.0,0.0,-1.5235,-1.6406,-1.743,-1.7913,-1.8646,-1.9438,-2.012,-2.061,-2.1093,-2.1758,-2.1713,-2.1898,-2.2309,-2.2457,-2.2074,-2.1055,-2.1028,-2.0407,-1.9054,-1.857,-1.8218,0.0,0.0,0.0,0.0,0.0,-1.757,-1.772,-1.8043,-1.8202,-1.8284,-1.9353,-2.0678,-2.2033,-2.2538,-2.2766,-2.2795,-2.2629,-2.2509,-2.237,-2.2231,-2.1996,-2.1746,-2.1471,-2.118,-2.0934,-2.0673,-2.0409,-1.9863,-1.8371,-1.7834,-1.7302,-1.5693,-1.5108,-1.4777,-1.415,-1.3705,-1.302,-1.1743,-1.0945,-0.9951,-0.832,-0.7442,0.0,0.0,0.0,0.0,0.0,-0.4496,-0.474,-0.5071,-0.5481,-0.5583,-0.5183,-0.4675,-0.28,0.0972,0.3625,0.6928,1.108,1.5272,1.8195,1.9597,1.4034,0.7411,-0.0129,-0.8049,-1.6026,-2.384,-1.5961,-1.2252,-1.2048,-0.4178,-0.0572,-0.0526,-0.0574,0.4052,1.1642,1.1579,1.5756,2.2012,2.0657,1.8891,1.6738,1.4319,1.2504,1.1115,-1.0633,0.0,0.0,0.0,0.0,0.0,0.0,-1.4506,-1.5537,-1.6108,-1.7277,-1.828,-1.8846,-1.9867,-2.074,-2.144,-2.228,-2.3059,-2.3754,-2.395,-2.394,-2.3681,-2.3781,-2.3404,-2.236,-2.2463,-2.1834,-2.0433,-2.0247,-1.943,0.0,0.0,0.0,0.0,0.0,-1.757,0.0,0.0,0.0,0.0,0.0,-2.1269,-2.2598,-2.2785,-2.2872,-2.2857,-2.2781,-2.2689,-2.2644,-2.2523,-2.2278,-2.2044,-2.1841,-2.1568,-2.1166,-2.0858,-2.056,-1.9976,-1.8419,-1.7858,-1.7315,-1.5705,-1.5028,-1.4605,-1.401,-1.342,-1.2647,-1.1479,-1.0581,-0.962,-0.825,-0.7321,0.0,0.0,0.0,0.0,0.0,-0.4654,-0.4829,-0.5004,-0.524,-0.5193,-0.467,-0.3785,-0.2163,0.0521,0.3136,0.6129,0.9525,1.3201,1.6264,1.8591,0.7751,0.1005,-0.0779,-1.3939,-2.201,-2.4872,-2.2218,-2.0943,-2.0877,-1.8095,-1.3927,-0.8918,-0.8924,-0.4362,0.3516,0.8855,1.2336,1.4651,1.8674,1.9133,1.7214,1.4702,1.2785,1.1178,-1.1471,0.0,0.0,0.0,0.0,0.0,0.0,-1.539,-1.6407,-1.7093,-1.8309,-1.9327,-1.9921,-2.0886,-2.1767,-2.25,-2.3268,-2.3989,-2.477,-2.5103,-2.5148,-2.4892,-2.5057,-2.4629,-2.354,-2.3703,-2.2963,-2.1302,-2.1103,-2.0223,0.0,0.0,0.0,0.0,0.0,-1.7543,-1.7666,-1.7989,-1.8273,0.0,0.0,-2.1787,-2.2902,-2.2947,-2.2992,-2.2947,-2.2917,-2.2931,-2.2872,-2.2721,-2.2523,-2.2324,-2.2091,-2.1746,-2.1361,-2.097,-2.0673,-2.0077,-1.8516,-1.7798,-1.7171,-1.5556,-1.48,-1.4291,-1.3716,-1.3132,-1.2415,-1.138,-1.0491,-0.9494,-0.8311,-0.7338,0.0,0.0,0.0,0.0,0.0,-0.4709,-0.4845,-0.5072,-0.5154,-0.5019,-0.4535,-0.369,-0.2346,-0.0395,0.2208,0.4851,0.7472,1.102,1.3077,1.3284,0.2546,-0.3855,-0.5151,-1.8251,-2.4924,-2.5116,-2.5236,-2.5307,-2.531,-2.5266,-2.2385,-1.741,-1.7365,-1.2801,-0.4762,0.3584,0.8321,1.0957,1.7719,1.92,1.7323,1.4965,1.27,1.0568,-1.2884,-1.2883,0.0,0.0,-1.3373,0.0,-1.5148,-1.6426,-1.7539,-1.8189,-1.9421,-2.0522,-2.1073,-2.172,-2.2423,-2.3182,-2.3597,-2.4074,-2.4793,-2.5179,-2.5561,-2.5988,-2.6224,-2.5801,-2.4571,-2.4717,-2.3848,-2.1798,-2.1244,-2.0601,0.0,0.0,0.0,0.0,-1.7626,0.0,-1.7516,-1.7909,-1.8508,-1.9377,-2.0968,-2.2146,-2.2902,-2.3037,-2.3082,-2.3082,-2.3082,-2.3082,-2.3097,-2.2886,-2.2735,-2.2509,-2.2137,-2.1841,-2.152,-2.1131,-2.0736,-2.0077,-1.8599,-1.7738,-1.6919,-1.5303,-1.4419,-1.3868,-1.3314,-1.2803,-1.2274,-1.1427,-1.0592,-0.9614,-0.8417,-0.7556,-0.6629,0.0,0.0,0.0,0.0,-0.4709,-0.4932,-0.5193,-0.5236,-0.5062,-0.4661,-0.4264,-0.3278,-0.1456,0.0961,0.3156,0.0,0.8675,0.8721,0.4391,-0.131,-0.7069,-1.2865,-2.1024,-2.5167,-2.5313,-2.544,-2.5508,-2.5503,-2.5496,-2.5468,-2.5386,-2.5273,-2.0876,-1.3122,-0.4438,0.3369,1.0507,1.7085,1.8576,1.6808,1.4888,1.2188,0.9397,-1.3584,-1.4006,-1.4393,0.0,-1.4687,-1.5167,-1.577,-1.6934,-1.8049,-1.8968,-1.9811,-2.0719,-2.1742,-2.236,-2.3015,-2.371,-2.4467,-2.518,-2.5809,-2.6295,-2.6515,-2.6478,-2.6643,-2.6215,-2.5169,-2.5202,-2.4505,-2.3025,-2.2432,0.0,-2.0463,0.0,0.0,0.0,0.0,0.0,-1.7543,-1.8288,-1.9473,-2.0909,-2.141,-2.2146,-2.2902,-2.3037,-2.3082,-2.3082,-2.3082,-2.3082,-2.3097,-2.2947,-2.2752,-2.2555,-2.2231,-2.1949,-2.1664,-2.1131,-2.0736,-2.0077,-1.8551,-1.7642,-1.6761,-1.5129,-1.4384,-1.3821,-1.3218,-1.2598,-1.1977,-1.1175,-1.0293,-0.9429,-0.8534,-0.7632,-0.6733,0.0,0.0,0.0,-0.4762,-0.4884,-0.5106,-0.5241,-0.5588,-0.5583,-0.5009,-0.4661,-0.3989,-0.2917,-0.1272,0.0434,0.2133,0.4,0.4161,0.2307,-0.4772,-1.0014,-1.3081,-2.1146,-2.5231,-2.5381,-2.5458,-2.5506,-2.5508,-2.5508,-2.5469,-2.5391,-2.5364,-2.4126,-2.1495,-1.3407,-0.5888,0.1124,0.6904,1.0159,1.1571,1.1428,1.0242,0.8685,-1.4583,-1.5294,-1.5875,-1.5986,-1.6194,-1.6451,-1.6707,-1.766,-1.866,-1.9572,-2.0429,-2.129,-2.2335,-2.2876,-2.3538,-2.4261,-2.4932,-2.5594,-2.6164,-2.6589,-2.687,-2.6868,-2.7053,-2.6814,-2.5968,-2.5826,-2.5064,-2.3743,-2.2902,0.0,-2.1002,0.0,0.0,0.0,0.0,-1.751,-1.7956,-1.9201,-2.0362,-2.1419,-2.1792,-2.23,0.0,-2.2978,-2.3023,-2.3082,-2.3082,-2.3082,-2.3082,-2.2947,-2.2752,-2.2555,-2.2278,-2.2044,-2.1698,-2.1068,-2.0489,-1.9755,-1.8405,-1.7363,-1.6324,-1.4991,-1.4244,-1.3678,-1.3094,-1.251,-1.1877,-1.1074,-1.0241,-0.9458,-0.8626,-0.7816,-0.6932,-0.5997,-0.532,-0.4941,-0.499,-0.5236,-0.5453,-0.5669,-0.6105,-0.6313,-0.6039,-0.5518,-0.4952,-0.437,-0.3249,-0.2002,-0.0772,0.0493,-0.0362,-0.3722,-0.8452,-1.2966,-1.7187,-2.2411,-2.5115,-2.5278,-2.534,-2.5375,-2.5367,-2.5372,-2.5328,-2.5265,-2.5278,-2.5197,-2.4434,-1.63,-1.0255,-0.5462,0.1801,0.5641,0.7126,0.7196,0.7316,0.7488,-1.5866,-1.6617,0.0,0.0,0.0,-1.8122,-1.7985,-1.8562,-1.9297,-2.0218,-2.1119,-2.2002,-2.2871,-2.3335,-2.3897,-2.4718,-2.5111,-2.5523,-2.6094,-2.644,-2.685,-2.7201,-2.7335,-2.7157,-2.6505,-2.6185,-2.5371,-2.4054,-2.2906,0.0,0.0,0.0,0.0,0.0,0.0,0.0,0.0,-2.0216,-2.1087,-2.144,-2.2112,-2.2523,-2.2795,-2.2828,-2.2918,-2.3037,-2.3037,-2.3097,-2.3082,-2.2947,-2.2752,-2.2555,-2.2278,-2.1996,-2.165,-2.1006,-2.0205,-1.9307,-1.8186,-1.7003,-1.5811,-1.4831,-1.4093,-1.3478,-1.3017,-1.248,-1.1877,-1.1074,-1.0344,-0.9614,-0.8784,-0.8019,-0.7117,-0.6096,-0.5701,-0.5494,-0.5528,-0.5766,-0.6072,-0.6415,-0.6858,0.0,-0.737,-0.6653,-0.6076,-0.5765,-0.5,-0.4277,-0.3591,-0.2557,-0.4763,-1.0853,-1.2042,-1.5694,-2.2268,-2.3887,-2.4762,-2.4973,-2.5062,-2.5101,-2.5101,-2.5101,-2.5061,-2.5004,-2.5005,-2.4908,-2.4193,-1.6715,-1.247,-0.9788,-0.057,0.3087,0.3055,0.2708,0.3727,0.5454,-1.745,0.0,0.0,0.0,-1.9277,-1.9781,-1.9957,-1.9633,-1.9875,-2.1267,-2.1594,-2.2131,-2.3352,-2.3548,-2.3897,-2.4718,-2.4969,-2.5312,-2.5898,-2.6302,-2.6564,-2.6782,-2.7011,-2.6591,-2.5601,-2.5472,-2.4867,-2.3688,-2.2531,0.0,0.0,0.0,0.0,0.0,0.0,0.0,-1.992,-2.04,0.0,-2.189,-2.2142,-2.2417,-2.2615,-2.2646,-2.2646,-2.2706,-2.2826,-2.2962,-2.3097,-2.2872,-2.2735,-2.2509,-2.2137,-2.1841,-2.1506,-2.0957,-2.0093,-1.9052,-1.7994,-1.6836,-1.5692,-1.468,-1.3999,-1.3478,-1.3017,-1.2382,-1.1778,-1.1175,-1.0454,-0.9732,-0.9061,-0.8015,-0.7121,-0.6692,-0.6515,-0.6532,-0.6777,-0.7048,-0.7423,-0.7795,-0.8023,-0.8216,-0.8484,-0.7681,-0.7147,-0.7133,-0.6729,-0.6487,-0.6402,-0.6596,-0.8633,-1.2808,-1.4587,-1.756,-2.1932,-2.326,-2.4051,-2.4369,-2.4492,-2.4568,-2.4624,-2.4568,-2.449,-2.4448,-2.4445,-2.4335,-2.4011,-2.2068,-1.7738,-1.1527,-0.392,-0.106,-0.1175,-0.1014,-0.0209,0.1005,-1.9008,0.0,0.0,0.0,-2.0509,-2.0818,-2.1081,-2.075,-2.0761,-2.1564,-2.1903,-2.2444,-2.335,-2.3519,-2.3824,-2.4418,-2.4814,-2.5158,-2.5535,-2.5955,-2.6233,-2.6496,-2.6645,-2.64,-2.5768,-2.5461,-2.4884,-2.4064,-2.2616,-2.1898,0.0,0.0,0.0,0.0,0.0,-1.9666,0.0,0.0,-2.1582,-2.1821,-2.2283,-2.237,-2.2324,-2.237,-2.2417,-2.2509,-2.2629,-2.2766,-2.2857,-2.2795,-2.2675,-2.2417,-2.2091,-2.1793,-2.1452,-2.055,-1.9555,-1.8573,-1.748,-1.6279,-1.5221,-1.4474,-1.3894,-1.3372,-1.292,-1.2382,-1.1828,-1.1226,-1.0667,-0.9999,-0.9047,-0.8306,-0.7701,-0.7269,-0.7236,-0.7297,-0.7452,-0.776,-0.8179,-0.8655,-0.8967,-0.9322,-0.9678,-0.9256,-0.879,-0.8308,-0.8146,-0.8171,-0.8399,-0.9046,-1.0631,-1.3308,-1.5473,-1.7952,-2.073,-2.2271,-2.3203,-2.3569,-2.3744,-2.3858,-2.3932,-2.3895,-2.3838,-2.3794,-2.3719,-2.3542,-2.3235,-2.1925,-1.8693,-1.4093,-0.9448,-0.6862,-0.5716,-0.4766,-0.3818,-0.2422,-2.0599,-2.1019,0.0,0.0,-2.1561,-2.1653,-2.191,-2.1776,-2.1702,-2.1849,-2.2168,-2.2628,-2.315,-2.3446,-2.3751,-2.4127,-2.4599,-2.4945,-2.5241,-2.5535,-2.5886,-2.622,-2.6289,-2.6126,-2.5815,-2.5345,-2.4772,-2.4098,-2.2636,-2.186,-2.1708,0.0,0.0,0.0,0.0,0.0,-2.0606,-2.1847,-2.2187,-2.1991,-2.2556,-2.2539,-2.2178,-2.2286,-2.2297,-2.2324,-2.2463,-2.2509,-2.2523,-2.2689,-2.2583,-2.237,-2.2044,-2.171,-2.1186,-2.0131,-1.9016,-1.797,-1.6959,-1.5799,-1.4766,-1.4362,-1.3847,-1.3276,-1.2822,-1.2421,-1.1977,-1.1326,-1.0769,-1.0146,-0.9093,-0.8732,-0.8403,-0.7973,-0.8031,-0.8106,-0.8227,-0.8572,-0.9044,-0.962,-1.0023,-1.0432,-1.0867,-1.0826,-1.0493,-0.9853,-0.9542,-0.9561,-0.9933,-1.0636,-1.1823,-1.3509,-1.5724,-1.7745,-1.9452,-2.1213,-2.2302,-2.2735,-2.2951,-2.3094,-2.3182,-2.3182,-2.3153,-2.3069,-2.2919,-2.2678,-2.2209,-2.0452,-1.8519,-1.6429,-1.4298,-1.2051,-0.9884,-0.8379,-0.7057,-0.5433,-2.2252,0.0,0.0,-2.2484,-2.249,-2.2512,-2.2563,-2.2414,-2.2339,-2.2339,-2.2381,-2.2553,-2.3001,-2.3224,-2.3593,-2.4116,-2.4261,-2.4467,-2.5016,-2.5229,-2.5453,-2.5676,-2.5828,-2.5487,-2.453,-2.4455,-2.3912,-2.2874,-2.2337,-2.1811,-2.1288,-2.0936,0.0,-2.0409,-2.0927,-2.1303,-2.1587,-2.23,-2.2764,-2.3078,-2.3133,-2.2934,-2.2622,-2.2671,-2.2374,-2.2044,-2.2184,-2.2231,-2.2278,-2.237,-2.2417,-2.2324,-2.1949,-2.128,-2.0562,-1.9964,-1.8699,-1.74,-1.6849,-1.5799,-1.4823,-1.4466,-1.3894,-1.3324,-1.2968,-1.2578,-1.2126,-1.1578,-1.0812,-1.0043,-0.9465,-0.9204,-0.9047,-0.8915,-0.896,-0.92,-0.9578,-0.9936,-1.0503,-1.1215,-1.1331,-1.1528,-1.1981,-1.2023,-1.2139,-1.232,-1.1185,-1.0649,-1.1019,-1.1557,-1.2553,-1.4009,-1.5741,-1.732,-1.8785,-2.0336,-2.1366,-2.1816,-2.2147,-2.2368,-2.2485,-2.2485,-2.2405,-2.2303,-2.2164,-2.1771,-2.1177,-2.0141,-1.8963,-1.7713,-1.6271,-1.4643,-1.2885,-1.1276,-0.9776,-0.8239,-2.3167,-2.319,-2.3212,-2.3212,-2.3229,-2.3077,-2.2745,-2.2553,-2.2327,-2.2252,-2.2252,-2.2327,-2.2628,-2.2927,-2.3224,-2.3446,-2.3824,-2.4189,-2.4467,-2.4683,-2.4969,-2.5241,-2.5023,-2.4655,-2.4103,-2.3774,-2.3301,-2.269,-2.2184,-2.179,-2.1555,-2.125,-2.115,-2.1204,-2.1542,-2.1794,-2.2114,-2.2826,-2.3096,-2.3004,-2.3353,-2.3029,-2.2355,-2.2433,-2.215,-2.1793,-2.1902,-2.1996,-2.2091,-2.2137,-2.2231,-2.2161,-2.1472,-2.095,-2.0346,-1.912,-1.8132,-1.7217,-1.6414,-1.5531,-1.4812,-1.4362,-1.3847,-1.3324,-1.2968,-1.2578,-1.2175,-1.1828,-1.1116,-1.0454,-0.9991,-0.9784,-0.9629,-0.9517,-0.9577,-0.9836,-1.03,-1.0761,-1.1267,-1.1859,-1.2291,-1.2673,-1.3107,-1.3152,-1.3271,-1.3604,-1.2724,-1.2352,-1.2726,-1.3193,-1.4008,-1.5248,-1.6393,-1.7596,-1.892,-1.9867,-2.0616,-2.1166,-2.1368,-2.1565,-2.1744,-2.1744,-2.1595,-2.1306,-2.139,-2.1255,-2.0981,-2.0512,-1.9819,-1.9002,-1.8022,-1.6832,-1.5431,-1.4164,-1.2716,-1.1137,-2.3968,-2.3991,-2.3895,-2.3683,-2.3593,-2.3372,-2.2777,-2.2478,-2.2252,-2.2025,-2.1883,-2.1959,-2.2252,-2.2628,-2.2852,-2.2927,-2.3298,-2.3677,-2.3897,-2.4116,-2.4337,-2.4436,-2.4236,-2.3934,-2.3454,-2.3159,-2.2841,-2.2432,-2.2104,-2.1883,-2.1712,-2.1391,-2.1356,-2.1703,-2.2035,-2.2279,-2.2551,-2.3362,-2.3487,-2.3254,-2.3708,-2.3285,-2.2385,-2.245,-2.2115,-2.1616,-2.1712,-2.1841,-2.1949,-2.1949,-2.1996,-2.1932,-2.1135,-2.0589,-1.9975,-1.8513,-1.7624,-1.6923,-1.6021,-1.5367,-1.4823,-1.4362,-1.3847,-1.3372,-1.3017,-1.2676,-1.2382,-1.1977,-1.1427,-1.0871,-1.0454,-1.0308,-1.0205,-1.0131,-1.019,-1.0462,-1.0922,-1.1377,-1.1868,-1.2344,-1.2977,-1.3515,-1.401,-1.4102,-1.4293,-1.4589,-1.4278,-1.4069,-1.3997,-1.4383,-1.5103,-1.6138,-1.6869,-1.7889,-1.9248,-1.9782,-2.0381,-2.1136,-2.1261,-2.1353,-2.1359,-2.1294,-2.108,-2.0774,-2.0968,-2.1094,-2.1138,-2.0765,-2.0399,-1.9926,-1.934,-1.8478,-1.7492,-1.6486,-1.524,-1.3712,-2.4826,-2.479,-2.4562,-2.3751,-2.3593,-2.3372,-2.2777,-2.2327,-2.2035,-2.1807,-2.1436,-2.1436,-2.2025,-2.2252,-2.2478,-2.2703,-2.2703,-2.2852,-2.3298,-2.3519,-2.3525,-2.3242,-2.3548,-2.3212,-2.2243,-2.2385,-2.2344,-2.1925,-2.2111,-2.197,-2.1618,-2.1334,-2.1356,-2.1716,-2.2457,-2.2884,-2.3023,-2.3793,-2.4144,-2.4266,-2.4279,-2.3774,-2.2964,-2.2964,-2.2417,-2.1616,-2.1616,-2.1712,-2.1793,-2.1793,-2.1793,-2.1697,-2.1089,-2.027,-1.9315,-1.8407,-1.7342,-1.6405,-1.5925,-1.5367,-1.4812,-1.4466,-1.3988,-1.3478,-1.3104,-1.292,-1.2676,-1.2026,-1.1578,-1.1217,-1.0922,-1.0769,-1.0718,-1.0871,-1.0871,-1.1074,-1.1619,-1.1927,-1.2314,-1.2919,-1.3372,-1.3858,-1.4534,-1.488,-1.5232,-1.5579,-1.5944,-1.5654,-1.4563,-1.4852,-1.5505,-1.6363,-1.6984,-1.8061,-1.9563,-2.004,-2.0846,-2.187,-2.2103,-2.1938,-2.149,-2.1291,-2.1094,-2.0925,-2.1193,-2.1393,-2.1437,-2.079,-2.0452,-2.0373,-1.9944,-1.9459,-1.8879,-1.807,-1.7102,-1.5852,-2.4897,-2.4718,-2.4418,-2.3751,-2.3372,-2.3001,-2.2402,-2.2101,-2.1721,-2.1262,-2.1108,-2.1031,-2.1108,-2.1492,-2.1807,-2.1883,-2.2025,-2.2252,-2.2628,-2.2777,-2.2783,-2.2804,-2.2517,-2.2252,-2.1993,-2.1712,-2.1713,-2.1925,-2.1937,-2.2089,-2.2359,-2.2235,-2.2387,-2.2669,-2.3153,-2.3359,-2.3431,-2.3917,-2.4112,-2.4157,-2.4157,-2.3632,-2.2871,-2.2871,-2.2277,-2.1471,-2.1471,-2.1568,-2.1664,-2.1664,-2.1664,-2.1554,-2.0858,-2.0134,-1.9235,-1.7889,-1.7004,-1.6392,-1.5925,-1.5424,-1.4971,-1.4616,-1.414,-1.3668,-1.3478,-1.3162,-1.2735,-1.2175,-1.1927,-1.1728,-1.1377,-1.1267,-1.1276,-1.1326,-1.1377,-1.1628,-1.2026,-1.2452,-1.2929,-1.3467,-1.4323,-1.5093,-1.5566,-1.6268,-1.6812,-1.7223,-1.7455,-1.7235,-1.6535,-1.6816,-1.7372,-1.8192,-1.8735,-1.9349,-2.0077,-2.0438,-2.0907,-2.1505,-2.1665,-2.1624,-2.1422,-2.1335,-2.1139,-2.0914,-2.1239,-2.1251,-2.1105,-2.1009,-2.0713,-2.0322,-2.0623,-2.0292,-1.9545,-1.9423,-1.8604,-1.7279,-2.4933,-2.4574,-2.42,-2.3593,-2.315,-2.2628,-2.1959,-2.1645,-2.1262,-2.0634,-2.0479,-2.0333,-2.002,-2.0333,-2.0722,-2.1118,-2.1262,-2.1492,-2.1959,-2.2025,-2.2041,-2.1886,-2.1793,-2.1596,-2.1337,-2.119,-2.136,-2.1812,-2.1987,-2.2309,-2.269,-2.2739,-2.2909,-2.3138,-2.3437,-2.3628,-2.3628,-2.3936,-2.4112,-2.4112,-2.4112,-2.3721,-2.3124,-2.2911,-2.2374,-2.1722,-2.1505,-2.1471,-2.152,-2.152,-2.1471,-2.1315,-2.0684,-2.0067,-1.9349,-1.7908,-1.7029,-1.6392,-1.5925,-1.548,-1.5074,-1.4719,-1.4291,-1.3952,-1.3668,-1.3248,-1.2783,-1.248,-1.2274,-1.2076,-1.1828,-1.1778,-1.1728,-1.1769,-1.1927,-1.2116,-1.2501,-1.2939,-1.3519,-1.4244,-1.51,-1.5887,-1.6503,-1.7207,-1.7738,-1.8072,-1.8308,-1.8397,-1.8316,-1.8313,-1.8577,-1.9171,-1.9646,-2.0108,-2.0608,-2.0912,-2.1312,-2.1841,-2.1691,-2.1615,-2.1586,-2.1491,-2.1281,-2.1098,-2.1431,-2.1379,-2.1082,-2.1067,-2.0854,-2.0643,-2.1062,-2.0913,-2.0499,-2.0511,-1.9814,-1.867,-2.4861,-2.4418,-2.397,-2.3372,-2.2927,-2.2327,-2.1578,-2.1108,-2.0557,-1.9942,-1.9636,-1.9399,-1.8922,-1.8922,-1.9311,-2.0323,-2.0489,-2.0644,-2.1051,-2.1272,-2.1169,-2.0676,-2.1139,-2.1123,-2.0433,-2.0722,-2.1169,-2.1698,-2.2185,-2.2482,-2.269,-2.286,-2.2969,-2.3138,-2.345,-2.3628,-2.3628,-2.3936,-2.4112,-2.4112,-2.4112,-2.3945,-2.363,-2.3097,-2.2628,-2.2237,-2.1681,-2.1402,-2.1375,-2.1375,-2.1277,-2.1099,-2.0576,-2.0139,-1.9577,-1.8267,-1.725,-1.6442,-1.5925,-1.557,-1.5176,-1.4719,-1.4523,-1.4233,-1.3705,-1.3248,-1.2929,-1.2929,-1.2627,-1.2323,-1.2323,-1.2224,-1.2175,-1.2323,-1.2421,-1.2666,-1.2967,-1.3392,-1.4058,-1.5088,-1.5683,-1.6394,-1.7326,-1.7836,-1.8184,-1.8374,-1.8729,-1.9196,-1.9847,-1.9489,-1.9303,-1.9421,-1.9857,-2.0443,-2.1133,-2.14,-2.1908,-2.2649,-2.2162,-2.1917,-2.1917,-2.1728,-2.1565,-2.1414,-2.1652,-2.1602,-2.1313,-2.0957,-2.0963,-2.1261,-2.1199,-2.1362,-2.15,-2.1202,-2.0688,-1.9901,-2.4706,-2.4116,-2.3519,-2.2927,-2.2252,-2.1568,-2.0876,-2.0411,-1.9854,-1.9063,-1.8904,-1.8665,-1.8103,-1.8023,-1.8103,-1.8336,-1.8984,-1.9627,-2.0177,-2.042,-2.049,-2.0257,-2.0655,-2.0722,-2.0433,-2.0604,-2.1053,-2.1698,-2.2185,-2.2482,-2.269,-2.286,-2.303,-2.333,-2.3509,-2.3688,-2.3832,-2.3995,-2.4112,-2.4112,-2.4112,-2.3945,-2.367,-2.3537,-2.2977,-2.2278,-2.2142,-2.1704,-2.1229,-2.1229,-2.118,-2.1019,-2.0828,-2.0325,-1.9577,-1.8267,-1.7473,-1.6883,-1.6154,-1.5614,-1.521,-1.4926,-1.4547,-1.4129,-1.3716,-1.3525,-1.3344,-1.3055,-1.291,-1.2813,-1.2774,-1.2725,-1.2725,-1.2725,-1.2822,-1.3007,-1.3276,-1.4007,-1.4731,-1.5374,-1.6593,-1.7618,-1.8301,-1.8983,-1.9522,-1.9948,-2.0083,-2.0296,-2.0614,-2.0664,-2.0716,-2.0764,-2.105,-2.134,-2.1633,-2.1881,-2.2183,-2.2449,-2.2352,-2.2189,-2.1945,-2.1913,-2.1774,-2.1553,-2.15,-2.1264,-2.0908,-2.0709,-2.0707,-2.0781,-2.1088,-2.1189,-2.1211,-2.1265,-2.0892,-2.0194,-2.4478,-2.3824,-2.315,-2.2628,-2.1883,-2.1118,-2.0411,-1.9863,-1.9222,-1.8336,-1.8184,-1.7861,-1.7204,-1.7123,-1.7123,-1.7123,-1.8031,-1.8834,-1.9469,-1.9863,-2.012,-2.0126,-2.0494,-2.0679,-2.061,-2.0705,-2.1169,-2.1949,-2.2309,-2.2616,-2.28,-2.2909,-2.315,-2.3403,-2.3509,-2.37,-2.3891,-2.4067,-2.4112,-2.4112,-2.4112,-2.4089,-2.4056,-2.3803,-2.3447,-2.3065,-2.2407,-2.1951,-2.1542,-2.1225,-2.1046,-2.0974,-2.0888,-2.0466,-1.9814,-1.8874,-1.7923,-1.7095,-1.6528,-1.587,-1.53,-1.4937,-1.4558,-1.4233,-1.3941,-1.3705,-1.3525,-1.3334,-1.319,-1.3094,-1.3045,-1.3045,-1.3055,-1.3104,-1.337,-1.3687,-1.4018,-1.481,-1.5659,-1.6371,-1.7342,-1.8289,-1.9043,-1.9635,-2.0131,-2.0461,-2.0662,-2.0812,-2.0924,-2.1046,-2.1131,-2.118,-2.1471,-2.1616,-2.1712,-2.1902,-2.2044,-2.2137,-2.2137,-2.2044,-2.1793,-2.1746,-2.1568,-2.1326,-2.1118,-2.0871,-2.061,-2.0359,-2.055,-2.1024,-2.0908,-2.1172,-2.1606,-2.1369,-2.1031,-2.0518,-2.4189,-2.3446,-2.2777,-2.2327,-2.1578,-2.0731,-1.9863,-1.9231,-1.8505,-1.7619,-1.7302,-1.6984,-1.6312,-1.6229,-1.6229,-1.6312,-1.7212,-1.8112,-1.8843,-1.939,-1.9917,-2.0112,-2.0544,-2.079,-2.0771,-2.0958,-2.1423,-2.2197,-2.2567,-2.28,-2.2909,-2.3017,-2.321,-2.3463,-2.3569,-2.3688,-2.3949,-2.4067,-2.4112,-2.4112,-2.4112,-2.4274,-2.4496,-2.4003,-2.3874,-2.3879,-2.2748,-2.2213,-2.1934,-2.1339,-2.099,-2.0888,-2.0838,-2.0562,-2.008,-1.9607,-1.85,-1.7347,-1.7029,-1.625,-1.5439,-1.4925,-1.4627,-1.4384,-1.4222,-1.3894,-1.3668,-1.361,-1.3471,-1.3367,-1.3415,-1.3466,-1.3565,-1.3662,-1.4148,-1.4608,-1.5006,-1.5669,-1.6468,-1.7456,-1.8061,-1.8648,-1.9567,-2.0054,-2.0412,-2.0641,-2.0948,-2.1189,-2.1262,-2.1169,-2.1166,-2.1314,-2.1464,-2.1568,-2.1616,-2.1746,-2.1793,-2.1746,-2.1746,-2.1664,-2.1506,-2.1361,-2.1166,-2.0934,-2.0673,-2.0459,-2.0271,-1.9914,-2.0357,-2.1256,-2.0689,-2.1117,-2.1999,-2.1348,-2.0967,-2.0635,-2.3824,-2.3075,-2.2252,-2.1512,-2.0644,-1.9863,-1.8975,-1.8336,-1.7619,-1.6722,-1.6409,-1.6087,-1.5333,-1.5484,-1.565,-1.5816,-1.6484,-1.7221,-1.8121,-1.8754,-1.9362,-1.9932,-2.0821,-2.1108,-2.0782,-2.1293,-2.1749,-2.2197,-2.2567,-2.28,-2.2909,-2.3017,-2.3258,-2.3569,-2.3569,-2.3747,-2.4054,-2.4112,-2.4112,-2.4112,-2.4112,-2.4216,-2.435,-2.4257,-2.404,-2.3712,-2.3538,-2.2711,-2.1744,-2.1652,-2.1207,-2.0712,-2.0625,-2.041,-2.0156,-1.9813,-1.9083,-1.8253,-1.7642,-1.6646,-1.5647,-1.497,-1.4684,-1.4477,-1.4269,-1.4046,-1.3926,-1.3763,-1.398,-1.4151,-1.426,-1.4601,-1.4903,-1.5067,-1.5192,-1.5337,-1.5705,-1.6265,-1.6901,-1.7554,-1.8382,-1.9101,-1.9695,-2.0487,-2.1042,-2.1329,-2.1957,-2.2352,-2.2339,-2.1955,-2.1779,-2.1765,-2.1435,-2.1375,-2.1616,-2.1746,-2.1712,-2.1471,-2.1471,-2.1326,-2.1082,-2.0957,-2.0809,-2.0673,-2.0372,-2.0118,-1.985,-1.9565,-1.9939,-2.0632,-2.0286,-2.0626,-2.1296,-2.0839,-2.0506,-2.0172,-2.3372,-2.2553,-2.1731,-2.0964,-2.0177,-1.9301,-1.8487,-1.7691,-1.6886,-1.6147,-1.5748,-1.5423,-1.4915,-1.5075,-1.5325,-1.5477,-1.6237,-1.7049,-1.7934,-1.8816,-1.969,-2.0417,-2.1164,-2.1657,-2.1992,-2.243,-2.2779,-2.2933,-2.3058,-2.3084,-2.3017,-2.3078,-2.3258,-2.3628,-2.3628,-2.3806,-2.4112,-2.4112,-2.4112,-2.4112,-2.4112,-2.4157,-2.4292,-2.4292,-2.4249,-2.4123,-2.3748,-2.3173,-2.2564,-2.1773,-2.129,-2.0965,-2.0501,-2.0246,-2.0029,-1.9862,-1.9117,-1.8236,-1.7495,-1.6783,-1.6173,-1.5665,-1.5452,-1.5306,-1.511,-1.4963,-1.4814,-1.4765,-1.4835,-1.4921,-1.4982,-1.5151,-1.5341,-1.5506,-1.5773,-1.6092,-1.6469,-1.6944,-1.7515,-1.809,-1.8672,-1.932,-2.0092,-2.0767,-2.13,-2.1796,-2.2297,-2.2616,-2.2616,-2.2406,-2.2154,-2.1822,-2.1339,-2.1131,-2.1277,-2.1326,-2.1326,-2.118,-2.1118,-2.0957,-2.0772,-2.0573,-2.0359,-2.0156,-1.9875,-1.9668,-1.9448,-1.921,-1.9569,-2.0228,-1.9936,-2.0262,-2.0828,-2.0388,-2.0053,-1.9726,-2.3001,-2.2025,-2.1108,-2.0479,-1.9608,-1.8727,-1.7844,-1.696,-1.6237,-1.5567,-1.5159,-1.4831,-1.465,-1.4915,-1.5249,-1.5567,-1.6394,-1.7294,-1.8167,-1.9283,-2.0226,-2.1021,-2.1702,-2.2451,-2.3279,-2.342,-2.3556,-2.3609,-2.3673,-2.3578,-2.3404,-2.3466,-2.3586,-2.3761,-2.3761,-2.3875,-2.4067,-2.4112,-2.4112,-2.4112,-2.4112,-2.4157,-2.4247,-2.4247,-2.4376,-2.4394,-2.3844,-2.348,-2.3218,-2.2055,-2.1572,-2.13,-2.0565,-2.0283,-2.0103,-1.9809,-1.9062,-1.8112,-1.7388,-1.6946,-1.6672,-1.6306,-1.612,-1.5968,-1.5826,-1.5723,-1.5609,-1.5609,-1.5592,-1.5563,-1.5604,-1.57,-1.5828,-1.5944,-1.6363,-1.6797,-1.7286,-1.7644,-1.8136,-1.8846,-1.9131,-1.9679,-2.0543,-2.1075,-2.1642,-2.2269,-2.2659,-2.2916,-2.2971,-2.2839,-2.2364,-2.1629,-2.1202,-2.0997,-2.0997,-2.0983,-2.0934,-2.0885,-2.0759,-2.061,-2.0472,-2.022,-1.9965,-1.9708,-1.9408,-1.9198,-1.904,-1.8917,-1.9233,-1.9889,-1.9661,-1.9935,-2.0388,-1.9857,-1.9539,-1.9264,-2.2628,-2.1634,-2.0702,-1.9835,-1.8798,-1.7764,-1.6894,-1.6229,-1.5567,-1.4817,-1.4566,-1.4482,-1.4391,-1.4831,-1.534,-1.6004,-1.7057,-1.8023,-1.8834,-2.0089,-2.1011,-2.1461,-2.2426,-2.3385,-2.4208,-2.3732,-2.367,-2.3952,-2.4161,-2.4279,-2.4424,-2.4566,-2.4482,-2.4177,-2.4287,-2.4189,-2.3891,-2.4067,-2.4112,-2.4112,-2.4112,-2.4112,-2.4112,-2.4112,-2.4112,-2.4112,-2.3956,-2.3534,-2.2998,-2.275,-2.2321,-2.1741,-2.1072,-2.0787,-2.0501,-1.9673,-1.9016,-1.8448,-1.7866,-1.7427,-1.7024,-1.6345,-1.612,-1.5968,-1.5826,-1.5723,-1.5609,-1.5609,-1.586,-1.6106,-1.6267,-1.6612,-1.697,-1.7158,-1.7202,-1.7489,-1.8272,-1.8418,-1.8851,-1.9889,-2.0098,-2.0454,-2.107,-2.1768,-2.2439,-2.2876,-2.345,-2.3878,-2.3995,-2.3459,-2.2594,-2.1354,-2.1026,-2.0924,-2.0997,-2.0871,-2.0759,-2.061,-2.0472,-2.0271,-2.0042,-1.9914,-1.9656,-1.942,-1.9158,-1.8881,-1.8649,-1.8811,-1.9091,-1.9451,-1.9426,-1.9606,-1.9868,-1.933,-1.8921,-1.8509,-2.2004,-2.1011,-2.001,-1.8966,-1.8006,-1.7115,-1.6229,-1.5401,-1.4734,-1.4412,-1.4153,-1.4068,-1.4159,-1.4824,-1.5575,-1.6237,-1.7521,-1.8647,-1.952,-2.0857,-2.2014,-2.2756,-2.3548,-2.4247,-2.4755,-2.4692,-2.4554,-2.4511,-2.4579,-2.4541,-2.4471,-2.4613,-2.463,-2.4672,-2.438,-2.4298,-2.4395,-2.4105,-2.4008,-2.4112,-2.4112,-2.4112,-2.4112,-2.4112,-2.4067,-2.3949,-2.3891,-2.3677,-2.3302,-2.2853,-2.2414,-2.2021,-2.1299,-2.1001,-2.0798,-2.0256,-1.9805,-1.9418,-1.8768,-1.8093,-1.7441,-1.7196,-1.6991,-1.6775,-1.6732,-1.6667,-1.6667,-1.6667,-1.6754,-1.6884,-1.6939,-1.7081,-1.7211,-1.7278,-1.7529,-1.7906,-1.8417,-1.8767,-1.9202,-2.003,-2.0216,-2.0625,-2.1382,-2.1952,-2.2506,-2.3022,-2.3441,-2.376,-2.3806,-2.3264,-2.2747,-2.2279,-2.1779,-2.1186,-2.0485,-2.0472,-2.0372,-2.0233,-2.0067,-1.9862,-1.9629,-1.9408,-1.9198,-1.9011,-1.8625,-1.841,-1.8282,-1.8408,-1.8661,-1.8972,-1.916,-1.9319,-1.933,-1.8921,-1.8519,-1.8124,-2.1257,-2.0304,-1.9301,-1.8264,-1.7367,-1.6394,-1.5484,-1.4734,-1.4237,-1.3913,-1.3737,-1.3822,-1.425,-1.5068,-1.5974,-1.6714,-1.8158,-1.9344,-2.0216,-2.1776,-2.3001,-2.3824,-2.4406,-2.4838,-2.5182,-2.5241,-2.5202,-2.499,-2.499,-2.5012,-2.4846,-2.4925,-2.4959,-2.5099,-2.4621,-2.4467,-2.451,-2.4077,-2.3949,-2.4067,-2.4054,-2.4112,-2.4112,-2.4067,-2.4008,-2.3891,-2.3772,-2.3641,-2.3458,-2.29,-2.2585,-2.2355,-2.1621,-2.1166,-2.0803,-2.0459,-2.0228,-1.9925,-1.9321,-1.8589,-1.7902,-1.7745,-1.749,-1.7278,-1.7278,-1.7278,-1.7278,-1.7278,-1.7278,-1.7278,-1.7278,-1.7278,-1.7333,-1.7486,-1.7791,-1.8225,-1.8806,-1.9201,-1.964,-2.0342,-2.0593,-2.1045,-2.1717,-2.2112,-2.2558,-2.2992,-2.3318,-2.3509,-2.3556,-2.314,-2.2847,-2.2668,-2.2128,-2.1415,-2.0456,-2.0549,-2.0473,-2.0139,-1.997,-1.9673,-1.9263,-1.9052,-1.8786,-1.8583,-1.8247,-1.8066,-1.8025,-1.8289,-1.8539,-1.8776,-1.9009,-1.9057,-1.8931,-1.8529,-1.8124,-1.7735,-2.0352,-1.9561,-1.8745,-1.7853,-1.6812,-1.5756,-1.4817,-1.4328,-1.3913,-1.3483,-1.3561,-1.3984,-1.465,-1.556,-1.655,-1.761,-1.9036,-2.0294,-2.1165,-2.2916,-2.4043,-2.4502,-2.4909,-2.5182,-2.5312,-2.5312,-2.5312,-2.5312,-2.5535,-2.5606,-2.5606,-2.5828,-2.5684,-2.5264,-2.4941,-2.4582,-2.4202,-2.4017,-2.3903,-2.3891,-2.4067,-2.4112,-2.4054,-2.3949,-2.3891,-2.3832,-2.3522,-2.3403,-2.3343,-2.303,-2.2909,-2.2749,-2.2014,-2.1183,-2.0483,-2.0181,-2.0018,-1.9854,-1.9477,-1.8996,-1.8396,-1.7846,-1.7501,-1.7278,-1.7278,-1.7278,-1.7278,-1.7278,-1.7278,-1.7278,-1.7278,-1.7278,-1.7442,-1.7923,-1.801,-1.8408,-1.9537,-1.9845,-2.0211,-2.1101,-2.1498,-2.1824,-2.2135,-2.2309,-2.2543,-2.2848,-2.3017,-2.3258,-2.3569,-2.3258,-2.2827,-2.2334,-2.1959,-2.1525,-2.0998,-2.1325,-2.1149,-2.0382,-2.0135,-1.9637,-1.8999,-1.8851,-1.853,-1.8084,-1.8084,-1.8036,-1.7952,-1.849,-1.8787,-1.8882,-1.902,-1.8998,-1.8741,-1.8212,-1.7813,-1.7401,-1.9543,-1.8702,-1.7777,-1.6919,-1.6057,-1.5151,-1.4412,-1.3737,-1.3313,-1.3222,-1.3483,-1.3984,-1.465,-1.5884,-1.7196,-1.8238,-1.9825,-2.1451,-2.2979,-2.3886,-2.449,-2.4909,-2.5052,-2.5182,-2.5312,-2.5312,-2.5312,-2.5312,-2.5382,-2.5453,-2.5606,-2.5676,-2.5673,-2.5709,-2.5289,-2.4953,-2.4595,-2.4289,-2.394,-2.3688,-2.3747,-2.3747,-2.3747,-2.3688,-2.3641,-2.3522,-2.3463,-2.3283,-2.303,-2.2909,-2.2726,-2.2457,-2.1981,-2.1653,-2.1289,-2.107,-2.0896,-2.0703,-2.0114,-1.9654,-1.9159,-1.8256,-1.7688,-1.7278,-1.7278,-1.7278,-1.7278,-1.7278,-1.7278,-1.7278,-1.7278,-1.7562,-1.7835,-1.7977,-1.8567,-1.9153,-1.9625,-2.0158,-2.0681,-2.1146,-2.1348,-2.16,-2.1824,-2.2123,-2.2309,-2.2371,-2.2678,-2.286,-2.2982,-2.286,-2.2725,-2.2565,-2.2359,-2.2104,-2.1838,-2.1366,-2.0945,-2.0447,-2.0402,-1.9889,-1.9101,-1.8946,-1.8527,-1.7963,-1.7656,-1.7654,-1.7893,-1.8059,-1.8301,-1.8583,-1.8767,-1.8741,-1.8405,-1.792,-1.7657,-1.7392,-1.8536,-1.7764,-1.6959,-1.6071,-1.5306,-1.4559,-1.3822,-1.3313,-1.3052,-1.2966,-1.3392,-1.4068,-1.4901,-1.6296,-1.7594,-1.8877,-2.0837,-2.2606,-2.3897,-2.449,-2.4778,-2.4981,-2.5052,-2.5111,-2.5241,-2.5241,-2.5182,-2.5123,-2.5123,-2.5194,-2.5394,-2.5394,-2.5548,-2.5734,-2.5333,-2.4925,-2.4589,-2.4217,-2.3837,-2.3378,-2.3569,-2.3628,-2.3569,-2.3509,-2.345,-2.3403,-2.3283,-2.309,-2.2848,-2.2726,-2.2482,-2.2173,-2.1987,-2.1737,-2.1549,-2.1336,-2.121,-2.0962,-2.0425,-2.0013,-1.9525,-1.8879,-1.8112,-1.7573,-1.7573,-1.742,-1.7278,-1.7278,-1.7278,-1.7333,-1.7529,-1.7813,-1.813,-1.8501,-1.9047,-1.9484,-1.9808,-2.0287,-2.0669,-2.0978,-2.1221,-2.1493,-2.1853,-2.2119,-2.2381,-2.2647,-2.2669,-2.2748,-2.2799,-2.2542,-2.2371,-2.2371,-2.2185,-2.2061,-2.2011,-2.1548,-2.1044,-2.0653,-2.0606,-2.0147,-1.9298,-1.9183,-1.868,-1.7935,-1.7862,-1.7882,-1.7937,-1.8039,-1.8257,-1.8572,-1.8572,-1.8405,-1.8134,-1.7794,-1.752,-1.7254,-1.7468,-1.6791,-1.6111,-1.5225,-1.4667,-1.3944,-1.3124,-1.3045,-1.2966,-1.2705,-1.3307,-1.423,-1.5311,-1.6609,-1.806,-1.959,-2.1907,-2.3593,-2.42,-2.4766,-2.4981,-2.4861,-2.4992,-2.5052,-2.5052,-2.5052,-2.4992,-2.479,-2.479,-2.4861,-2.5052,-2.5052,-2.5265,-2.5511,-2.5038,-2.4627,-2.4263,-2.4002,-2.3629,-2.3078,-2.339,-2.3569,-2.3509,-2.3403,-2.3403,-2.333,-2.303,-2.2909,-2.2848,-2.2482,-2.2111,-2.1874,-2.1862,-2.16,-2.1336,-2.1221,-2.1031,-2.0775,-2.0464,-2.0079,-1.9673,-1.9484,-1.8796,-1.8119,-1.8075,-1.7693,-1.7344,-1.7344,-1.7344,-1.7475,-1.7923,-1.8075,-1.8414,-1.9277,-1.9462,-1.9637,-2.002,-2.027,-2.0475,-2.0669,-2.1024,-2.1475,-2.2089,-2.2355,-2.2697,-2.3344,-2.2965,-2.2769,-2.2951,-2.227,-2.1934,-2.1934,-2.1773,-2.1698,-2.1698,-2.1635,-2.1389,-2.0946,-2.0787,-2.0338,-1.9664,-1.9474,-1.8907,-1.8112,-1.849,-1.8405,-1.7988,-1.8237,-1.8551,-1.8741,-1.8405,-1.8144,-1.794,-1.7608,-1.7392,-1.7097,-1.6703,-1.579,-1.5019,-1.459,-1.3756,-1.3137,-1.2838,-1.2619,-1.2619,-1.2705,-1.3639,-1.4643,-1.5711,-1.7342,-1.8948,-2.0372,-2.2521,-2.4055,-2.4646,-2.479,-2.4921,-2.5052,-2.4921,-2.4778,-2.4634,-2.4778,-2.4861,-2.479,-2.479,-2.479,-2.4861,-2.4861,-2.4992,-2.5182,-2.5204,-2.4764,-2.4079,-2.4165,-2.3689,-2.28,-2.2969,-2.303,-2.309,-2.315,-2.3138,-2.3138,-2.2969,-2.286,-2.2678,-2.2173,-2.1874,-2.1698,-2.1537,-2.1273,-2.1019,-2.0967,-2.0722,-2.0464,-2.041,-2.0204,-1.9987,-1.9987,-1.955,-1.9015,-1.8622,-1.8185,-1.7846,-1.7846,-1.7846,-1.7879,-1.7988,-1.8611,-1.9179,-1.9386,-1.9736,-1.9966,-2.0074,-2.027,-2.041,-2.0475,-2.1147,-2.1627,-2.1807,-2.2405,-2.294,-2.3191,-2.3164,-2.3105,-2.3105,-2.2622,-2.2274,-2.2274,-2.1748,-2.1463,-2.1463,-2.1221,-2.1164,-2.1288,-2.1186,-2.0745,-2.0091,-1.9761,-1.9238,-1.8534,-1.8391,-1.829,-1.8278,-1.8232,-1.8268,-1.8405,-1.8337,-1.8056,-1.7716,-1.7598,-1.7392,-1.7097,-1.6234,-1.5251,-1.441,-1.3971,-1.3371,-1.2819,-1.2577,-1.2619,-1.2875,-1.3124,-1.4048,-1.522,-1.6535,-1.798,-1.9728,-2.169,-2.3213,-2.42,-2.4646,-2.4729,-2.479,-2.4838,-2.4706,-2.4574,-2.4345,-2.449,-2.449,-2.449,-2.449,-2.4574,-2.4646,-2.4646,-2.479,-2.4992,-2.5111,-2.4665,-2.3749,-2.4025,-2.3533,-2.2555,-2.2739,-2.28,-2.28,-2.2848,-2.2909,-2.2909,-2.2726,-2.2555,-2.2371,-2.2061,-2.1812,-2.1624,-2.1463,-2.1146,-2.0903,-2.085,-2.0593,-2.041,-2.0281,-2.0151,-2.0085,-2.0085,-1.9889,-1.9637,-1.9146,-1.8665,-1.8338,-1.8338,-1.8338,-1.8403,-1.8643,-1.908,-1.9495,-1.9725,-1.9911,-2.0085,-2.0085,-2.0216,-2.0358,-2.0709,-2.1163,-2.1655,-2.2207,-2.282,-2.3315,-2.3525,-2.3306,-2.3167,-2.3317,-2.2829,-2.2434,-2.219,-2.1846,-2.1452,-2.1146,-2.0955,-2.0967,-2.1094,-2.0978,-2.0726,-2.0288,-2.0012,-1.9484,-1.88,-1.8775,-1.8574,-1.823,-1.8304,-1.8261,-1.8269,-1.8202,-1.793,-1.7588,-1.7529,-1.7185,-1.6778,-1.5824,-1.4775,-1.3892,-1.3436,-1.3113,-1.2839,-1.2511,-1.2845,-1.3385,-1.3795,-1.4713,-1.5959,-1.735,-1.8939,-2.074,-2.2916,-2.3824,-2.4345,-2.4502,-2.4646,-2.4646,-2.4502,-2.449,-2.4345,-2.42,-2.42,-2.42,-2.42,-2.42,-2.4273,-2.4418,-2.4418,-2.4574,-2.479,-2.4992,-2.4469,-2.3549,-2.3815,-2.3341,-2.2359,-2.2555,-2.2678,-2.2678,-2.269,-2.269,-2.2678,-2.2482,-2.2309,-2.2209,-2.2032,-2.1883,-2.1647,-2.1516,-2.1163,-2.0839,-2.0658,-2.054,-2.0281,-2.014,-2.0085,-2.0074,-2.0009,-2.0009,-1.9912,-1.9574,-1.9168,-1.8818,-1.8818,-1.8818,-1.8938,-1.9342,-1.9484,-1.9681,-2.002,-2.0085,-2.0085,-2.0085,-2.0151,-2.0413,-2.0996,-2.1251,-2.1774,-2.2827,-2.3358,-2.3666,-2.3824,-2.344,-2.3285,-2.3498,-2.3087,-2.2616,-2.2203,-2.2099,-2.1781,-2.1153,-2.1088,-2.0989,-2.0792,-2.0727,-2.0618,-2.041,-2.0183,-1.9695,-1.9041,-1.9249,-1.8858,-1.8212,-1.8388,-1.8414,-1.8212,-1.8076,-1.7803,-1.7548,-1.7546,-1.7079,-1.6431,-1.5259,-1.424,-1.3505,-1.3127,-1.2811,-1.255,-1.2572,-1.3136,-1.3795,-1.4223,-1.5545,-1.6935,-1.806,-2.043,-2.2392,-2.3446,-2.4127,-2.449,-2.449,-2.4502,-2.4502,-2.449,-2.4345,-2.42,-2.42,-2.42,-2.42,-2.42,-2.42,-2.42,-2.4273,-2.4273,-2.4345,-2.4574,-2.4718,-2.4342,-2.3482,-2.3761,-2.3224,-2.2247,-2.2359,-2.242,-2.2482,-2.2616,-2.269,-2.2678,-2.2482,-2.2309,-2.2195,-2.232,-2.2051,-2.1717,-2.1644,-2.1212,-2.0669,-2.0475,-2.0281,-2.0074,-1.9944,-1.9944,-1.9868,-1.9736,-1.9681,-1.9726,-1.9792,-1.9532,-1.9321,-1.9321,-1.9321,-1.9342,-1.9408,-1.9693,-2.0009,-2.0074,-2.0085,-2.0085,-2.0085,-2.05,-2.0851,-2.0917,-2.179,-2.2661,-2.3447,-2.3559,-2.3593,-2.3666,-2.3756,-2.3795,-2.3795,-2.3473,-2.3235,-2.3177,-2.2811,-2.2468,-2.2196,-2.1981,-2.1632,-2.1075,-2.0963,-2.0687,-2.041,-2.0064,-1.977,-1.952,-1.9386,-1.8977,-1.8459,-1.8452,-1.8347,-1.8008,-1.8008,-1.7862,-1.7686,-1.7727,-1.7359,-1.6892,-1.5259,-1.4281,-1.3594,-1.3223,-1.3142,-1.3127,-1.333,-1.3944,-1.4796,-1.5545,-1.669,-1.7908,-1.9195,-2.1375,-2.3001,-2.3677,-2.4116,-2.4345,-2.4345,-2.4345,-2.4345,-2.4345,-2.4273,-2.42,-2.42,-2.42,-2.42,-2.42,-2.42,-2.42,-2.42,-2.42,-2.4345,-2.449,-2.4401,-2.4058,-2.3471,-2.3382,-2.2895,-2.2197,-2.2247,-2.2309,-2.2309,-2.2383,-2.2432,-2.2432,-2.2309,-2.244,-2.2603,-2.2433,-2.2486,-2.2514,-2.2216,-2.1801,-2.1353,-2.0941,-2.0665,-2.0412,-2.0009,-1.9868,-1.9868,-1.9671,-1.9605,-1.9671,-1.9868,-1.9782,-1.9694,-1.9759,-1.9759,-1.9759,-1.9759,-1.9933,-2.0085,-2.0085,-2.0085,-2.0172,-2.0511,-2.0729,-2.1068,-2.1614,-2.2341,-2.2908,-2.3202,-2.3298,-2.3298,-2.3446,-2.3604,-2.3751,-2.3897,-2.3838,-2.3741,-2.3383,-2.3224,-2.2822,-2.2263,-2.2114,-2.1876,-2.1391,-2.1048,-2.0676,-2.0216,-1.9878,-1.9671,-1.9605,-1.9341,-1.8942,-1.8482,-1.8482,-1.8279,-1.8008,-1.8008,-1.7948,-1.7919,-1.8059,-1.7834,-1.7447]},{"header":{"parameterUnit":"m.s-1","parameterCategory":1,"la1":30.6,"la2":28.766,"lo1":-90.7593,"lo2":-88.6598,"dy":0.0162,"dx":0.0183,"nx":116,"ny":114,"refTime":"2023-07-17T00:00:00:Z","depth":0,"parameterNumber":3,"parameterNumberName":"V-component_of_WINDS"},"data":[0.0,0.0,0.0,0.0,0.0,0.0,0.0,0.0,0.0,0.0,0.0,0.0,0.0,0.0,0.0,0.0,0.0,0.0,0.0,0.0,0.0,0.0,0.0,0.0,0.0,0.0,0.0,0.0,0.0,0.0,0.0,0.0,0.0,0.0,0.0,0.0,0.0,0.0,0.0,0.0,0.0,0.0,0.0,0.0,0.0,0.0,0.0,0.0,0.0,0.0,0.0,0.0,0.0,0.0,0.0,0.0,0.0,0.0,0.0,0.0,0.0,0.0,0.0,0.0,0.0,0.0,0.0,0.0,0.0,0.0,0.0,0.0,0.0,0.0,0.0,0.0,0.0,0.0,0.0,0.0,0.0,0.0,0.0,0.0,0.0,0.0,0.0,0.0,0.0,0.0,0.0,0.0,0.0,0.0,0.0,0.0,0.0,0.0,0.0,0.0,0.0,0.0,0.0,0.0,0.0,0.0,0.0,0.0,0.0,0.0,0.0,0.0,0.0,0.0,0.0,0.0,0.0,0.0,0.0,0.0,0.0,0.0,0.0,0.0,0.0,0.0,0.0,0.0,0.0,0.0,0.0,0.0,0.0,0.0,0.0,0.0,0.0,0.0,0.0,0.0,0.0,0.0,0.0,0.0,0.0,0.0,0.0,0.0,0.0,0.0,0.0,0.0,0.0,0.0,0.0,0.0,0.0,0.0,0.0,0.0,0.0,0.0,0.0,0.0,0.0,0.0,0.0,0.0,0.0,0.0,0.0,0.0,0.0,0.0,0.0,0.0,0.0,0.0,0.0,0.0,0.0,0.0,0.0,0.0,0.0,0.0,0.0,0.0,0.0,0.0,0.0,0.0,0.0,0.0,0.0,0.0,0.0,0.0,0.0,0.0,0.0,0.0,0.0,0.0,0.0,0.0,0.0,0.0,0.0,0.0,0.0,0.0,0.0,0.0,0.0,0.0,0.0,0.0,0.0,0.0,0.0,0.0,0.0,0.0,0.0,0.0,0.0,0.0,0.0,0.0,0.0,0.0,0.0,0.0,0.0,0.0,0.0,0.0,0.0,0.0,0.0,0.0,0.0,0.0,0.0,0.0,0.0,0.0,0.0,0.0,0.0,0.0,0.0,0.0,0.0,0.0,0.0,0.0,0.0,0.0,0.0,0.0,0.0,0.0,0.0,0.0,0.0,0.0,0.0,0.0,0.0,0.0,0.0,0.0,0.0,0.0,0.0,0.0,0.0,0.0,0.0,0.0,0.0,0.0,0.0,0.0,0.0,0.0,0.0,0.0,0.0,0.0,0.0,0.0,0.0,0.0,0.0,0.0,0.0,0.0,0.0,0.0,0.0,0.0,0.0,0.0,0.0,0.0,0.0,0.0,0.0,0.0,0.0,0.0,0.0,0.0,0.0,0.0,0.0,0.0,0.0,0.0,0.0,0.0,0.0,0.0,0.0,0.0,0.0,0.0,0.0,0.0,0.0,0.0,0.0,0.0,0.0,0.0,0.0,0.0,0.0,0.0,0.0,0.0,0.0,0.0,0.0,0.0,0.0,0.0,0.0,0.0,0.0,0.0,0.0,0.0,0.0,0.0,0.0,0.0,0.0,0.0,0.0,0.0,0.0,0.0,0.0,0.0,0.0,0.0,0.0,0.0,0.0,0.0,0.0,0.0,0.0,0.0,0.0,0.0,0.0,0.0,0.0,0.0,0.0,0.0,0.0,0.0,0.0,0.0,0.0,0.0,0.0,0.0,0.0,0.0,0.0,0.0,0.0,0.0,0.0,0.0,0.0,0.0,0.0,0.0,0.0,0.0,0.0,0.0,0.0,0.0,0.0,0.0,0.0,0.0,0.0,0.0,0.0,0.0,0.0,0.0,0.0,0.0,0.0,0.0,0.0,0.0,0.0,0.0,0.0,0.0,0.0,0.0,0.0,0.0,0.0,0.0,0.0,0.0,0.0,0.0,0.0,0.0,0.0,0.0,0.0,0.0,0.0,0.0,0.0,0.0,0.0,0.0,0.0,0.0,0.0,0.0,0.0,0.0,0.0,0.0,0.0,0.0,0.0,0.0,0.0,0.0,0.0,0.0,0.0,0.0,0.0,0.0,0.0,0.0,0.0,0.0,0.0,0.0,0.0,0.0,0.0,0.0,0.0,0.0,0.0,0.0,0.0,0.0,0.0,0.0,0.0,0.0,0.0,0.0,0.0,0.0,0.0,0.0,0.0,0.0,0.0,0.0,0.0,0.0,0.0,0.0,0.0,0.0,0.0,0.0,0.0,0.0,0.0,0.0,0.0,0.0,0.0,0.0,0.0,0.0,0.0,0.0,0.0,0.0,0.0,0.0,0.0,0.0,0.0,0.0,0.0,0.0,0.0,0.0,0.0,0.0,0.0,0.0,0.0,0.0,0.0,0.0,0.0,0.0,0.0,0.0,0.0,0.0,0.0,0.0,0.0,0.0,0.0,0.0,0.0,0.0,0.0,0.0,0.0,0.0,0.0,0.0,0.0,0.0,0.0,0.0,0.0,0.0,0.0,0.0,0.0,0.0,0.0,0.0,0.0,0.0,0.0,0.0,0.0,0.0,0.0,0.0,0.0,0.0,0.0,0.0,0.0,0.0,0.0,0.0,0.0,0.0,0.0,0.0,0.0,0.0,0.0,0.0,0.0,0.0,0.0,0.0,0.0,0.0,0.0,0.0,0.0,0.0,0.0,0.0,0.0,0.0,0.0,0.0,0.0,0.0,0.0,0.0,0.0,0.0,0.0,0.0,0.0,0.0,0.0,0.0,0.0,0.0,0.0,0.0,0.0,0.0,0.0,0.0,0.0,0.0,0.0,0.0,0.0,0.0,0.0,0.0,0.0,0.0,0.0,0.0,0.0,0.0,0.0,0.0,0.0,0.0,0.0,0.0,0.0,0.0,0.0,0.0,0.0,0.0,0.0,0.0,0.0,0.0,0.0,0.0,0.0,0.0,0.0,0.0,0.0,0.0,0.0,0.0,0.0,0.0,0.0,0.0,0.0,0.0,0.0,0.0,0.0,0.0,0.0,0.0,0.0,0.0,0.0,0.0,0.0,0.0,0.0,0.0,0.0,0.0,0.0,0.0,0.0,0.0,0.0,0.0,0.0,0.0,0.0,0.0,0.0,0.0,0.0,0.0,0.0,0.0,0.0,0.0,0.0,0.0,0.0,0.0,0.0,0.0,0.0,0.0,0.0,0.0,0.0,0.0,0.0,0.0,0.0,0.0,0.0,0.0,0.0,0.0,0.0,0.0,0.0,0.0,0.0,0.0,0.0,0.0,0.0,0.0,0.0,0.0,0.0,0.0,0.0,0.0,0.0,0.0,0.0,0.0,0.0,0.0,0.0,0.0,0.0,0.0,0.0,0.0,0.0,0.0,0.0,0.0,0.0,0.0,0.0,0.0,0.0,0.0,0.0,0.0,0.0,0.0,0.0,0.0,0.0,0.0,0.0,0.0,0.0,0.0,0.0,0.0,0.0,0.0,0.0,0.0,0.0,0.0,0.0,0.0,0.0,0.0,0.0,0.0,0.0,0.0,0.0,0.0,0.0,0.0,0.0,0.0,0.0,0.0,0.0,0.0,0.0,0.0,0.0,0.0,0.0,0.0,0.0,0.0,0.0,0.0,0.0,0.0,0.0,0.0,0.0,0.0,0.0,0.0,0.0,0.0,0.0,0.0,0.0,0.0,0.0,0.0,0.0,0.0,0.0,0.0,0.0,0.0,0.0,0.0,0.0,0.0,0.0,0.0,0.0,0.0,0.0,0.0,0.0,0.0,0.0,0.0,0.0,0.0,0.0,0.0,0.0,0.0,0.0,0.0,0.0,0.0,0.0,0.0,0.0,0.0,0.0,0.0,0.0,0.0,0.0,0.0,0.0,0.0,0.0,0.0,0.0,0.0,0.0,0.0,0.0,0.0,0.0,0.0,0.0,0.0,0.0,0.0,0.0,0.0,0.0,0.0,0.0,0.0,0.0,0.0,0.0,0.0,0.0,0.0,0.0,0.0,0.0,0.0,0.0,0.0,0.0,0.0,0.0,0.0,0.0,0.0,0.0,0.0,0.0,0.0,0.0,0.0,0.0,0.0,0.0,0.0,0.0,0.0,0.0,0.0,0.0,0.0,0.0,0.0,0.0,0.0,0.0,0.0,0.0,0.0,0.0,0.0,0.0,0.0,0.0,0.0,0.0,0.0,0.0,0.0,0.0,0.0,0.0,0.0,0.0,0.0,0.0,0.0,0.0,0.0,0.0,0.0,0.0,0.0,0.0,0.0,0.0,0.0,0.0,0.0,0.0,0.0,0.0,0.0,0.0,0.0,0.0,0.0,0.0,0.0,0.0,0.0,0.0,0.0,0.0,0.0,0.0,0.0,0.0,0.0,0.0,0.0,0.0,0.0,0.0,0.0,0.0,0.0,0.0,0.0,0.0,0.0,0.0,0.0,0.0,0.0,0.0,0.0,0.0,0.0,0.0,0.0,0.0,0.0,0.0,0.0,0.0,0.0,0.0,0.0,0.0,0.0,0.0,0.0,0.0,0.0,0.0,0.0,0.0,0.0,0.0,0.0,0.0,0.0,0.0,0.0,0.0,0.0,0.0,0.0,0.0,0.0,0.0,0.0,0.0,0.0,0.0,0.0,0.0,0.0,0.0,0.0,0.0,0.0,0.0,0.0,0.0,0.0,0.0,0.0,0.0,0.0,0.0,0.0,0.0,0.0,0.0,0.0,0.0,0.0,0.0,0.0,0.0,0.0,0.0,0.0,0.0,0.0,0.0,0.0,0.0,0.0,0.0,0.0,0.0,0.0,0.0,0.0,0.0,0.0,0.0,0.0,0.0,0.0,0.0,0.0,0.0,0.0,0.0,0.0,0.0,0.0,0.0,0.0,0.0,0.0,0.0,0.0,0.0,0.0,0.0,0.0,0.0,0.0,0.0,0.0,0.0,0.0,0.0,0.0,0.0,0.0,0.0,0.0,0.0,0.0,0.0,0.0,0.0,0.0,0.0,0.0,0.0,0.0,0.0,0.0,0.0,0.0,0.0,0.0,0.0,0.0,0.0,0.0,0.0,0.0,0.0,0.0,0.0,0.0,0.0,0.0,0.0,0.0,0.0,0.0,0.0,0.0,0.0,0.0,0.0,0.0,0.0,0.0,0.0,0.0,0.0,0.0,0.0,0.0,0.0,0.0,0.0,0.0,0.0,0.0,0.0,0.0,0.0,0.0,0.0,0.0,0.0,0.0,0.0,0.0,0.0,0.0,0.0,0.0,0.0,0.0,0.0,0.0,0.0,0.0,0.0,0.0,0.0,0.0,0.0,0.0,0.0,0.0,0.0,0.0,0.0,0.0,0.0,0.0,0.0,0.0,0.0,0.0,0.0,0.0,0.0,0.0,0.0,0.0,0.0,0.0,0.0,0.0,0.0,0.0,0.0,0.0,0.0,0.0,0.0,0.0,0.0,0.0,0.0,0.0,0.0,0.0,0.0,0.0,0.0,0.0,0.0,0.0,0.0,0.0,0.0,0.0,0.0,0.0,0.0,0.0,0.0,0.0,0.0,0.0,0.0,0.0,0.0,0.0,0.0,0.0,0.0,0.0,0.0,0.0,0.0,0.0,0.0,0.0,0.0,0.0,0.0,0.0,0.0,0.0,0.0,0.0,0.0,0.0,0.0,0.0,0.0,0.0,0.0,0.0,0.0,0.0,0.0,0.0,0.0,0.0,0.0,0.0,0.0,0.0,0.0,0.0,0.0,0.0,0.0,0.0,0.0,0.0,0.0,0.0,0.0,0.0,0.0,0.0,0.0,0.0,0.0,0.0,0.0,0.0,0.0,0.0,0.0,0.0,0.0,0.0,0.0,0.0,0.0,0.0,0.0,0.0,0.0,0.0,0.0,0.0,0.0,0.0,0.0,0.0,0.0,0.0,0.0,0.0,0.0,0.0,0.0,0.0,0.0,0.0,0.0,0.0,0.0,0.0,0.0,0.0,0.0,0.0,0.0,0.0,0.0,0.0,0.0,0.0,0.0,0.0,0.0,0.0,0.0,0.0,0.0,0.0,0.0,0.0,0.0,0.0,0.0,0.0,0.0,0.0,0.0,0.0,-2.4412,-2.3942,0.0,0.0,0.0,0.0,0.0,0.0,0.0,0.0,0.0,0.0,0.0,0.0,0.0,0.0,0.0,0.0,0.0,0.0,0.0,0.0,0.0,0.0,0.0,0.0,0.0,0.0,0.0,0.0,0.0,0.0,0.0,0.0,0.0,0.0,0.0,0.0,0.0,0.0,0.0,0.0,0.0,0.0,0.0,0.0,0.0,0.0,0.0,0.0,0.0,0.0,0.0,0.0,0.0,0.0,0.0,0.0,0.0,0.0,0.0,0.0,0.0,0.0,0.0,0.0,0.0,0.0,0.0,0.0,0.0,0.0,0.0,0.0,0.0,0.0,0.0,0.0,0.0,0.0,0.0,0.0,0.0,0.0,0.0,0.0,0.0,0.0,0.0,0.0,0.0,0.0,0.0,0.0,0.0,0.0,0.0,0.0,0.0,0.0,0.0,0.0,0.0,0.0,0.0,0.0,0.0,0.0,0.0,0.0,0.0,0.0,0.0,0.0,0.0,0.0,-2.6334,-2.556,0.0,0.0,0.0,0.0,0.0,0.0,0.0,0.0,0.0,0.0,0.0,0.0,0.0,0.0,0.0,0.0,0.0,0.0,0.0,0.0,0.0,0.0,0.0,0.0,0.0,0.0,0.0,0.0,0.0,0.0,0.0,0.0,0.0,0.0,0.0,0.0,0.0,0.0,0.0,0.0,0.0,0.0,0.0,0.0,0.0,0.0,0.0,0.0,0.0,0.0,0.0,0.0,0.0,0.0,0.0,0.0,0.0,0.0,0.0,0.0,0.0,0.0,0.0,0.0,0.0,0.0,0.0,0.0,0.0,0.0,0.0,0.0,0.0,0.0,0.0,0.0,0.0,0.0,0.0,0.0,0.0,0.0,0.0,0.0,0.0,0.0,0.0,0.0,0.0,0.0,0.0,0.0,0.0,0.0,0.0,0.0,0.0,0.0,0.0,0.0,0.0,0.0,0.0,0.0,0.0,0.0,0.0,0.0,-2.7701,-2.8124,-2.8179,-2.9612,-3.0314,-3.0301,-2.8375,-2.7613,-2.7732,-2.766,0.0,0.0,0.0,0.0,0.0,0.0,0.0,0.0,0.0,0.0,0.0,0.0,0.0,0.0,0.0,0.0,0.0,0.0,0.0,0.0,0.0,0.0,0.0,0.0,0.0,0.0,0.0,0.0,0.0,0.0,0.0,0.0,0.0,0.0,0.0,0.0,0.0,0.0,-1.9244,-1.9605,-1.9816,-1.9951,0.0,0.0,0.0,0.0,0.0,0.0,0.0,0.0,0.0,0.0,0.0,0.0,0.0,0.0,0.0,0.0,0.0,0.0,0.0,0.0,0.0,0.0,0.0,0.0,0.0,0.0,0.0,0.0,0.0,0.0,0.0,0.0,0.0,0.0,0.0,0.0,0.0,0.0,0.0,0.0,0.0,0.0,0.0,0.0,-2.0359,-2.0455,0.0,0.0,0.0,0.0,0.0,0.0,0.0,0.0,0.0,0.0,0.0,0.0,0.0,-2.6113,-2.6928,-2.7725,-2.854,-2.9337,-3.016,-3.0585,-3.063,-3.0935,-3.1104,-3.1144,-3.0956,0.0,-3.101,-3.033,0.0,0.0,0.0,0.0,0.0,0.0,0.0,0.0,0.0,0.0,0.0,0.0,0.0,0.0,0.0,0.0,0.0,0.0,0.0,0.0,0.0,0.0,0.0,0.0,0.0,0.0,0.0,0.0,0.0,0.0,0.0,0.0,0.0,0.0,0.0,0.0,-1.7872,-1.8718,-1.9607,-2.0214,-2.0636,-2.0916,-2.1803,-2.1886,-2.1387,-2.1292,0.0,0.0,0.0,0.0,0.0,0.0,0.0,0.0,0.0,0.0,0.0,0.0,0.0,0.0,0.0,0.0,0.0,0.0,0.0,0.0,0.0,0.0,0.0,0.0,0.0,0.0,0.0,0.0,0.0,0.0,0.0,0.0,0.0,0.0,0.0,0.0,0.0,0.0,0.0,-2.0369,-2.0926,-2.126,-2.1545,-2.1678,0.0,0.0,0.0,0.0,0.0,0.0,0.0,0.0,0.0,-2.6213,-2.7024,-2.7817,-2.8629,-2.944,-3.0026,-3.0423,-3.1237,-3.1645,-3.1746,-3.2256,-3.252,-3.2602,-3.2708,-3.2812,-3.2853,-3.1672,-3.1244,-3.1291,0.0,0.0,0.0,0.0,-3.0971,-3.1048,0.0,0.0,0.0,0.0,0.0,0.0,0.0,0.0,0.0,0.0,0.0,0.0,0.0,0.0,0.0,-1.5923,0.0,0.0,0.0,0.0,0.0,0.0,0.0,0.0,0.0,0.0,0.0,0.0,-1.9097,-1.937,-1.9812,-2.0664,-2.1178,-2.1451,-2.2522,-2.2617,-2.1942,-2.199,-2.2191,0.0,0.0,0.0,0.0,0.0,0.0,0.0,0.0,0.0,0.0,0.0,0.0,0.0,0.0,0.0,0.0,0.0,0.0,0.0,0.0,0.0,0.0,0.0,0.0,0.0,0.0,0.0,0.0,0.0,0.0,0.0,0.0,0.0,0.0,0.0,0.0,0.0,0.0,-2.1112,-2.1572,-2.2245,-2.2465,-2.2629,0.0,0.0,0.0,0.0,0.0,0.0,-2.5757,-2.6351,-2.7144,-2.8074,-2.8685,-2.9386,-3.0222,-3.0815,-3.124,-3.1477,-3.2119,-3.2437,-3.2495,-3.3179,-3.3629,-3.3897,-3.3981,-3.4202,-3.4428,-3.3155,-3.2701,-3.2832,-3.3036,-3.3156,-3.3243,-3.3243,-3.3243,-3.334,0.0,0.0,0.0,0.0,0.0,0.0,0.0,0.0,0.0,0.0,0.0,0.0,0.0,0.0,-1.5997,-1.634,-1.6724,-1.6809,0.0,0.0,0.0,0.0,0.0,0.0,0.0,0.0,0.0,-1.9192,-1.942,-2.002,-2.083,-2.1258,-2.1639,-2.196,-2.2473,-2.2975,-2.337,-2.2991,-2.2956,-2.3098,0.0,0.0,0.0,0.0,0.0,0.0,0.0,0.0,0.0,0.0,0.0,0.0,0.0,0.0,0.0,0.0,0.0,0.0,0.0,0.0,0.0,0.0,0.0,0.0,0.0,0.0,0.0,0.0,0.0,0.0,0.0,0.0,0.0,0.0,0.0,0.0,0.0,0.0,0.0,-2.3876,-2.4543,0.0,0.0,0.0,0.0,-2.5935,-2.5948,-2.6646,-2.8154,-2.828,-2.9017,-3.0582,-3.0671,-3.1085,-3.1876,-3.193,-3.229,-3.2991,-3.3172,-3.3238,-3.3238,-3.3433,-3.3967,-3.4746,-3.4804,-3.5375,-3.6214,-3.543,-3.5158,-3.531,-3.6147,-3.6496,-3.6547,-3.6547,-3.6615,-3.6664,0.0,0.0,0.0,0.0,0.0,0.0,0.0,0.0,0.0,0.0,0.0,0.0,0.0,-1.5488,-1.5812,-1.6114,-1.6399,-1.6394,-1.5981,0.0,0.0,0.0,0.0,0.0,0.0,0.0,-1.85,-1.9386,-1.9714,-2.011,-2.0613,-2.1007,-2.1354,-2.1688,-2.2209,-2.2712,-2.3206,-2.3425,-2.3713,-2.3921,-2.3385,-2.3082,0.0,0.0,0.0,0.0,0.0,0.0,0.0,0.0,0.0,0.0,0.0,0.0,0.0,0.0,0.0,0.0,0.0,0.0,0.0,0.0,0.0,0.0,0.0,0.0,0.0,0.0,0.0,0.0,0.0,0.0,0.0,0.0,0.0,0.0,0.0,0.0,0.0,-2.536,-2.5736,0.0,-2.6144,-2.6157,-2.6309,-2.6777,-2.7281,-2.8029,-2.9044,-2.96,-3.0342,-3.1351,-3.1387,-3.2013,-3.3355,-3.3373,-3.3749,-3.4566,-3.4681,-3.4745,-3.479,-3.4901,-3.5187,-3.5502,-3.5574,-3.5857,-3.6237,-3.6619,-3.6546,-3.621,-3.6515,-3.6679,-3.6756,-3.6756,-3.6738,-3.6856,0.0,0.0,0.0,0.0,0.0,0.0,0.0,0.0,0.0,0.0,0.0,-1.4757,-1.5345,-1.5431,-1.5666,-1.6153,-1.6155,-1.6044,-1.5817,0.0,0.0,0.0,0.0,0.0,0.0,-1.7879,-1.843,-1.9109,-1.9457,-1.9782,-2.0085,-2.0499,-2.0926,-2.1323,-2.1907,-2.2456,-2.2943,-2.3518,-2.4001,-2.4335,-2.4091,-2.389,-2.3694,0.0,0.0,0.0,0.0,0.0,0.0,0.0,0.0,0.0,0.0,0.0,0.0,0.0,0.0,0.0,0.0,0.0,0.0,0.0,0.0,0.0,0.0,0.0,0.0,0.0,0.0,0.0,0.0,0.0,0.0,0.0,0.0,0.0,0.0,0.0,-2.5309,-2.6545,-2.6644,-2.6687,-2.6862,-2.6873,-2.7173,-2.7905,-2.8461,-2.9187,-3.0188,-3.076,-3.1374,-3.2063,-3.2099,-3.2741,-3.4097,-3.4115,-3.4523,-3.5307,-3.5408,-3.5508,-3.5555,-3.5688,-3.5928,-3.6326,-3.6352,-3.659,-3.6955,-3.7643,-3.7669,-3.735,-3.7387,-3.7441,-3.7495,-3.7503,-3.7503,-3.7578,0.0,0.0,0.0,0.0,0.0,0.0,0.0,0.0,0.0,0.0,-1.411,-1.4844,-1.5888,-1.5547,-1.5599,-1.6522,-1.6093,-1.5847,-1.5963,-1.5533,0.0,0.0,0.0,0.0,-1.6701,-1.7607,-1.812,-1.8266,-1.8664,-1.9043,-1.9369,-1.9929,-2.0413,-2.0926,-2.1568,-2.2192,-2.2721,-2.3277,-2.3801,-2.4321,-2.4588,-2.435,-2.3854,0.0,0.0,0.0,0.0,0.0,0.0,0.0,0.0,0.0,0.0,0.0,0.0,0.0,0.0,0.0,0.0,0.0,0.0,0.0,0.0,0.0,0.0,0.0,0.0,0.0,0.0,0.0,0.0,0.0,0.0,0.0,0.0,0.0,-2.4205,-2.5415,-2.6613,-2.7345,-2.7362,-2.7619,-2.8334,-2.8416,-2.8712,-2.9428,-2.9536,-3.0188,-3.1617,-3.1724,-3.2081,-3.2866,-3.2884,-3.3277,-3.4097,-3.4133,-3.4508,-3.5239,-3.5413,-3.5498,-3.558,-3.5627,-3.6222,-3.7126,-3.7144,-3.764,-3.851,-3.851,-3.8621,-3.8822,-3.8921,-3.8997,-3.9007,-3.9073,-3.9101,-3.9101,0.0,0.0,0.0,0.0,0.0,0.0,0.0,0.0,0.0,0.0,-1.4978,-1.5461,-1.5958,-1.6004,-1.6121,-1.6433,-1.5881,-1.5485,-1.5491,0.0,0.0,0.0,0.0,0.0,-1.6565,-1.6957,-1.7284,-1.7516,-1.7921,-1.8302,-1.8688,-1.9303,-1.9894,-2.0447,-2.1181,-2.189,-2.2512,-2.3117,-2.3656,-2.4192,-2.4556,-2.4695,-2.4631,0.0,0.0,0.0,0.0,0.0,0.0,0.0,0.0,0.0,0.0,0.0,0.0,0.0,0.0,0.0,0.0,0.0,0.0,0.0,0.0,0.0,0.0,0.0,0.0,0.0,0.0,0.0,0.0,0.0,0.0,0.0,0.0,-2.6626,-2.6577,-2.6872,-2.7357,-2.8044,-2.8108,-2.8172,-2.8309,-2.8847,-2.9267,-2.9415,-3.0451,-3.1242,-3.1596,-3.2165,-3.2574,-3.2672,-3.2672,-3.3095,-3.3962,-3.4531,-3.5242,-3.6078,-3.6755,-3.7111,-3.7252,-3.7318,-3.7546,-3.7881,-3.7947,-3.8136,-3.8415,-3.8478,-3.859,-3.8719,-3.8822,-3.8892,-3.9007,-3.9007,-3.9064,-3.9101,0.0,0.0,0.0,0.0,0.0,0.0,0.0,0.0,0.0,0.0,-1.5345,-1.5724,-1.5976,-1.6174,-1.6317,-1.638,-1.5724,-1.5401,-1.5544,0.0,0.0,0.0,0.0,-1.57,-1.5744,-1.5952,-1.617,-1.6343,-1.6828,-1.7313,-1.776,-1.8482,-1.9214,-1.9884,-2.0782,-2.1652,-2.2449,-2.3069,-2.3656,-2.4229,-2.4588,-2.4861,-2.4981,-2.4662,-2.4601,-2.4576,-2.413,-2.3729,-2.3441,-2.3429,0.0,0.0,0.0,0.0,0.0,0.0,0.0,0.0,0.0,0.0,0.0,0.0,0.0,0.0,0.0,0.0,0.0,0.0,0.0,0.0,0.0,0.0,0.0,0.0,-2.8192,-2.8664,-2.8884,-2.8605,-2.8619,-2.9268,-2.9313,-2.9257,-2.9201,-2.9572,-2.9953,-3.0279,-3.1115,-3.1724,-3.198,-3.2474,-3.269,-3.2606,-3.2606,-3.3011,-3.3842,-3.4338,-3.5029,-3.5847,-3.6399,-3.6915,-3.7344,-3.7412,-3.7695,-3.8122,-3.8207,-3.8307,-3.8368,-3.8415,-3.8528,-3.864,0.0,0.0,0.0,0.0,-3.8979,-3.9036,0.0,0.0,0.0,0.0,0.0,0.0,0.0,0.0,0.0,0.0,0.0,-1.5918,-1.6026,-1.6302,-1.6446,-1.6423,-1.5694,-1.5358,0.0,0.0,0.0,-1.496,-1.4766,-1.4606,-1.4457,-1.4687,-1.4858,-1.4949,-1.552,-1.6046,-1.6549,-1.7477,-1.8401,-1.9309,-2.0389,-2.1453,-2.2459,-2.3147,-2.3801,-2.4375,-2.47,-2.4902,-2.5019,-2.522,-2.5341,-2.5395,-2.5412,-2.4954,-2.4358,-2.4353,0.0,0.0,0.0,0.0,0.0,0.0,0.0,0.0,0.0,0.0,0.0,0.0,0.0,0.0,0.0,0.0,0.0,0.0,0.0,0.0,0.0,0.0,0.0,0.0,-2.9734,-3.0277,-3.0928,-3.0395,-3.0096,-3.0599,-3.0576,-3.0451,-3.0396,-3.0424,-3.0716,-3.1455,-3.1579,-3.1915,-3.257,0.0,0.0,0.0,0.0,-3.2908,-3.365,-3.3807,-3.4232,-3.4977,-3.5117,-3.5631,-3.6467,-3.6518,-3.7016,-3.7891,-3.7995,-3.8117,-3.8289,-3.8368,-3.8415,-3.8541,-3.8713,-3.8792,-3.8822,-3.8881,-3.891,-3.891,0.0,0.0,0.0,0.0,0.0,0.0,0.0,0.0,0.0,-1.5081,-1.6102,-1.6699,-1.6358,-1.7082,-1.7299,-1.6616,-1.5834,-1.5109,0.0,0.0,-1.4503,-1.3909,-1.3453,-1.3158,-1.3004,-1.3052,-1.3185,-1.3318,-1.3778,-1.4288,-1.4869,-1.6145,-1.733,-1.8503,-2.0045,-2.1431,-2.26,-2.3406,-2.4042,-2.4575,-2.4861,-2.5013,-2.5094,-2.5252,-2.5341,-2.5415,-2.5448,-2.5383,-2.5243,-2.5253,-2.5143,-2.4911,-2.4251,0.0,0.0,0.0,0.0,0.0,0.0,0.0,0.0,0.0,0.0,0.0,0.0,0.0,0.0,0.0,0.0,0.0,0.0,0.0,0.0,-3.0735,-3.0896,-3.1084,-3.1719,-3.1506,-3.11,-3.0528,-3.0457,-3.0379,-3.0322,-3.0889,-3.1331,-3.1491,-3.2057,-3.2431,-3.2506,-3.2523,-3.2507,-3.2457,-3.2457,-3.2544,-3.2753,-3.3422,-3.388,-3.4159,-3.4781,0.0,-3.5626,-3.5643,-3.6173,-3.7043,-3.7061,-3.754,-3.8307,-3.8322,-3.8401,-3.8541,-3.8713,-3.8792,-3.8822,-3.8881,-3.891,-3.891,0.0,0.0,0.0,0.0,0.0,0.0,0.0,0.0,0.0,0.0,-1.6358,-1.7037,-1.6646,-1.7559,-1.7898,-1.7125,-1.6129,0.0,0.0,-1.3629,-1.3165,-1.222,-1.1661,-1.1247,-1.0948,-1.0998,-1.1039,-1.1113,-1.1483,-1.1953,-1.2416,-1.3998,-1.5691,-1.7578,-1.9446,-2.1316,-2.3058,-2.382,-2.4393,-2.4818,-2.5053,-2.5192,-2.5253,-2.5322,-2.5395,-2.5456,-2.5495,-2.5498,-2.5511,-2.5531,-2.5835,-2.6139,-2.5737,-2.5898,-2.617,0.0,0.0,0.0,0.0,0.0,0.0,0.0,0.0,0.0,0.0,0.0,0.0,0.0,0.0,-2.9526,0.0,0.0,-3.1358,-3.1912,-3.2173,-3.2371,-3.2535,-3.2437,-3.217,-3.1653,-3.1505,-3.1441,-3.1409,-3.1747,-3.1961,-3.1961,-3.2296,-3.2507,-3.2439,-3.2457,-3.2422,-3.2406,-3.2406,-3.2422,-3.2457,-3.2895,-3.314,-3.3275,-3.3699,-3.4227,-3.4753,-3.4802,-3.528,-3.6149,-3.6215,-3.6566,-3.708,-3.7511,-3.799,-3.8478,-3.8603,-3.8683,-3.875,-3.878,-3.881,-3.881,0.0,0.0,0.0,0.0,0.0,0.0,0.0,0.0,0.0,0.0,-1.6476,-1.7234,-1.691,-1.7932,-1.8331,0.0,0.0,0.0,0.0,-1.2222,-1.1266,-0.9725,-0.9189,-0.8782,-0.8413,-0.8692,-0.8824,-0.8725,-0.892,-0.9208,-0.9607,-1.147,-1.383,-1.6588,-1.873,-2.1113,-2.3565,-2.4279,-2.479,-2.5094,-2.5274,-2.539,-2.5441,-2.5449,-2.5456,-2.549,-2.5499,-2.5518,-2.5537,-2.5568,-2.6187,-2.6904,-2.6899,-2.7503,-2.8198,-2.8132,-2.8126,0.0,0.0,0.0,0.0,0.0,0.0,0.0,0.0,0.0,-2.9901,-3.0418,-3.0978,-3.1579,-3.2236,-3.2739,-3.2993,-3.2893,-3.3241,-3.3433,-3.3165,-3.3042,-3.2934,-3.2773,-3.2623,-3.2489,-3.2473,-3.2422,-3.2406,-3.2406,-3.2406,-3.2406,-3.2406,-3.2406,-3.2406,-3.2406,-3.2406,-3.2406,-3.2406,-3.2439,-3.2523,-3.2606,-3.269,-3.3143,-3.3865,-3.3928,-3.4422,-3.5292,-3.5602,-3.5738,-3.5856,-3.6554,-3.7267,-3.7945,-3.8154,-3.8339,-3.8456,-3.8652,-3.8707,-3.8707,0.0,0.0,0.0,0.0,0.0,0.0,0.0,0.0,0.0,0.0,0.0,0.0,0.0,0.0,0.0,0.0,0.0,0.0,0.0,-0.9967,-0.8249,-0.5666,-0.5332,-0.5183,-0.5134,-0.6022,-0.655,-0.6728,-0.6105,-0.6102,-0.671,-0.8879,-1.1896,-1.5562,-1.7878,-2.0784,-2.3987,-2.4652,-2.5105,-2.5364,-2.5441,-2.5517,-2.5579,-2.5576,-2.5554,-2.5518,-2.5562,-2.5585,-2.5586,-2.5595,-2.6173,-2.6907,-2.6907,-2.7502,-2.8194,-2.8189,0.0,-2.8193,-2.8196,-2.8152,-2.8073,-2.8031,-2.9166,-3.0269,0.0,0.0,-3.2448,-3.2397,-3.2384,-3.2538,-3.3222,-3.3264,-3.332,-3.3783,-3.3698,-3.352,-3.3322,-3.306,-3.2852,-3.2639,-3.2606,-3.2557,-3.2422,-3.2388,-3.2406,-3.2406,-3.2406,-3.2406,-3.2406,-3.2406,-3.2406,-3.2406,-3.2406,-3.2406,-3.2406,-3.2406,-3.2473,-3.2606,-3.2606,-3.2758,-3.3009,-3.3041,-3.3566,-3.4483,-3.5381,-3.577,-3.582,-3.591,-3.6046,-3.6248,-3.702,-3.7424,-3.7625,-3.8401,-3.8707,-3.8707,0.0,0.0,0.0,0.0,0.0,0.0,0.0,0.0,0.0,0.0,0.0,0.0,0.0,0.0,0.0,0.0,0.0,0.0,-1.2188,-1.0649,-0.8724,-0.6181,-0.549,-0.5088,-0.4898,-0.5231,-0.5488,-0.5648,-0.5532,-0.5806,-0.6491,-0.8776,-1.1729,-1.519,-1.7888,-2.082,-2.3769,-2.4628,-2.515,-2.5412,-2.5512,-2.5566,-2.5601,-2.5644,-2.5637,-2.5619,-2.56,-2.5634,0.0,0.0,-2.6233,-2.7046,-2.7553,-2.8291,-2.9067,-2.9565,-2.9717,0.0,-2.9708,-2.966,-2.9738,0.0,-3.0854,-3.1458,-3.1881,-3.2837,-3.3641,-3.3527,-3.3777,-3.4086,-3.4283,-3.416,-3.4035,0.0,-3.3921,-3.3698,-3.3452,-3.3244,-3.3042,-3.2802,-3.2672,-3.2557,-3.2422,-3.2406,-3.2406,-3.2406,-3.2406,-3.2406,-3.2406,-3.2406,-3.2406,-3.2406,-3.2406,-3.2406,-3.2406,-3.2406,-3.2473,-3.2606,-3.2606,-3.2705,-3.2916,-3.2916,-3.3158,-3.3638,-3.4153,-3.4679,-3.5113,-3.5113,-3.5385,-3.5882,-3.6315,-3.6535,-3.676,-3.8169,-3.8707,-3.8707,0.0,0.0,0.0,0.0,0.0,0.0,0.0,0.0,0.0,0.0,0.0,0.0,0.0,0.0,0.0,0.0,0.0,0.0,0.0,-1.1066,-0.8948,-0.6455,-0.5559,0.0,-0.4722,-0.4688,-0.4718,-0.4828,-0.5546,-0.629,-0.7056,-0.8925,-1.159,-1.4969,-1.772,-2.0727,-2.3811,-2.4779,-2.5507,-2.5964,-2.5893,-2.5906,-2.5912,-2.574,-2.5683,-2.5683,-2.5651,-2.5658,0.0,0.0,-2.6283,-2.7151,-2.803,-2.8864,-2.9698,-3.0551,-3.0798,-3.0806,-3.0804,0.0,0.0,-3.1857,-3.2307,-3.2751,-3.3326,-3.4047,-3.4564,-3.4501,-3.486,-3.5138,-3.5018,-3.4831,-3.4626,-3.4367,-3.4154,-3.3921,-3.3661,-3.3452,-3.3244,-3.2979,-3.2802,-3.2657,-3.2525,-3.2422,-3.2406,-3.2406,-3.2406,-3.2406,-3.2406,-3.2406,-3.2406,-3.2406,-3.2406,-3.2406,-3.2406,-3.2406,-3.2473,-3.2606,-3.2606,-3.2705,-3.2916,-3.2948,-3.3042,-3.3165,-3.3334,-3.3737,-3.428,-3.428,-3.4624,-3.5168,-3.5533,-3.5666,-3.586,-3.7436,-3.8046,-3.8046,0.0,0.0,0.0,0.0,0.0,0.0,0.0,0.0,0.0,0.0,0.0,0.0,0.0,0.0,0.0,0.0,0.0,0.0,0.0,-1.0163,-0.7742,-0.5061,-0.4313,-0.3872,-0.3732,-0.4002,-0.4111,-0.4111,-0.5843,-0.7141,-0.8081,-0.8712,-1.1049,-1.4798,-1.7024,-2.0411,-2.4431,-2.5305,-2.6362,-2.7389,-2.6805,-2.6645,-2.6679,-2.5898,-2.564,-2.5697,-2.5703,0.0,0.0,0.0,-2.6288,-2.7148,-2.8027,-2.8904,0.0,-3.0558,-3.0801,-3.0804,0.0,0.0,-3.2046,-3.2013,-3.3225,-3.4412,-3.436,-3.4991,-3.5546,-3.5469,-3.5424,-3.535,-3.5216,-3.507,-3.4927,-3.4733,-3.4458,-3.4197,-3.3921,-3.3643,-3.3404,-3.3117,-3.2961,-3.2852,0.0,-3.2558,-3.2406,-3.2406,-3.2406,-3.2406,-3.2406,-3.2406,-3.2406,-3.2406,-3.2406,-3.2406,-3.2406,-3.2406,-3.2473,-3.2606,-3.2606,-3.2705,-3.2916,-3.3024,-3.3165,-3.331,-3.3382,-3.3411,-3.3447,-3.3447,-3.3447,-3.3538,-3.4459,-3.4856,-3.4947,-3.5988,-3.6376,-3.6376,0.0,0.0,0.0,0.0,0.0,0.0,0.0,0.0,0.0,0.0,0.0,0.0,0.0,0.0,0.0,0.0,0.0,0.0,0.0,-1.2708,-1.0633,-0.8501,-0.7524,-0.6887,-0.6653,-0.6503,-0.6561,-0.6881,-0.7764,-0.8678,-0.9673,-1.0988,-1.2929,-1.547,-1.7706,-2.0146,-2.2626,-2.3762,-2.4731,-2.5507,-2.5531,-2.5663,-2.5853,-2.5613,-2.5585,-2.5639,0.0,0.0,0.0,0.0,0.0,-2.6399,-2.7843,-2.8494,-2.9004,-3.039,-3.0796,-3.0806,-3.0801,0.0,-3.2233,-3.2801,-3.3755,-3.4705,-3.5208,-3.5538,-3.5718,-3.5649,-3.5585,-3.5502,-3.5411,-3.5281,-3.5138,-3.4925,-3.4714,-3.4502,-3.4269,-3.3972,-3.3698,-3.3444,-3.3208,0.0,0.0,0.0,0.0,-3.2473,-3.2422,-3.2406,-3.2406,-3.2406,-3.2406,-3.2406,-3.2406,-3.2406,-3.2406,-3.2457,-3.2489,-3.2606,-3.2737,-3.2852,-3.2979,-3.3055,-3.3165,-3.3292,-3.3382,-3.3393,-3.3393,-3.3393,-3.3393,-3.3429,-3.384,-3.3988,-3.4071,-3.4467,-3.4633,-3.4798,0.0,0.0,0.0,0.0,0.0,0.0,0.0,0.0,0.0,0.0,0.0,0.0,0.0,0.0,0.0,0.0,0.0,0.0,0.0,0.0,-1.2904,-1.1304,-1.035,-0.9643,-0.921,-0.8958,-0.8971,-0.929,-0.9703,-1.0367,-1.124,-1.2734,-1.4268,-1.596,-1.7995,-1.9928,-2.1768,-2.3005,-2.4142,-2.5129,-2.5248,-2.5459,-2.5697,-2.5534,-2.5511,0.0,0.0,0.0,0.0,0.0,0.0,0.0,-2.775,-2.8715,-2.9407,-3.0485,-3.08,-3.0878,-3.1189,-3.1903,-3.2765,-3.3653,-3.4242,-3.4735,-3.5248,-3.5139,-3.4882,-3.4858,-3.4787,-3.4729,-3.4696,-3.4583,-3.4529,-3.4699,-3.4522,-3.4415,-3.4532,-3.4232,-3.3972,-3.378,-3.3444,-3.3196,0.0,0.0,0.0,-3.2507,-3.2439,-3.2422,-3.2406,-3.2406,-3.2406,-3.2406,-3.2406,-3.2406,-3.2406,-3.2473,-3.2557,-3.269,-3.282,-3.2948,-3.3042,-3.3086,-3.3196,-3.3322,-3.3382,-3.3393,-3.3393,-3.3393,-3.3393,-3.3393,-3.352,-3.3549,-3.3577,-3.3671,-3.3909,-3.4311,0.0,0.0,0.0,0.0,0.0,0.0,0.0,0.0,0.0,0.0,0.0,0.0,0.0,0.0,0.0,0.0,0.0,0.0,0.0,0.0,0.0,-1.3259,-1.2584,-1.1948,-1.1323,-1.1199,-1.1116,-1.1116,-1.1665,-1.2159,-1.2706,-1.3831,-1.5005,-1.6311,-1.7798,-1.9707,-2.189,-2.3021,-2.4494,-2.602,-2.58,-2.5914,-2.6168,-2.5601,0.0,0.0,0.0,0.0,0.0,0.0,0.0,0.0,0.0,-2.9475,-3.081,-3.0796,-3.0825,-3.1049,-3.1874,-3.2732,-3.3604,-3.4437,-3.4583,-3.455,-3.4549,-3.3896,-3.3315,-3.3315,-3.3252,-3.3215,0.0,0.0,-3.3265,-3.401,-3.3964,-3.4037,-3.468,-3.451,-3.4245,0.0,0.0,0.0,0.0,0.0,0.0,-3.2541,0.0,-3.2473,-3.2388,-3.2406,-3.2406,-3.2406,-3.2406,-3.2406,-3.2406,-3.2473,-3.2608,-3.2823,-3.2852,-3.2979,-3.3086,-3.3086,-3.3196,-3.3411,-3.3393,-3.3393,-3.3393,-3.3393,-3.3393,-3.3411,-3.3481,-3.3509,-3.3509,-3.3613,-3.4152,-3.4827,0.0,0.0,0.0,0.0,0.0,0.0,0.0,0.0,0.0,0.0,0.0,0.0,0.0,0.0,0.0,0.0,0.0,0.0,0.0,0.0,0.0,0.0,0.0,0.0,0.0,0.0,0.0,0.0,0.0,-1.3409,-1.3978,-1.4698,-1.5576,0.0,-1.7866,-1.9192,-2.0553,-2.1744,-2.2858,-2.3856,0.0,-2.475,-2.5186,0.0,0.0,0.0,0.0,0.0,0.0,0.0,0.0,0.0,0.0,-2.9936,-3.0801,-3.0804,-3.1265,-3.1821,-3.204,-3.2733,-3.3456,-3.3671,-3.3721,-3.3701,-3.3718,-3.3528,-3.3375,-3.3375,-3.3366,-3.3336,0.0,0.0,0.0,-3.3364,-3.3786,0.0,-3.4129,-3.4396,0.0,-3.4179,0.0,-3.3587,-3.3322,-3.3152,0.0,0.0,-3.2523,-3.2473,-3.2388,-3.2406,-3.2406,-3.2406,-3.2406,-3.2422,-3.2473,-3.2641,-3.2773,-3.2852,-3.2884,-3.2948,-3.3011,-3.3073,-3.3165,-3.3322,-3.3382,-3.3393,-3.3393,-3.3393,-3.3393,-3.3411,-3.3481,-3.3509,-3.3582,-3.4251,-3.4626,-3.4991,0.0,0.0,0.0,0.0,0.0,0.0,0.0,0.0,0.0,0.0,0.0,0.0,0.0,0.0,0.0,0.0,0.0,0.0,0.0,0.0,0.0,0.0,0.0,0.0,0.0,0.0,0.0,0.0,0.0,0.0,0.0,-1.5457,-1.6064,-1.6727,-1.7814,-1.8849,-1.9889,0.0,0.0,0.0,0.0,0.0,0.0,0.0,0.0,0.0,0.0,0.0,0.0,0.0,0.0,-2.8344,-2.924,-3.0107,-3.0876,-3.125,0.0,-3.2277,-3.3027,-3.333,-3.3493,-3.3867,-3.3396,-3.2823,-3.2838,-3.2563,-3.2192,-3.1819,-3.1736,0.0,-3.1679,0.0,0.0,0.0,0.0,0.0,-3.3389,-3.3843,-3.4066,0.0,-3.3751,0.0,-3.3382,-3.3135,-3.2898,0.0,-3.2573,-3.2489,-3.2406,-3.2406,-3.2406,-3.2406,-3.2406,-3.2457,-3.2557,-3.2707,-3.2838,-3.2916,-3.2916,-3.2948,-3.3011,-3.3055,-3.3165,-3.3292,-3.3382,-3.3393,-3.3393,-3.3393,-3.3393,-3.3393,-3.3452,-3.3452,-3.3542,-3.4418,-3.4945,-3.5418,0.0,0.0,0.0,0.0,0.0,0.0,0.0,0.0,0.0,0.0,0.0,0.0,0.0,0.0,0.0,0.0,0.0,0.0,0.0,0.0,0.0,0.0,0.0,0.0,0.0,0.0,0.0,0.0,0.0,0.0,0.0,0.0,0.0,0.0,0.0,0.0,0.0,0.0,0.0,0.0,0.0,0.0,0.0,0.0,0.0,0.0,0.0,0.0,0.0,0.0,-2.8048,-2.8363,-2.9355,-3.0189,-3.0945,-3.1714,-3.2088,-3.2576,-3.3978,-3.3886,-3.3541,-3.4198,-3.3144,-3.1934,-3.1932,-3.1308,-3.0508,-2.9765,0.0,-2.9429,-2.9425,-2.9377,-2.9842,-3.1417,0.0,-3.1864,-3.2526,-3.3037,-3.322,-3.2926,-3.3257,-3.3395,-3.3201,-3.297,-3.277,-3.2573,-3.2539,-3.2489,-3.2388,-3.2388,-3.2406,-3.2406,-3.2388,-3.2473,-3.2606,-3.2722,-3.2838,-3.2916,-3.2916,-3.2916,-3.2979,-3.3073,-3.3183,-3.3262,-3.3352,-3.3393,-3.3393,-3.3393,-3.3393,-3.3393,-3.3393,-3.3393,-3.352,-3.4425,-3.5204,-3.5946,0.0,0.0,0.0,0.0,0.0,0.0,0.0,0.0,0.0,0.0,-1.9719,0.0,0.0,0.0,0.0,0.0,0.0,0.0,0.0,0.0,0.0,0.0,0.0,0.0,0.0,0.0,0.0,0.0,0.0,0.0,0.0,0.0,0.0,0.0,0.0,0.0,0.0,0.0,0.0,0.0,0.0,0.0,0.0,0.0,0.0,0.0,0.0,0.0,0.0,0.0,-2.755,-2.8468,-3.0017,-3.0625,-3.0823,-3.0984,-3.2045,-3.3083,-3.2654,-3.2979,-3.3261,-3.2682,-3.183,-3.1111,-3.1111,-3.0447,0.0,0.0,-2.9035,-2.8532,-2.8535,-2.8527,-2.8817,-2.9771,0.0,0.0,0.0,0.0,-3.2276,0.0,0.0,0.0,0.0,0.0,0.0,0.0,-3.2284,-3.2249,-3.2232,-3.2354,-3.2406,-3.2406,-3.2439,-3.2523,-3.2606,-3.2722,-3.2838,-3.2916,-3.2916,-3.2916,-3.2916,-3.2979,-3.3073,-3.3135,-3.3244,-3.3352,-3.3393,-3.3393,-3.3393,-3.3393,-3.3393,-3.3393,-3.3574,-3.5059,-3.5693,-3.6019,0.0,0.0,0.0,0.0,0.0,0.0,0.0,0.0,0.0,0.0,-1.9888,-2.046,0.0,0.0,0.0,0.0,0.0,0.0,0.0,0.0,0.0,0.0,0.0,0.0,0.0,0.0,0.0,0.0,0.0,0.0,0.0,0.0,0.0,0.0,0.0,0.0,0.0,0.0,0.0,0.0,0.0,0.0,0.0,0.0,0.0,0.0,0.0,0.0,0.0,0.0,-2.7096,-2.7776,-2.9486,-3.0354,-3.0831,-3.1298,-3.2036,-3.2728,-3.2767,-3.2742,-3.2617,-3.2207,-3.1509,-3.0771,-3.0322,0.0,0.0,0.0,-2.7913,-2.7626,-2.7616,0.0,0.0,0.0,0.0,0.0,0.0,0.0,0.0,0.0,0.0,0.0,0.0,0.0,-3.1655,-3.186,-3.1875,-3.1948,-3.2144,-3.2196,-3.2267,-3.2301,-3.2371,-3.2473,-3.2557,-3.2657,-3.2755,-3.2838,-3.2838,-3.287,-3.2916,-3.2979,-3.3042,-3.3117,-3.3262,-3.3322,-3.3393,-3.3393,-3.3393,-3.3393,-3.3393,-3.3665,-3.4172,-3.5367,-3.6073,-3.658,0.0,0.0,0.0,0.0,0.0,0.0,0.0,-1.7331,-1.8159,-1.9194,-1.9947,-2.0395,-2.048,-2.0449,-2.036,0.0,0.0,0.0,0.0,0.0,0.0,0.0,0.0,0.0,0.0,0.0,0.0,-1.6229,0.0,0.0,0.0,0.0,0.0,0.0,0.0,0.0,0.0,0.0,0.0,0.0,0.0,0.0,0.0,0.0,0.0,0.0,0.0,0.0,0.0,0.0,-2.6359,-2.6781,-2.8345,-2.9577,-3.0561,-3.1267,-3.1778,-3.2202,-3.2709,-3.2489,-3.2051,-3.1875,-3.1211,-3.0431,-2.9767,-2.932,0.0,0.0,-2.6841,-2.6729,-2.6718,0.0,0.0,0.0,0.0,0.0,0.0,0.0,0.0,0.0,0.0,0.0,0.0,0.0,0.0,-3.1325,-3.1393,-3.1617,-3.2001,-3.2054,-3.2073,-3.2144,-3.2267,-3.2388,-3.2473,-3.2557,-3.2657,-3.2773,-3.2773,-3.2838,-3.2884,-3.2948,-3.3011,-3.3117,-3.3214,-3.3322,-3.3393,-3.3393,-3.3393,-3.3393,-3.3393,-3.3791,-3.4461,-3.5457,-3.62,-3.687,0.0,0.0,0.0,0.0,0.0,0.0,0.0,-1.7653,-1.8275,-1.9892,-2.0219,-2.0334,-2.0408,-2.0455,-2.0468,0.0,0.0,0.0,0.0,0.0,0.0,0.0,0.0,0.0,0.0,0.0,0.0,-1.6649,-1.6364,0.0,0.0,0.0,0.0,0.0,0.0,-1.9011,0.0,0.0,0.0,0.0,0.0,0.0,0.0,0.0,0.0,0.0,0.0,0.0,0.0,0.0,0.0,-2.571,-2.6715,-2.8184,-2.9557,-2.9685,0.0,0.0,-3.1227,-3.1552,-3.1914,-3.1114,-3.0313,-2.9708,-2.9613,0.0,0.0,-2.7032,-2.6378,-2.5819,-2.5813,-2.5765,-2.591,0.0,0.0,-2.6639,0.0,0.0,0.0,0.0,0.0,0.0,0.0,-2.9302,0.0,-3.064,-3.0788,-3.1162,-3.1783,-3.1837,-3.1856,-3.1948,-3.2108,-3.2267,-3.2388,-3.2473,-3.2557,-3.2606,-3.274,-3.2805,-3.2805,-3.2884,-3.2979,-3.3086,-3.3117,-3.3226,-3.3393,-3.3393,-3.3393,-3.3393,-3.3393,-3.3447,-3.3701,-3.524,-3.5856,-3.6146,0.0,0.0,0.0,0.0,0.0,0.0,0.0,-1.7294,-1.8075,-1.9262,-1.9896,-2.0269,-2.032,-2.0366,-2.0405,0.0,0.0,0.0,0.0,0.0,0.0,0.0,0.0,0.0,0.0,0.0,0.0,-1.7471,-1.7915,0.0,0.0,0.0,0.0,0.0,0.0,-1.9347,-1.9681,0.0,0.0,0.0,0.0,0.0,0.0,0.0,0.0,0.0,0.0,0.0,0.0,0.0,0.0,0.0,-2.432,-2.5297,0.0,0.0,-2.9211,-2.9788,-2.9967,-2.9923,-2.9854,-2.9971,-2.9408,-2.8689,-2.8142,0.0,0.0,-2.5654,-2.5155,-2.4743,-2.4181,-2.3952,-2.4045,0.0,0.0,0.0,0.0,0.0,0.0,0.0,0.0,0.0,0.0,0.0,-2.8925,-2.9827,-3.0081,-3.0335,-3.0723,-3.1117,-3.1428,-3.1654,-3.1765,-3.1912,-3.2108,-3.2249,-3.2353,-3.2473,-3.2623,-3.2722,-3.2805,-3.2852,-3.2961,-3.3086,-3.3086,-3.3226,-3.3393,-3.3452,-3.3452,-3.3452,-3.3491,-3.3829,-3.4338,-3.4945,-3.549,-3.5999,0.0,0.0,0.0,0.0,0.0,0.0,-1.6178,-1.7044,-1.792,-1.8761,-1.9626,-2.0195,-2.0254,-2.0287,-2.0349,-2.0425,0.0,0.0,0.0,0.0,0.0,0.0,0.0,0.0,0.0,0.0,0.0,-1.8623,-1.9409,-1.972,0.0,0.0,-1.9666,-1.9485,0.0,0.0,0.0,0.0,0.0,0.0,0.0,0.0,0.0,0.0,0.0,0.0,0.0,0.0,0.0,0.0,0.0,0.0,0.0,0.0,0.0,0.0,-2.7615,-2.8017,-2.8879,-2.87,-2.8418,-2.8964,-2.8502,-2.7688,0.0,0.0,0.0,-2.4316,-2.4,-2.3764,-2.3065,-2.2755,-2.2743,0.0,0.0,-2.3631,0.0,0.0,0.0,0.0,0.0,0.0,0.0,-2.7133,-2.8124,-2.8903,-2.918,-2.9422,-2.9617,-3.014,-3.0699,-3.1235,-3.1428,-3.1617,-3.1821,-3.202,-3.2179,-3.2354,-3.2489,-3.2623,-3.274,-3.2852,-3.3011,-3.3117,-3.3147,-3.3286,-3.3422,-3.3491,-3.352,-3.352,-3.3577,-3.3952,-3.448,-3.4717,-3.5173,-3.5702,0.0,0.0,0.0,0.0,0.0,0.0,0.0,-1.7047,-1.7886,-1.8705,-1.9554,-2.0135,-2.0188,-2.0265,-2.0306,-2.0308,0.0,0.0,0.0,0.0,0.0,0.0,0.0,0.0,0.0,0.0,0.0,-2.0072,-2.0488,-2.0821,-2.1054,-2.0732,-2.0465,-2.0174,0.0,0.0,0.0,0.0,0.0,0.0,0.0,0.0,0.0,0.0,0.0,0.0,0.0,0.0,0.0,0.0,0.0,0.0,0.0,0.0,0.0,0.0,-2.6246,-2.7099,-2.798,-2.8212,-2.8189,-2.8209,-2.7618,-2.6788,0.0,0.0,-2.418,-2.3306,-2.3054,-2.2963,-2.2827,-2.2575,-2.2457,-2.2587,-2.2055,0.0,-2.3419,0.0,0.0,0.0,0.0,0.0,-2.4872,-2.6495,-2.76,-2.7898,-2.8143,0.0,-2.8685,-2.8982,-2.9617,-3.0692,-3.1117,-3.1411,-3.1617,-3.1785,-3.202,-3.2214,-3.2405,-3.2557,-3.2606,-3.2884,-3.3042,-3.3117,-3.3304,-3.3422,-3.3491,-3.3577,-3.3605,-3.3605,-3.3605,-3.3605,-3.3715,-3.4517,-3.4838,-3.5023,0.0,0.0,0.0,0.0,0.0,0.0,0.0,-1.6189,-1.7011,-1.7804,-1.8669,-1.9459,-2.0059,-2.0153,-2.0178,-2.0223,0.0,0.0,0.0,0.0,0.0,0.0,0.0,0.0,0.0,0.0,0.0,-2.0927,-2.1773,-2.2106,-2.1893,-2.1486,-2.1164,-2.0943,-2.0813,-2.0812,0.0,0.0,0.0,0.0,0.0,0.0,0.0,0.0,0.0,0.0,0.0,0.0,0.0,0.0,0.0,0.0,0.0,0.0,0.0,0.0,0.0,0.0,-2.5289,-2.5137,-2.4861,-2.5449,-2.4953,-2.4266,-2.3989,0.0,0.0,-2.2324,-2.2041,-2.1721,-2.0891,-2.0382,-2.0314,-2.0985,-2.0388,0.0,0.0,0.0,0.0,0.0,0.0,0.0,0.0,0.0,-2.6361,-2.6797,-2.7144,-2.7399,-2.7615,-2.8046,-2.881,-2.9897,-3.0393,-3.0764,-3.1044,-3.1487,-3.1802,-3.202,-3.2353,-3.2557,-3.2606,-3.2884,-3.3091,-3.3244,-3.3334,-3.3452,-3.3577,-3.3698,-3.3726,-3.3753,-3.386,-3.3868,-3.3905,-3.4163,-3.4281,-3.4397,0.0,0.0,0.0,0.0,0.0,0.0,0.0,-1.5781,-1.6595,-1.7377,-1.827,-1.9116,-1.9964,-2.0079,-2.0116,-2.0161,0.0,0.0,0.0,0.0,0.0,0.0,0.0,0.0,0.0,-2.1366,-2.1906,-2.1596,-2.2777,-2.3158,-2.2785,-2.2319,-2.2006,-2.1766,-2.1579,0.0,0.0,0.0,0.0,0.0,0.0,0.0,-2.3229,0.0,0.0,0.0,0.0,0.0,0.0,0.0,0.0,0.0,0.0,0.0,0.0,0.0,-2.0166,0.0,0.0,-2.3465,-2.3233,-2.3778,-2.3491,0.0,0.0,0.0,0.0,0.0,-2.097,-2.0584,-1.9668,-1.928,-1.925,-1.973,-1.929,0.0,0.0,0.0,0.0,0.0,0.0,0.0,0.0,-2.4768,-2.505,-2.5563,-2.5918,-2.624,-2.6534,-2.7041,-2.775,-2.8607,-2.9451,-3.0123,-3.0584,-3.1083,-3.1487,-3.1875,-3.2214,-3.2489,-3.269,-3.2997,-3.3201,-3.3352,-3.3509,-3.3605,0.0,-3.386,-3.3921,-3.3921,-3.4023,-3.4074,-3.4074,-3.4099,-3.4148,-3.4221,0.0,0.0,0.0,0.0,0.0,0.0,0.0,0.0,0.0,0.0,-1.8175,-1.902,-1.983,-2.0022,-2.0088,0.0,0.0,0.0,0.0,0.0,0.0,0.0,0.0,0.0,0.0,-2.1765,-2.2384,-2.2129,-2.3489,-2.3989,-2.3666,-2.3262,-2.2926,-2.2695,-2.2459,0.0,0.0,0.0,0.0,0.0,0.0,0.0,0.0,0.0,0.0,0.0,0.0,0.0,0.0,0.0,0.0,0.0,0.0,0.0,0.0,0.0,0.0,0.0,0.0,0.0,0.0,0.0,0.0,0.0,0.0,0.0,0.0,0.0,0.0,0.0,0.0,-1.9034,-1.9047,-1.8859,0.0,0.0,0.0,0.0,0.0,0.0,-2.1473,0.0,-2.3335,-2.3446,-2.3754,-2.4337,-2.4641,-2.498,-2.5453,-2.6054,-2.6549,-2.7004,-2.8321,-2.9406,-3.0208,-3.0584,-3.1123,-3.1763,-3.2073,-3.2405,-3.2823,-3.314,-3.3352,-3.3422,-3.3698,-3.3815,-3.386,-3.4049,-3.4124,-3.4124,-3.4197,-3.4221,-3.4245,-3.4293,-3.4363,-3.445,0.0,0.0,0.0,0.0,0.0,0.0,0.0,0.0,0.0,0.0,0.0,-1.8137,-1.8982,-1.9658,0.0,0.0,0.0,0.0,0.0,0.0,0.0,0.0,0.0,0.0,0.0,-2.1917,-2.2656,-2.2488,-2.3979,-2.4572,-2.429,-2.3933,-2.3674,-2.3494,-2.3159,0.0,0.0,0.0,0.0,0.0,0.0,0.0,0.0,0.0,0.0,0.0,-2.0187,-1.9699,0.0,0.0,0.0,0.0,0.0,0.0,0.0,0.0,-1.7321,-1.8072,-1.889,0.0,-2.0282,-2.0941,-2.1112,0.0,0.0,0.0,0.0,0.0,0.0,0.0,0.0,0.0,0.0,0.0,0.0,0.0,0.0,0.0,0.0,0.0,-2.0248,-2.0991,-2.183,-2.2237,-2.2592,-2.3015,-2.342,-2.3833,-2.4195,-2.4781,-2.5439,-2.6065,-2.696,-2.8112,-2.9451,-3.0208,-3.0845,-3.1411,-3.1948,-3.2353,-3.2639,-3.3091,-3.3393,-3.3577,-3.378,-3.3921,-3.4049,-3.4245,-3.4316,-3.434,-3.4473,-3.4539,-3.4583,-3.4602,-3.4647,-3.4732,0.0,0.0,0.0,0.0,0.0,0.0,0.0,0.0,0.0,0.0,0.0,0.0,0.0,0.0,0.0,0.0,0.0,0.0,0.0,0.0,0.0,0.0,0.0,0.0,0.0,-2.2048,-2.2854,-2.279,-2.4355,-2.5033,-2.4822,-2.4544,-2.4318,-2.4153,-2.3797,0.0,0.0,0.0,0.0,0.0,-2.3774,0.0,0.0,0.0,0.0,0.0,-2.03,-1.9543,0.0,-1.84,-1.7947,-1.7472,0.0,0.0,0.0,0.0,-1.6327,-1.6823,-1.7197,-1.8236,-1.9312,-1.9784,-2.0157,-2.0371,0.0,0.0,0.0,0.0,0.0,0.0,0.0,0.0,0.0,0.0,0.0,0.0,0.0,0.0,0.0,0.0,-1.9412,-2.012,0.0,-2.1049,-2.1416,-2.1865,-2.2286,-2.2701,-2.3195,-2.3859,-2.454,-2.5259,-2.6079,-2.7268,-2.8873,-2.9689,-3.046,-3.1218,-3.1785,-3.2335,-3.2802,-3.3196,-3.3538,-3.3753,-3.3972,-3.4148,-3.4245,-3.4495,-3.4583,-3.4602,-3.473,-3.481,-3.4849,-3.487,-3.4945,-3.5,0.0,0.0,0.0,0.0,0.0,0.0,0.0,0.0,0.0,0.0,0.0,0.0,0.0,0.0,0.0,0.0,0.0,0.0,0.0,0.0,0.0,0.0,0.0,-2.0441,-2.0577,-2.2157,-2.3043,-2.3196,-2.468,-2.5365,-2.5232,-2.5053,-2.4851,-2.4657,-2.4404,-2.4242,0.0,0.0,-2.4099,-2.4099,-2.4155,0.0,0.0,0.0,0.0,0.0,0.0,0.0,0.0,-1.7873,-1.7068,-1.6279,-1.5476,0.0,0.0,0.0,0.0,0.0,-1.6228,-1.7649,-1.8989,-1.9136,-1.9724,-2.0199,0.0,0.0,0.0,0.0,0.0,0.0,0.0,0.0,0.0,0.0,0.0,0.0,0.0,0.0,0.0,-1.8296,-1.8795,0.0,-1.9835,-1.9901,-2.0193,-2.0703,-2.1141,-2.1643,-2.2177,-2.2917,-2.3644,-2.4306,-2.5218,-2.6445,-2.7996,-2.9039,-3.0081,-3.1083,-3.1657,-3.23,-3.3006,-3.3357,-3.3671,-3.3947,-3.4221,-3.4386,-3.4476,-3.4728,-3.4849,-3.4869,-3.5001,-3.5056,-3.5073,-3.5122,-3.5187,-3.5273,0.0,0.0,0.0,0.0,0.0,0.0,0.0,0.0,0.0,0.0,0.0,0.0,0.0,0.0,0.0,0.0,0.0,0.0,0.0,0.0,0.0,0.0,-2.0186,-2.0607,-2.1391,-2.241,-2.3311,-2.4102,-2.5038,-2.5463,-2.5441,-2.5351,-2.5186,-2.4935,-2.4847,-2.4718,-2.4595,-2.4588,-2.4545,-2.45,-2.4582,0.0,0.0,0.0,0.0,0.0,0.0,0.0,0.0,-1.7946,-1.7155,-1.6339,-1.5544,0.0,0.0,0.0,0.0,0.0,-1.5463,-1.6648,-1.8035,-1.883,-1.9535,-1.9964,0.0,0.0,0.0,0.0,0.0,0.0,0.0,0.0,0.0,0.0,0.0,-1.7209,0.0,0.0,-1.7739,-1.7725,0.0,-1.8633,-1.8767,-1.9054,-1.9228,-1.9222,-1.9942,-2.0434,-2.0577,-2.1578,-2.2395,-2.2789,-2.3876,-2.4845,-2.5682,-2.8199,-2.9892,-3.0885,-3.1714,-3.2419,-3.2934,-3.3437,-3.386,-3.4173,-3.445,-3.4607,-3.4753,-3.4964,-3.5092,-3.516,-3.5229,-3.5293,-3.5335,-3.5355,-3.5397,-3.5457,0.0,0.0,0.0,0.0,0.0,0.0,0.0,0.0,0.0,0.0,0.0,0.0,0.0,0.0,0.0,0.0,0.0,0.0,0.0,0.0,0.0,0.0,-2.0078,-2.0536,-2.1482,-2.2381,-2.3302,-2.4197,-2.5059,-2.5498,-2.5504,-2.5473,-2.5391,-2.5279,-2.5192,-2.512,-2.5009,-2.5015,-2.4984,-2.4917,0.0,0.0,0.0,0.0,0.0,0.0,0.0,0.0,0.0,0.0,-1.6957,-1.5847,-1.5479,0.0,0.0,0.0,0.0,0.0,-1.5202,-1.6283,-1.7511,-1.7833,-1.8865,-1.9687,0.0,0.0,0.0,0.0,0.0,0.0,0.0,0.0,0.0,0.0,0.0,-1.6972,-1.7233,-1.7297,-1.7309,0.0,0.0,-1.7646,-1.777,-1.7694,-1.7735,-1.7904,-1.8385,-1.8848,-1.9188,-2.0011,-2.0855,-2.1567,-2.2607,-2.3744,-2.483,-2.6886,-2.8725,-3.0253,-3.1545,-3.2517,-3.3196,-3.3662,-3.4055,-3.4416,-3.467,-3.4851,-3.5018,-3.5157,-3.5254,-3.5311,-3.5369,-3.5457,-3.5502,-3.5554,-3.5588,-3.5609,0.0,0.0,0.0,0.0,0.0,0.0,0.0,0.0,0.0,0.0,0.0,0.0,0.0,0.0,0.0,0.0,0.0,0.0,0.0,0.0,-1.9982,-1.9982,-1.9971,-2.0503,-2.1627,-2.2355,-2.3265,-2.4338,-2.5074,-2.5447,-2.5488,-2.5481,-2.552,-2.5515,-2.5472,-2.5415,-2.537,-2.5355,-2.5313,-2.5264,0.0,0.0,0.0,0.0,0.0,0.0,0.0,0.0,0.0,0.0,0.0,0.0,0.0,0.0,0.0,-1.5299,-1.5263,-1.5253,-1.5299,-1.6259,-1.7224,-1.72,0.0,-1.9376,-1.909,0.0,0.0,0.0,0.0,0.0,0.0,0.0,0.0,0.0,-1.7251,-1.6884,-1.7137,-1.6951,-1.6835,-1.7019,-1.6759,-1.6637,-1.675,-1.6465,-1.6417,-1.6687,-1.7006,-1.7317,-1.7767,-1.8479,-1.9315,-2.0208,-2.1302,-2.2548,-2.398,-2.5633,-2.755,-2.9812,-3.1254,-3.2499,-3.3514,-3.3935,-3.4325,-3.4695,-3.4908,-3.5088,-3.527,-3.534,-3.5405,-3.5483,-3.5543,-3.5599,-3.5679,-3.5735,-3.576,-3.5749,0.0,0.0,0.0,0.0,0.0,0.0,0.0,0.0,0.0,0.0,0.0,0.0,0.0,0.0,0.0,0.0,0.0,0.0,0.0,0.0,-1.99,-1.99,-1.9908,-2.0698,-2.2384,-2.249,-2.334,-2.5037,-2.5165,-2.5301,-2.5414,-2.5479,-2.5528,-2.5598,-2.5586,-2.5581,-2.5562,-2.5509,-2.5479,-2.5473,-2.548,0.0,0.0,0.0,0.0,0.0,0.0,0.0,0.0,0.0,0.0,0.0,0.0,0.0,-1.5294,-1.5221,-1.5155,-1.5235,-1.578,-1.6466,-1.7132,-1.7621,0.0,0.0,-1.931,0.0,0.0,0.0,0.0,0.0,0.0,0.0,0.0,-1.7706,-1.7427,-1.7151,-1.7033,0.0,-1.6331,-1.6246,-1.5983,-1.5799,-1.5799,-1.5643,-1.5533,-1.5529,-1.5911,-1.6138,-1.6245,-1.7195,-1.7956,-1.8531,-1.9812,-2.1004,-2.217,-2.4468,-2.7001,-2.9812,-3.0988,-3.2331,-3.3795,-3.4265,-3.4655,-3.498,-3.5168,-3.536,-3.5483,-3.555,-3.5618,-3.5699,-3.5745,-3.5823,-3.5872,-3.5879,-3.5891,-3.5883,0.0,0.0,0.0,0.0,0.0,0.0,0.0,0.0,0.0,0.0,0.0,0.0,0.0,0.0,0.0,0.0,0.0,0.0,0.0,0.0,-1.9889,-1.9854,-1.9837,-2.0352,-2.148,-2.2086,-2.2943,-2.4119,-2.4759,-2.513,-2.5292,-2.5348,-2.5421,-2.5477,-2.552,-2.5548,-2.5542,-2.5502,-2.5527,-2.5551,-2.5554,-2.5564,0.0,0.0,0.0,0.0,0.0,0.0,0.0,0.0,-1.7087,-1.5979,0.0,-1.5229,-1.5231,-1.5114,-1.5354,-1.5695,-1.5839,-1.6669,-1.7512,-1.7534,0.0,0.0,0.0,0.0,0.0,0.0,0.0,0.0,0.0,0.0,0.0,-1.8277,-1.7664,-1.7137,-1.7033,-1.6497,-1.6108,-1.6208,-1.5595,-1.5196,-1.5196,-1.472,-1.4444,-1.4414,-1.4549,-1.468,-1.4777,-1.5441,-1.6088,-1.677,-1.8068,-1.9525,-2.1131,-2.3302,-2.5773,-2.8579,-3.0743,-3.2556,-3.4056,-3.4595,-3.4978,-3.5258,-3.5372,-3.5531,-3.5689,-3.5708,-3.5763,-3.5838,-3.584,-3.5885,-3.5903,-3.5958,-3.5968,-3.5958,0.0,0.0,0.0,0.0,0.0,0.0,0.0,0.0,0.0,0.0,0.0,0.0,0.0,0.0,0.0,0.0,0.0,0.0,0.0,-1.9941,-1.9866,-1.9806,-1.9776,-1.9987,-2.0467,-2.1349,-2.2342,-2.3483,-2.4441,-2.4961,-2.5049,-2.5122,-2.5206,-2.5283,-2.5337,-2.5388,-2.5415,-2.5434,-2.5481,-2.5534,-2.5537,-2.5537,0.0,0.0,0.0,0.0,0.0,0.0,0.0,0.0,-1.7621,0.0,0.0,0.0,0.0,0.0,-1.5988,-1.634,-1.6435,-1.7064,-1.7731,0.0,0.0,0.0,0.0,0.0,0.0,0.0,0.0,0.0,0.0,0.0,0.0,0.0,-1.7854,-1.7197,-1.6836,-1.6228,-1.5795,-1.5837,-1.5127,-1.4594,-1.4532,-1.3987,-1.3588,-1.3467,-1.3467,-1.3528,-1.3519,-1.3872,-1.4382,-1.5032,-1.6198,-1.7832,-1.9812,-2.2193,-2.4788,-2.7641,-3.0556,-3.2687,-3.4038,-3.4789,-3.5249,-3.5488,-3.5568,-3.5689,-3.5834,-3.583,-3.5879,-3.5934,-3.5927,-3.5931,-3.5939,-3.5988,-3.5991,-3.5996,0.0,0.0,0.0,0.0,0.0,0.0,0.0,0.0,0.0,0.0,0.0,0.0,0.0,0.0,0.0,0.0,0.0,0.0,0.0,-1.9938,-1.988,-1.9807,-1.9725,-1.9679,-1.9602,-2.0315,-2.1581,-2.34,-2.4248,-2.4704,-2.4697,-2.4828,-2.4917,-2.501,-2.5069,-2.5137,-2.5196,-2.5281,-2.5332,-2.5394,-2.5395,-2.5398,-2.5213,0.0,0.0,0.0,0.0,0.0,0.0,0.0,-1.8381,0.0,0.0,0.0,0.0,-1.7236,-1.7108,-1.7135,-1.7751,-1.7659,-1.7735,0.0,0.0,0.0,0.0,0.0,0.0,0.0,0.0,0.0,0.0,0.0,0.0,-1.8626,-1.7963,-1.719,-1.641,-1.5768,-1.5303,-1.5029,-1.4428,-1.395,-1.383,-1.3476,-1.318,-1.2805,-1.2805,-1.2674,-1.2482,-1.265,-1.294,-1.3391,-1.4291,-1.5869,-1.8102,-2.1076,-2.4115,-2.7187,-3.0503,-3.2636,-3.3642,-3.4839,-3.551,-3.5706,-3.5771,-3.5834,-3.5891,-3.5897,-3.5931,-3.6007,-3.5994,-3.5996,-3.5996,-3.5996,-3.5996,-3.5996,0.0,0.0,0.0,0.0,0.0,0.0,0.0,0.0,0.0,0.0,0.0,0.0,0.0,0.0,0.0,0.0,0.0,0.0,0.0,-1.9892,-1.9807,-1.9725,-1.9665,-1.9583,-1.9468,-2.0131,-2.1375,-2.3186,-2.3392,-2.3815,-2.4422,-2.4556,-2.4636,-2.464,-2.478,-2.4826,-2.4867,-2.4974,-2.5034,-2.5045,-2.5107,-2.5156,-2.5003,0.0,0.0,0.0,0.0,0.0,0.0,0.0,0.0,0.0,0.0,0.0,0.0,-1.6958,-1.7229,-1.7576,-1.7674,-1.7897,0.0,0.0,0.0,0.0,0.0,0.0,0.0,0.0,0.0,0.0,-1.8956,0.0,0.0,-1.8756,-1.8139,-1.7423,-1.6751,-1.6114,-1.5594,-1.5205,-1.4556,-1.407,-1.383,-1.3346,-1.2989,-1.2683,-1.2305,-1.1988,-1.1677,-1.1469,-1.1384,-1.1348,-1.1829,-1.223,-1.2626,-1.7904,-2.1103,-2.2281,-2.8826,-3.2635,-3.3921,-3.5136,-3.5716,-3.5763,-3.5834,-3.5913,-3.5964,-3.5973,-3.5976,-3.5995,-3.5993,-3.6005,-3.5991,-3.5991,-3.5991,-3.6088,0.0,0.0,0.0,0.0,0.0,0.0,0.0,0.0,0.0,0.0,0.0,0.0,0.0,0.0,0.0,0.0,0.0,0.0,0.0,0.0,-1.9738,-1.9665,-1.9569,-1.945,-1.9277,-1.9623,-2.0497,-2.1916,-2.2557,-2.3309,-2.4136,-2.4248,-2.4284,-2.43,0.0,-2.4454,-2.4519,-2.4586,-2.4644,-2.4695,-2.4743,-2.4799,-2.4695,0.0,0.0,0.0,0.0,0.0,0.0,0.0,0.0,0.0,0.0,0.0,0.0,-1.7709,-1.7896,-1.8143,-1.7986,0.0,0.0,0.0,0.0,0.0,0.0,0.0,0.0,0.0,0.0,-1.9015,-1.8768,-1.8814,0.0,-1.8574,-1.8109,-1.7534,-1.6874,-1.6285,-1.571,-1.5274,-1.4616,-1.407,-1.37,-1.3224,-1.2744,-1.2313,-1.1872,-1.1358,-1.0787,-1.0395,-0.9933,-0.94,-0.9196,-0.9595,-1.069,-1.5543,-1.9045,-2.1179,-2.773,-3.1713,-3.3338,-3.5005,-3.5769,-3.5799,-3.5879,-3.5912,-3.5955,-3.5968,-3.5962,-3.5958,-3.5965,-3.5955,-3.5953,-3.5953,-3.5953,-3.6085,0.0,0.0,0.0,0.0,0.0,0.0,0.0,0.0,0.0,0.0,0.0,0.0,0.0,0.0,0.0,0.0,0.0,0.0,0.0,0.0,-1.9655,-1.9583,-1.9453,-1.928,-1.9099,-1.8965,-1.9273,-2.0063,-2.173,-2.2968,-2.3767,-2.3899,-2.3939,-2.3943,0.0,-2.402,-2.4116,-2.4135,-2.4211,-2.4337,-2.4337,-2.4371,-2.4253,-2.2648,0.0,0.0,0.0,0.0,0.0,0.0,0.0,0.0,0.0,0.0,-1.9049,-1.8984,-1.8807,-1.8658,0.0,0.0,0.0,0.0,0.0,0.0,0.0,0.0,0.0,0.0,0.0,-1.899,-1.8508,-1.8727,-1.8783,-1.8186,-1.7932,-1.7555,-1.6847,-1.6218,-1.5706,-1.5206,-1.4554,-1.3954,-1.3468,-1.2995,-1.2472,-1.1819,-1.1384,-1.0829,-0.9958,-0.9436,-0.8592,-0.7483,-0.6647,-0.7638,-1.0614,-1.3757,-1.7593,-2.2067,-2.6863,-3.0158,-3.2048,-3.4464,-3.5646,-3.5786,-3.5853,-3.5875,-3.5872,-3.5885,-3.5892,-3.5872,-3.5891,-3.5883,-3.5883,-3.5883,-3.5883,-3.6033,0.0,0.0,0.0,0.0,0.0,0.0,0.0,0.0,0.0,0.0,0.0,0.0,0.0,0.0,0.0,0.0,0.0,0.0,0.0,0.0,-1.9518,-1.9453,-1.9266,-1.9102,-1.8948,-1.8861,-1.9144,-1.9852,-2.0934,-2.1872,0.0,0.0,0.0,-2.362,0.0,-2.3548,-2.3588,-2.3631,-2.3674,-2.3699,-2.3801,-2.3883,-2.3779,-2.2228,-2.1624,0.0,0.0,0.0,0.0,0.0,0.0,0.0,-1.8931,-1.8843,-1.8771,-1.8715,-1.8545,-1.8473,0.0,-1.907,0.0,0.0,0.0,0.0,0.0,0.0,0.0,0.0,-1.8691,-1.8466,-1.8428,-1.8182,-1.7991,-1.7896,-1.7478,-1.6996,-1.6391,-1.5859,-1.5266,-1.4695,-1.4141,-1.358,-1.3023,-1.2459,-1.1945,-1.1571,-1.0809,-1.0122,-0.9512,-0.8285,-0.7033,-0.5712,-0.5604,-0.5547,-0.5503,-1.1777,-1.5833,-1.7669,-2.4735,-2.8876,-3.0327,-3.3159,-3.4912,-3.5721,-3.5741,-3.5743,-3.5745,-3.5743,-3.5732,-3.5752,-3.5795,-3.5823,-3.5823,-3.5823,-3.5823,-3.6036,0.0,0.0,0.0,0.0,0.0,0.0,0.0,0.0,0.0,0.0,0.0,0.0,0.0,0.0,0.0,0.0,0.0,0.0,0.0,0.0,0.0,-1.9219,-1.907,-1.8914,-1.8753,-1.8696,-1.8796,-1.9084,-1.9879,0.0,0.0,0.0,0.0,-2.27,0.0,-2.2935,-2.26,-2.2606,-2.2647,-2.2647,-2.2739,-2.3021,-2.3244,-2.2107,-2.1682,-2.1488,-1.9915,0.0,0.0,0.0,0.0,0.0,0.0,0.0,-1.845,-1.8428,-1.8548,-1.878,0.0,0.0,0.0,0.0,0.0,0.0,0.0,0.0,0.0,-1.925,-1.876,-1.8351,-1.8206,-1.7922,-1.7676,-1.7508,-1.7195,-1.6822,-1.6283,-1.5763,-1.5185,-1.4566,-1.4024,-1.3476,-1.2885,-1.2214,-1.1615,-1.1229,-1.0248,-0.9361,-0.864,-0.7166,-0.5667,-0.3978,-0.4058,-0.4398,-0.5048,-1.0363,-1.4538,-1.7548,-2.3158,-2.7192,-2.9758,-3.2616,-3.4482,-3.5463,-3.5531,-3.5554,-3.5557,-3.5579,-3.562,-3.5649,-3.5689,-3.5699,-3.5708,-3.5708,-3.5718,-3.5921,0.0,0.0,0.0,0.0,0.0,0.0,0.0,0.0,0.0,0.0,0.0,0.0,0.0,0.0,0.0,0.0,0.0,0.0,0.0,0.0,0.0,0.0,-1.8896,-1.8752,-1.8584,-1.8524,-1.8388,-1.8266,0.0,0.0,0.0,0.0,0.0,-2.1739,0.0,-2.2263,-2.1771,-2.1746,-2.1746,-2.1771,-2.1804,-2.2218,-2.2685,-2.2014,-2.1753,-2.1586,-2.0157,-1.9673,-1.9565,-1.8934,0.0,0.0,0.0,0.0,-1.8543,-1.8521,-1.8898,-1.9331,0.0,0.0,0.0,0.0,0.0,0.0,0.0,0.0,0.0,-1.9487,-1.8965,-1.8425,-1.8003,-1.7803,-1.7567,-1.7077,-1.6893,-1.6604,-1.6074,-1.5563,-1.5005,-1.4387,-1.3863,-1.3324,-1.2744,-1.202,-1.1384,-1.0782,-0.9751,-0.8731,-0.7768,-0.6174,-0.4445,-0.2491,-0.28,-0.4028,-0.6131,-0.9667,-1.3876,-1.8794,-2.2251,-2.5837,-2.9413,-3.1848,-3.3654,-3.4907,-3.5032,-3.5182,-3.5353,-3.5432,-3.5489,-3.5546,-3.5565,-3.557,-3.5574,-3.5585,-3.5615,-3.5773,0.0,0.0,0.0,0.0,0.0,0.0,0.0,0.0,0.0,0.0,0.0,0.0,0.0,0.0,0.0,0.0,0.0,0.0,-1.932,0.0,0.0,-1.8824,-1.8715,-1.8603,-1.8524,-1.8388,-1.8266,0.0,0.0,0.0,0.0,0.0,0.0,-2.1344,0.0,0.0,-2.2029,-2.1973,-2.1961,-2.1961,-2.2029,-2.2107,-2.2135,-2.1468,-2.1196,-2.1104,-2.0246,-1.9965,-1.9947,-1.9969,-1.9959,0.0,0.0,0.0,-1.9911,-1.9862,-1.9857,-2.0002,0.0,0.0,0.0,0.0,0.0,0.0,0.0,0.0,0.0,0.0,-1.9064,-1.8592,-1.8082,-1.7692,-1.7261,-1.6678,-1.6215,-1.5771,-1.5315,-1.4851,-1.4333,-1.3796,-1.3283,-1.279,-1.2241,-1.1575,-1.0987,-1.0546,-0.9445,-0.836,-0.7398,-0.5631,-0.367,-0.1469,-0.3254,-0.4672,-0.5506,-1.0337,-1.4557,-1.8195,-2.2613,-2.5994,-2.8334,-2.9456,-3.132,-3.3639,-3.379,-3.4296,-3.5066,-3.5187,-3.5285,-3.536,-3.5407,-3.543,-3.5432,-3.5496,-3.5509,-3.5656,0.0,0.0,0.0,0.0,0.0,0.0,0.0,0.0,0.0,0.0,0.0,0.0,0.0,0.0,0.0,-1.8181,-1.8912,-1.9277,-1.9134,-1.8984,-1.8824,-1.8694,-1.8563,-1.8445,-1.8322,-1.8201,-1.8074,0.0,0.0,0.0,0.0,-1.8241,-1.9211,0.0,0.0,0.0,0.0,0.0,-2.1006,-2.0934,-2.1006,-2.1266,-2.1565,-2.1358,-2.1271,-2.1172,-2.0467,-2.0273,-2.0267,-1.9887,-1.9831,-1.9925,-1.9925,0.0,0.0,0.0,-2.0202,0.0,-2.1244,0.0,0.0,0.0,0.0,0.0,0.0,0.0,-2.0096,-1.9705,-1.9362,-1.8912,-1.8254,-1.776,-1.7269,-1.6723,-1.6219,-1.5736,-1.5198,-1.4697,-1.4186,-1.3658,-1.32,-1.2774,-1.2274,-1.1669,-1.1082,-1.0467,-0.9226,-0.7966,-0.6844,-0.4879,-0.2753,-0.0546,-0.2883,-0.445,-0.5067,-1.0213,-1.5103,-1.9623,-2.263,-2.4987,-2.6722,-2.765,-2.9584,-3.2277,-3.2491,-3.3164,-3.4112,-3.4243,-3.4653,-3.5193,-3.5209,-3.5273,-3.5364,-3.5379,-3.5407,-3.5493,0.0,0.0,0.0,0.0,0.0,0.0,0.0,0.0,0.0,0.0,0.0,0.0,0.0,0.0,0.0,0.0,-1.8919,-1.9153,-1.8931,-1.8824,-1.8676,-1.8522,-1.8403,-1.8281,-1.8151,-1.8005,0.0,0.0,0.0,0.0,-1.7345,-1.7232,-1.8002,0.0,-1.9979,0.0,0.0,0.0,0.0,0.0,-2.0271,-2.0575,-2.1039,-2.1135,-2.1198,-2.1165,-2.0677,-2.0589,-2.0629,-2.0086,-1.9975,-2.013,-2.0185,-2.0229,0.0,0.0,0.0,0.0,0.0,0.0,0.0,0.0,0.0,0.0,0.0,0.0,-2.0011,0.0,-1.9125,-1.8731,-1.8064,-1.7717,-1.7393,-1.6879,-1.6324,-1.5812,-1.5244,-1.4743,-1.428,-1.3763,-1.3392,-1.2949,-1.251,-1.2017,-1.1418,-1.06,-0.928,-0.7894,-0.6494,-0.43,-0.228,-0.0515,-0.2722,-0.4394,-0.5325,-1.0844,-1.5945,-2.0575,-2.2298,-2.3876,-2.5303,-2.6285,-2.8019,-3.0348,-3.1015,-3.1927,-3.2966,-3.3333,-3.3942,-3.4679,-3.4925,-3.511,-3.5229,-3.5245,-3.5293,-3.532,0.0,0.0,0.0,0.0,0.0,0.0,0.0,0.0,0.0,0.0,0.0,0.0,-1.6757,-1.7564,-1.8328,-1.8986,-1.9101,-1.9002,-1.8734,-1.8638,-1.8522,-1.831,-1.8239,0.0,-1.8005,-1.7878,0.0,0.0,0.0,0.0,-1.7199,-1.7133,-1.7775,-1.8927,-1.8959,-1.9773,-2.1039,0.0,0.0,0.0,0.0,0.0,0.0,0.0,-2.0644,-2.0744,-2.0763,-2.091,-2.1103,-2.118,-2.1258,-2.1334,-2.1532,-2.1609,-2.1609,0.0,0.0,0.0,0.0,0.0,0.0,0.0,0.0,0.0,0.0,0.0,0.0,-1.8356,-1.7867,-1.7508,-1.7224,-1.7511,-1.7625,-1.7076,-1.6454,-1.5824,-1.5357,-1.4903,-1.4441,-1.402,-1.3716,-1.342,-1.3016,-1.2589,-1.1959,-1.1057,-0.9858,-0.837,-0.6494,-0.4204,-0.2619,-0.1918,-0.332,-0.4953,-0.6783,-1.3001,-1.7409,-1.994,-2.1533,-2.2996,-2.4393,-2.5459,-2.6471,-2.7417,-2.9206,-3.065,-3.1765,-3.2728,-3.328,-3.3579,-3.4468,-3.4907,-3.502,-3.5092,-3.5108,-3.5122,0.0,0.0,0.0,0.0,0.0,0.0,0.0,0.0,0.0,0.0,0.0,0.0,0.0,-1.7851,-1.8281,-1.903,-1.8931,-1.8788,-1.8638,-1.8485,-1.8345,-1.818,-1.8053,-1.7922,-1.7743,-1.7612,0.0,0.0,0.0,-1.7166,-1.7149,-1.6873,-1.7475,-1.8752,-1.8752,-1.9514,-2.0695,-2.0577,0.0,0.0,0.0,0.0,0.0,0.0,0.0,0.0,0.0,0.0,-2.1953,-2.1718,-2.176,-2.1859,-2.1549,-2.1542,-2.165,-2.165,-2.1573,-2.1464,0.0,0.0,0.0,0.0,0.0,0.0,0.0,-1.892,-1.8765,-1.8315,-1.805,-1.7794,-1.7552,-1.7164,-1.6726,-1.6243,-1.5734,-1.5171,-1.466,-1.424,-1.3856,-1.3477,-1.3563,-1.351,-1.3155,-1.3094,-1.2628,-1.1724,-1.0297,-0.8561,-0.6474,-0.3851,-0.2272,-0.1892,-0.3074,-0.5899,-1.0465,-1.4341,-1.7201,-1.8957,-2.0691,-2.2197,-2.3389,-2.4474,-2.5496,-2.637,-2.7494,-2.8933,-3.0546,-3.1052,-3.2005,-3.3237,-3.3639,-3.4216,-3.4869,-3.4907,-3.4964,-3.5037,0.0,0.0,0.0,0.0,0.0,0.0,0.0,0.0,0.0,0.0,0.0,0.0,0.0,0.0,-1.8491,-1.893,-1.8752,-1.8601,-1.8483,-1.8325,-1.8142,-1.7988,-1.7861,-1.7704,-1.7496,-1.7384,0.0,0.0,0.0,0.0,0.0,-1.6701,-1.7157,-1.82,-1.8405,-1.9169,0.0,0.0,0.0,-1.9863,0.0,0.0,-1.9916,0.0,0.0,0.0,0.0,0.0,-2.2322,-2.2092,-2.2027,-2.1997,-2.1616,-2.1488,-2.1435,-2.1435,-2.1356,0.0,-2.123,0.0,0.0,0.0,0.0,0.0,-1.8554,0.0,-1.8197,-1.7813,-1.7635,-1.7501,-1.7273,-1.6679,-1.6183,-1.6019,-1.5535,-1.5044,-1.4631,-1.4277,-1.3945,-1.3587,-1.3792,-1.3829,-1.3466,-1.3407,-1.3037,-1.2081,-1.0499,-0.8649,-0.6401,-0.3675,-0.2213,-0.2431,-0.4504,-0.7859,-1.2534,-1.4872,-1.6766,-1.8246,-1.9949,-2.1376,-2.2472,-2.3518,-2.453,-2.5475,-2.6179,-2.7494,-2.925,-2.973,-3.0785,-3.2168,-3.2813,-3.3552,-3.429,-3.4614,-3.479,-3.4908,0.0,0.0,0.0,0.0,0.0,0.0,0.0,0.0,0.0,0.0,0.0,0.0,0.0,0.0,0.0,-1.8805,-1.8635,-1.8496,-1.8277,-1.8207,-1.8034,-1.7777,-1.7702,-1.7562,-1.7346,-1.7265,0.0,0.0,0.0,0.0,0.0,0.0,-1.6811,-1.7239,-1.7823,-1.8814,-2.0035,0.0,-1.9669,-1.9574,0.0,-1.9645,-2.0177,0.0,0.0,0.0,-2.1575,-2.1868,0.0,-2.2385,-2.2181,0.0,0.0,-2.1531,-2.1119,-2.1119,-2.1119,0.0,0.0,0.0,0.0,0.0,0.0,0.0,-1.8029,0.0,-1.7472,-1.6765,-1.6554,-1.6474,-1.634,-1.6105,-1.6054,-1.6428,-1.5991,-1.5531,-1.532,-1.5019,-1.4738,-1.452,-1.4494,-1.435,-1.3966,-1.3639,-1.3073,-1.2161,-1.0527,-0.865,-0.642,-0.3601,-0.2578,-0.3652,-0.7676,-1.0705,-1.265,-1.4532,-1.6258,-1.7777,-1.923,-2.0544,-2.1697,-2.2563,-2.349,-2.4521,-2.5227,-2.6404,-2.7824,-2.8895,-2.9628,-3.0253,-3.2029,-3.2892,-3.3269,-3.4202,-3.4607,-3.467,0.0,0.0,0.0,0.0,0.0,0.0,0.0,0.0,0.0,0.0,0.0,0.0,0.0,-2.0264,-2.0525,-2.0318,-2.0131,-1.9916,-1.9711,-1.9515,-1.9294,-1.9092,-1.8953,-1.8794,-1.8534,-1.799,0.0,0.0,0.0,0.0,0.0,0.0,0.0,0.0,-1.7137,-1.7747,-1.8917,-1.9301,0.0,-1.9228,-1.913,-1.9392,0.0,0.0,0.0,0.0,0.0,-2.2859,-2.311,-2.2924,-2.2925,-2.2829,0.0,0.0,0.0,0.0,0.0,0.0,-2.099,0.0,0.0,0.0,0.0,0.0,0.0,0.0,-1.7024,-1.6927,-1.6795,-1.6712,-1.6722,-1.6575,-1.6514,-1.6622,-1.5888,-1.5248,-1.5027,-1.4883,-1.4752,-1.468,-1.4855,-1.491,-1.4588,-1.4335,-1.3691,-1.2552,-1.066,-0.8495,-0.6013,-0.4524,-0.3614,-0.3348,-0.7617,-1.0685,-1.2177,-1.3872,-1.5308,-1.6604,-1.7969,-1.9283,-2.0521,-2.1459,-2.2457,-2.3447,-2.4358,-2.5363,-2.6437,-2.7565,-2.8642,-2.9674,-3.0483,-3.1304,-3.2164,-3.3096,-3.3571,-3.3855,0.0,0.0,0.0,0.0,0.0,0.0,0.0,0.0,0.0,0.0,0.0,0.0,0.0,0.0,-2.0983,-2.0758,-2.0535,-2.0323,-2.0119,-1.9831,-1.9595,-1.9394,-1.9272,-1.9074,-1.8872,-1.8445,0.0,0.0,0.0,0.0,0.0,0.0,0.0,0.0,0.0,0.0,0.0,0.0,0.0,0.0,-1.8827,0.0,0.0,-2.0331,-2.1111,0.0,0.0,0.0,-2.3348,-2.326,-2.3331,-2.3235,0.0,0.0,0.0,0.0,0.0,0.0,0.0,0.0,0.0,0.0,0.0,0.0,-1.7987,-1.7545,-1.7241,-1.7065,-1.7034,-1.7068,-1.7101,-1.7076,-1.7076,-1.7076,-1.6616,-1.6076,-1.5619,-1.5533,-1.5475,-1.5389,-1.5533,-1.5473,-1.5087,-1.4684,-1.3952,-1.2674,-1.0629,-0.7681,-0.383,-0.4012,-0.3904,-0.3178,-0.7573,-1.0509,-1.1692,-1.3202,-1.4417,-1.5336,-1.657,-1.7843,-1.9168,-2.008,-2.1152,-2.2321,-2.3332,-2.4302,-2.5303,-2.6319,-2.7508,-2.876,-2.9529,-3.0282,-3.1059,-3.208,-3.2601,-3.2924,0.0,0.0,0.0,0.0,0.0,0.0,0.0,0.0,0.0,0.0,0.0,0.0,0.0,0.0,0.0,-2.0973,-2.0702,-2.0416,-2.0127,-1.9794,-1.9495,-1.9267,-1.9167,-1.9005,-1.8886,-1.8747,0.0,0.0,0.0,0.0,0.0,0.0,0.0,0.0,0.0,0.0,0.0,0.0,0.0,-1.8634,-1.8517,-1.9167,0.0,0.0,-2.1027,-2.2184,-2.2463,-2.2783,-2.3083,-2.3363,-2.3402,-2.3154,-2.2648,-2.2112,0.0,0.0,-2.1179,0.0,0.0,0.0,0.0,0.0,-1.9657,0.0,-1.8178,-1.7967,-1.7829,-1.7248,-1.7272,-1.7415,-1.7356,-1.7432,-1.7507,-1.7446,-1.749,-1.7317,-1.6738,-1.6652,-1.66,-1.6486,-1.6391,-1.615,-1.562,-1.4945,-1.4026,-1.2763,-1.0134,-0.6224,-0.0833,-0.2711,-0.366,-0.3037,-0.7391,-1.0226,-1.1167,-1.2508,-1.3478,-1.4083,-1.5135,-1.6345,-1.7643,-1.8425,-1.96,-2.1075,-2.2112,-2.3186,-2.4292,-2.5112,-2.6301,-2.7724,-2.8933,-2.96,-2.9972,-3.1112,-3.1634,-3.1915,-1.5266,0.0,0.0,0.0,0.0,0.0,0.0,0.0,0.0,0.0,0.0,0.0,0.0,0.0,0.0,-2.3938,-2.3141,-2.2467,-2.2075,-2.1305,-2.067,-2.0319,-2.0238,-2.0137,-1.9986,-1.9331,0.0,0.0,0.0,0.0,0.0,0.0,0.0,0.0,0.0,0.0,0.0,0.0,0.0,-1.8321,-1.8333,-1.903,-2.0041,-2.0041,-2.0789,-2.1902,-2.2184,-2.2417,-2.2646,-2.3275,-2.329,-2.2991,-2.2964,-2.2617,-2.2251,-2.2251,-2.1823,0.0,0.0,0.0,0.0,-2.0471,-2.0034,0.0,-1.884,-1.8331,-1.7856,-1.7355,-1.7425,-1.7428,-1.6999,-1.7028,-1.6964,-1.6475,-1.6447,-1.6737,-1.7457,-1.7603,-1.7603,-1.7512,-1.7339,-1.7085,-1.6661,-1.5897,-1.4752,-1.3069,-0.8254,-0.3736,0.0141,-0.217,-0.3254,-0.2476,-0.7033,-0.9814,-1.0576,-1.1429,-1.2282,-1.3058,-1.3739,-1.4676,-1.5851,-1.6631,-1.7798,-1.9255,-2.0409,-2.1761,-2.3287,-2.4287,-2.5623,-2.7036,-2.7853,-2.8407,-2.8946,-3.0075,-3.0687,-3.1075,-1.603,0.0,0.0,0.0,0.0,0.0,0.0,0.0,0.0,0.0,0.0,0.0,0.0,0.0,0.0,0.0,-2.3842,-2.3227,-2.2879,-2.2234,-2.1594,-2.1027,-2.0833,-2.0538,-2.0061,-1.9606,0.0,0.0,0.0,0.0,0.0,0.0,0.0,0.0,0.0,0.0,0.0,0.0,-1.7497,-1.8202,-1.8161,0.0,-1.9748,-1.9836,-2.0589,-2.1616,-2.1841,-2.2137,-2.2463,-2.3038,-2.3141,-2.3131,-2.3299,-2.3011,-2.2598,-2.2692,-2.2048,-2.1358,-2.1358,-2.0899,-2.0426,-2.0577,-2.0329,0.0,0.0,-1.8984,-1.8427,-1.8037,-1.7856,-1.7759,-1.7583,-1.7366,-1.7169,-1.694,-1.6661,-1.6693,-1.7276,-1.7574,-1.7866,-1.8208,-1.8139,-1.7894,-1.7484,-1.6807,-1.4759,-1.081,-0.796,-0.4564,-0.038,-0.3105,-0.4527,-0.3914,-0.7425,-0.951,-1.0012,-1.0482,-1.1082,-1.1739,-1.2121,-1.2935,-1.4194,-1.4866,-1.6009,-1.7563,-1.889,-2.0308,-2.1865,-2.3139,-2.4523,-2.5898,-2.7029,-2.7776,-2.8353,-2.9186,-2.9683,-3.0076,-1.6783,0.0,0.0,0.0,0.0,0.0,0.0,0.0,0.0,0.0,0.0,0.0,0.0,0.0,0.0,0.0,0.0,-2.3783,-2.3422,-2.2801,-2.2136,-2.147,-2.1211,-2.0722,-1.9936,-1.9884,-1.9773,0.0,0.0,0.0,0.0,0.0,0.0,0.0,0.0,0.0,0.0,0.0,0.0,-1.8189,0.0,-1.8574,-1.9526,-1.9597,-2.0373,-2.1375,-2.1568,-2.1949,-2.2417,-2.2709,-2.2994,-2.326,-2.3421,-2.3251,-2.2957,-2.308,-2.2297,-2.1401,-2.1301,-2.0891,-2.0458,-2.0491,-2.0494,-2.0407,0.0,0.0,0.0,-1.8726,-1.843,-1.8233,-1.8153,0.0,0.0,-1.7557,0.0,0.0,0.0,-1.73,0.0,-1.8501,-1.8646,-1.8569,-1.8188,-1.7512,-1.4898,-0.9581,-0.8876,-0.6718,-0.2183,-0.4741,-0.6093,-0.5566,-0.7946,-0.9069,-0.8699,-0.8965,-0.9007,-0.8824,-0.9592,-1.0584,-1.1733,-1.2832,-1.4164,-1.5786,-1.7234,-1.8704,-2.0294,-2.1849,-2.3253,-2.4682,-2.6302,-2.7326,-2.7982,-2.8533,-2.8938,-2.9299,-1.7594,-1.7623,0.0,0.0,0.0,0.0,0.0,0.0,0.0,0.0,0.0,0.0,0.0,0.0,0.0,0.0,-2.5761,-2.499,-2.4571,-2.3041,-2.1987,-2.1609,-2.1505,-2.1089,-2.036,-2.0306,-2.0026,0.0,0.0,0.0,0.0,0.0,0.0,0.0,-1.6976,0.0,0.0,0.0,-1.765,0.0,-1.7882,-1.8419,0.0,-1.9391,-2.0127,-2.1277,-2.152,-2.1841,-2.2231,-2.2417,-2.2678,-2.2979,-2.3127,-2.326,-2.3434,-2.349,-2.3107,-2.2536,-2.2087,-2.1506,-2.0937,-2.0581,-2.0494,-2.044,-2.0143,0.0,-1.9906,-1.8977,0.0,-1.8827,-1.7715,0.0,0.0,0.0,-1.7114,-1.7186,-1.7251,-1.7303,-1.7541,-1.8093,-1.8726,-1.9012,-1.8735,-1.7743,-1.6072,-1.359,-1.1338,-0.8793,-0.5846,-0.6631,-0.6734,-0.5802,-0.811,-0.8119,-0.5553,-0.5667,-0.4615,-0.2388,-0.4984,-0.647,-0.7064,-1.0117,-1.2236,-1.3598,-1.487,-1.6639,-1.8783,-2.0234,-2.1929,-2.3766,-2.5635,-2.6869,-2.766,-2.8299,-2.8767,-2.9134,-1.8216,-1.8235,0.0,0.0,0.0,0.0,0.0,0.0,0.0,0.0,0.0,0.0,0.0,-2.7308,-2.7507,0.0,-2.6622,-2.601,-2.5531,-2.4663,0.0,-2.2706,-2.245,-2.181,-2.0775,-2.0625,-2.028,-1.9682,-1.9682,0.0,0.0,0.0,0.0,0.0,-1.8049,0.0,-1.8262,0.0,-1.7968,0.0,0.0,-1.8598,0.0,-1.9301,-2.002,-2.1131,-2.1375,-2.1616,-2.1793,-2.2091,-2.231,-2.254,-2.2723,-2.2949,-2.3172,-2.3392,-2.3061,-2.2611,-2.2146,-2.1591,-2.1013,-2.0596,-2.0561,-2.0632,-2.0718,-2.0592,-2.0294,-1.9639,0.0,0.0,0.0,0.0,0.0,0.0,-1.752,-1.7321,-1.7353,0.0,-1.8155,-1.8252,-1.8518,-1.8783,-1.9065,-1.8554,-1.6938,-1.3926,-1.3383,-1.1644,-0.8058,-0.9088,-0.9326,-0.8267,-0.7577,-0.6499,-0.5011,-0.3273,-0.2004,-0.1204,-0.2491,-0.3326,-0.3751,-0.5159,-0.7215,-0.9707,-1.0802,-1.3208,-1.648,-1.847,-2.0386,-2.2149,-2.4209,-2.5905,-2.7296,-2.8047,-2.8633,-2.9089,-1.914,0.0,0.0,0.0,0.0,0.0,0.0,0.0,0.0,0.0,0.0,0.0,-2.7771,-2.8191,-2.8241,-2.7747,-2.7304,-2.6865,-2.6398,-2.5845,-2.5042,-2.385,-2.3518,-2.2741,-2.1455,-2.1255,-2.0854,-2.0134,-1.9976,0.0,0.0,0.0,0.0,0.0,0.0,-1.876,-1.8673,0.0,-1.8202,-1.8204,-1.8365,-1.8831,-1.9476,-1.9681,-2.0266,-2.0997,-2.1229,-2.1326,-2.1423,-2.1698,-2.1949,-2.2137,-2.2417,-2.2646,-2.2859,-2.3127,-2.3008,-2.267,-2.2088,-2.1668,-2.1222,-2.0677,-2.0677,-2.0843,-2.123,-2.1133,-2.0844,-2.0475,-2.0304,0.0,0.0,0.0,0.0,0.0,0.0,-1.8048,-1.7813,-1.8306,-1.8631,-1.8465,-1.8597,-1.8912,-1.942,-1.9369,-1.8139,-1.5282,-1.567,-1.4532,-1.1084,-1.1792,-1.1753,-1.0463,-0.7467,-0.528,-0.4056,-0.0947,0.0794,0.1131,0.0189,-0.0436,-0.0807,-0.1596,-0.3371,-0.5885,-0.6611,-0.9313,-1.3382,-1.5502,-1.7961,-2.0594,-2.2873,-2.4882,-2.6655,-2.7666,-2.8394,-2.8957,-2.0517,-2.0117,0.0,0.0,0.0,0.0,0.0,0.0,0.0,-2.6791,-2.7851,-2.8443,-2.8118,-2.8576,-2.8682,-2.8208,-2.7852,-2.7488,-2.699,-2.5991,-2.5191,-2.4776,-2.4615,-2.388,-2.248,-2.2452,-2.1883,-2.0793,-2.0177,-1.9969,0.0,0.0,0.0,0.0,0.0,-1.876,-1.8673,-1.8361,-1.8202,-1.8204,-1.8365,-1.8948,-1.9839,-2.0562,-2.0861,-2.0888,-2.101,-2.1082,-2.1229,-2.1375,-2.1616,-2.1841,-2.2137,-2.2417,-2.2646,-2.2859,-2.3068,-2.3052,-2.2089,-2.1925,-2.185,-2.092,-2.0794,-2.1007,-2.1481,-2.1721,-2.1776,-2.1516,-2.1714,-2.1586,-2.0463,-2.0446,0.0,0.0,0.0,0.0,0.0,-1.8726,-1.8665,-1.8598,-1.9275,-1.9794,-1.9862,-2.0048,-1.9921,-1.9351,-1.8436,-1.7255,-1.5751,-1.4748,-1.3402,-1.1601,-0.8308,-0.4975,-0.1636,0.1583,0.4407,0.678,0.3795,0.2271,0.1962,-0.0822,-0.2293,-0.2644,-0.2673,-0.5162,-0.9302,-1.0751,-1.4375,-1.9304,-2.1863,-2.3856,-2.553,-2.7072,-2.8084,-2.8767,-2.0535,0.0,0.0,0.0,0.0,0.0,0.0,-2.617,-2.6911,-2.7211,-2.8331,-2.8973,-2.8608,-2.9453,-2.9897,-2.9375,-2.9432,-2.925,-2.8688,-2.8166,-2.7298,-2.5957,-2.5839,-2.5097,-2.3666,-2.3568,-2.3008,-2.1912,-2.1712,-2.1111,0.0,0.0,0.0,0.0,0.0,-1.876,0.0,0.0,0.0,0.0,0.0,-1.9575,-2.0437,-2.0696,-2.0775,-2.0762,-2.0875,-2.0974,-2.1023,-2.1095,-2.1326,-2.1568,-2.1746,-2.2044,-2.2402,-2.2663,-2.2934,-2.298,-2.2049,-2.1955,-2.1865,-2.0936,-2.0876,-2.1151,-2.1573,-2.1899,-2.2017,-2.1702,-2.1937,-2.1992,-2.1352,-2.0965,0.0,0.0,0.0,0.0,0.0,-1.9572,-1.9549,-1.9525,-1.9726,-1.99,-2.0029,-2.0175,-2.0158,-1.9915,-1.9258,-1.8318,-1.7096,-1.5872,-1.4453,-1.2777,-0.6979,-0.3287,-0.2044,0.309,0.5846,0.6086,0.4723,0.3929,0.3634,0.2866,0.1464,-0.037,-0.0156,-0.1919,-0.5238,-0.874,-1.1912,-1.504,-1.9679,-2.2903,-2.5164,-2.6798,-2.7893,-2.8743,-2.1574,0.0,0.0,0.0,0.0,0.0,0.0,-2.6928,-2.7578,-2.8169,-2.9301,-2.9903,-2.9534,-3.039,-3.0799,-3.0268,-3.0324,-3.0158,-2.952,-2.9262,-2.855,-2.7285,-2.7107,-2.6412,-2.5023,-2.4869,-2.4198,-2.2944,-2.2729,-2.1973,0.0,0.0,0.0,0.0,0.0,-1.8812,-1.8697,-1.8386,-1.8353,0.0,0.0,-2.0051,-2.0712,-2.0662,-2.0612,-2.0662,-2.0725,-2.0738,-2.0775,-2.0911,-2.1095,-2.1277,-2.152,-2.1841,-2.2217,-2.2586,-2.2859,-2.2893,-2.1968,-2.1979,-2.1978,-2.1023,-2.1038,-2.1388,-2.1738,-2.2073,-2.2283,-2.2216,-2.2498,-2.2641,-2.2228,-2.193,0.0,0.0,0.0,0.0,0.0,-2.0,-1.9988,-1.9971,-1.993,-1.9945,-2.004,-2.0153,-2.0196,-2.0133,-1.976,-1.9101,-1.8151,-1.697,-1.4977,-1.2013,-0.6302,-0.2527,-0.0931,0.3755,0.5697,0.4882,0.4336,0.3895,0.3613,0.3776,0.2947,0.1332,0.1825,0.0531,-0.222,-0.6208,-0.9614,-1.2885,-1.8349,-2.2283,-2.497,-2.6585,-2.7868,-2.9035,-2.3607,-2.3852,0.0,0.0,-2.4631,0.0,-2.6774,-2.7885,-2.8903,-2.9536,-3.0632,-3.1153,-3.0806,-3.1309,-3.1436,-3.0904,-3.0613,-3.0265,-2.9678,-2.9351,-2.9019,-2.8611,-2.8369,-2.7669,-2.6465,-2.6275,-2.5351,-2.3789,-2.3184,-2.2581,0.0,0.0,0.0,0.0,-1.932,0.0,-1.8784,-1.8464,-1.867,-1.9209,-1.9898,-2.0382,-2.0712,-2.0562,-2.0511,-2.0511,-2.0511,-2.0511,-2.0524,-2.0788,-2.0924,-2.1082,-2.1471,-2.1746,-2.2091,-2.2463,-2.2828,-2.2893,-2.1873,-2.2002,-2.2149,-2.1159,-2.1277,-2.1664,-2.194,-2.2287,-2.2605,-2.3045,-2.3376,-2.35,-2.3125,-2.3256,-2.2928,0.0,0.0,0.0,0.0,-2.0,-1.9966,-1.99,-1.9889,-1.9934,-1.9991,-2.006,-2.0125,-2.0182,-2.0016,-1.965,0.0,-1.8086,-1.5105,-0.9804,-0.651,-0.2838,0.1295,0.3471,0.4155,0.3445,0.273,0.2232,0.2063,0.1895,0.2004,0.2277,0.2991,0.2056,-0.0258,-0.3195,-0.7522,-1.2803,-1.7847,-2.1943,-2.5155,-2.6584,-2.8031,-2.9578,-2.4381,-2.5398,-2.6099,0.0,-2.6226,-2.6808,-2.7453,-2.8605,-2.9599,-3.0063,-3.08,-3.1303,-3.1341,-3.1934,-3.2117,-3.1607,-3.1743,-3.1656,-3.117,-3.0787,-3.0235,-2.9406,-2.9204,-2.8484,-2.7109,-2.7026,-2.6394,-2.5128,-2.448,0.0,-2.2627,0.0,0.0,0.0,0.0,0.0,-1.8812,-1.9021,-1.9473,-2.0016,-2.0141,-2.0382,-2.0712,-2.0562,-2.0511,-2.0511,-2.0511,-2.0511,-2.0524,-2.0662,-2.0848,-2.1033,-2.1375,-2.1664,-2.1949,-2.2463,-2.2828,-2.2893,-2.1913,-2.2079,-2.2243,-2.1308,-2.1325,-2.1694,-2.1998,-2.2381,-2.2764,-2.3168,-2.3531,-2.3785,-2.3934,-2.3663,-2.3101,0.0,0.0,0.0,-2.0028,-1.9958,-1.9922,-1.9908,-1.9813,-1.9794,-1.9907,-1.9991,-2.0056,-2.0122,-2.0077,-1.9878,-1.9473,-1.8618,-1.6535,-1.2921,-0.8788,-0.5296,-0.2513,0.0508,0.1764,0.1219,0.0722,0.0278,-0.0111,-0.0056,0.0,0.0,0.0609,0.0842,0.061,-0.1854,-0.6071,-1.141,-1.5783,-2.1662,-2.7763,-2.8286,-2.8924,-2.9795,-2.5387,-2.6758,-2.7776,-2.7689,-2.7908,-2.821,-2.8648,-2.9537,-3.0301,-3.0721,-3.1609,-3.2166,-3.2047,-3.267,-3.2847,-3.2342,-3.2346,-3.2176,-3.1739,-3.1409,-3.0911,-3.0236,-3.0045,-2.9391,-2.8339,-2.7939,-2.7233,-2.6139,-2.5214,0.0,-2.3325,0.0,0.0,0.0,0.0,-1.9109,-1.9255,-1.9796,-2.0185,-2.0415,-2.059,-2.0704,0.0,-2.0599,-2.0549,-2.0511,-2.0511,-2.0511,-2.0511,-2.0662,-2.0848,-2.1033,-2.1326,-2.1568,-2.1888,-2.2495,-2.2656,-2.2526,-2.1934,-2.1926,-2.1961,-2.131,-2.1419,-2.1784,-2.2118,-2.2453,-2.2816,-2.3217,-2.3553,-2.3858,-2.4192,-2.4055,-2.3592,-2.2577,-2.1339,-2.0386,-2.0012,-1.9889,-1.983,-1.977,-1.966,-1.9574,-1.9599,-1.9731,-1.9861,-1.9917,-1.9952,-1.988,-1.9653,-1.8822,-1.6598,-1.2769,-0.9939,-0.6858,-0.3497,-0.1764,-0.1042,-0.1325,-0.1605,-0.1941,-0.2275,-0.222,-0.2272,-0.2321,-0.1934,-0.1376,-0.096,-0.3539,-0.7417,-1.2341,-1.8703,-2.4435,-2.9121,-2.9406,-2.9899,-3.0601,-2.6536,-2.7931,0.0,0.0,0.0,-3.0012,-3.023,-3.059,-3.1032,-3.1583,-3.2676,-3.3241,-3.2816,-3.3326,-3.3503,-3.2951,-3.2578,-3.2231,-3.1796,-3.1509,-3.1161,-3.0881,-3.0762,-3.0293,-2.9566,-2.8828,-2.7932,-2.6832,-2.5552,0.0,0.0,0.0,0.0,0.0,0.0,0.0,0.0,-2.0662,-2.0813,-2.0704,-2.1075,-2.1095,-2.0888,-2.0736,-2.0636,-2.0562,-2.0562,-2.0524,-2.0511,-2.0662,-2.0848,-2.1033,-2.1326,-2.1616,-2.1935,-2.2526,-2.2439,-2.2113,-2.1964,-2.1763,-2.1563,-2.1279,-2.1495,-2.1886,-2.2209,-2.2515,-2.2816,-2.3217,-2.3508,-2.3795,-2.4135,-2.4317,-2.4027,-2.2752,-2.1847,-2.1053,-2.0276,-2.0108,-2.0017,-1.989,-1.9638,0.0,-1.9326,-1.946,-1.9567,-1.962,-1.9687,-1.9697,-1.9615,-1.8792,-1.6209,-1.1537,-1.0795,-0.8301,-0.3726,-0.3997,-0.4088,-0.4011,-0.4194,-0.4313,-0.4426,-0.4539,-0.4645,-0.4634,-0.4522,-0.4168,-0.394,-0.6542,-1.0143,-1.4859,-2.3743,-2.8191,-2.9687,-3.0191,-3.0909,-3.1742,-2.7926,0.0,0.0,0.0,-3.07,-3.1351,-3.2094,-3.1881,-3.1961,-3.2905,-3.3252,-3.3437,-3.3505,-3.363,-3.3503,-3.2951,-3.2687,-3.2398,-3.1981,-3.1625,-3.1379,-3.1219,-3.1073,-3.0455,-2.9192,-2.9046,-2.8355,-2.713,-2.5806,0.0,0.0,0.0,0.0,0.0,0.0,0.0,-2.1269,-2.1217,0.0,-2.1418,-2.1382,-2.118,-2.0997,-2.0934,-2.0934,-2.0898,-2.0825,-2.0675,-2.0524,-2.0775,-2.0924,-2.1082,-2.1471,-2.1746,-2.2077,-2.2572,-2.2513,-2.2307,-2.2122,-2.1941,-2.1698,-2.136,-2.1556,-2.1886,-2.2209,-2.2569,-2.2868,-2.3168,-2.3481,-2.3789,-2.4074,-2.3783,-2.3475,-2.3337,-2.2534,-2.1878,-2.166,-2.1532,-2.1406,-2.1273,-2.0498,-1.9957,-1.9866,-1.9499,-1.9243,-1.9206,-1.9269,-1.9249,-1.9133,-1.8757,-1.7127,-1.4039,-1.3367,-1.1403,-0.7983,-0.767,-0.7239,-0.6701,-0.662,-0.664,-0.6656,-0.664,-0.6849,-0.7068,-0.7009,-0.7036,-0.7169,-0.7599,-1.163,-1.8269,-2.5106,-2.8574,-2.9899,-3.096,-3.1991,-3.2895,-2.8992,0.0,0.0,0.0,-3.1581,-3.2056,-3.2932,-3.2888,-3.2904,-3.3365,-3.3727,-3.3909,-3.3815,-3.3745,-3.3555,-3.315,-3.278,-3.2492,-3.2247,-3.191,-3.1682,-3.1437,-3.1336,-3.0774,-2.9643,-2.9289,-2.8626,-2.7682,-2.6017,-2.5191,0.0,0.0,0.0,0.0,0.0,-2.1556,0.0,0.0,-2.2058,-2.1821,-2.1993,-2.1792,-2.1277,-2.1229,-2.118,-2.1082,-2.101,-2.0861,-2.0762,-2.0888,-2.0961,-2.118,-2.152,-2.1793,-2.2021,-2.223,-2.2103,-2.1843,-2.1683,-2.1506,-2.1339,-2.1358,-2.1601,-2.1928,-2.2265,-2.2569,-2.2842,-2.3144,-2.3407,-2.37,-2.4037,-2.3952,-2.3702,-2.3409,-2.2949,-2.2458,-2.1953,-2.1763,-2.1588,-2.1423,-2.087,-2.0456,-2.029,-1.9626,-1.9067,-1.8771,-1.8735,-1.8682,-1.8537,-1.8143,-1.7263,-1.5859,-1.4877,-1.3466,-1.155,-1.0742,-0.9969,-0.9284,-0.8996,-0.8802,-0.877,-0.8756,-0.8912,-0.9193,-0.9224,-0.9511,-1.0043,-1.2531,-1.6393,-2.1191,-2.5784,-2.8582,-3.0107,-3.0963,-3.2255,-3.3585,-2.9971,-3.0583,0.0,0.0,-3.2268,-3.2559,-3.3419,-3.3693,-3.374,-3.3645,-3.4136,-3.4349,-3.4,-3.3797,-3.3607,-3.3361,-3.2942,-3.2656,-3.2453,-3.2247,-3.1966,-3.1667,-3.161,-3.1135,-3.0093,-2.9544,-2.8877,-2.8091,-2.6387,-2.5482,-2.5304,0.0,0.0,0.0,0.0,0.0,-2.2098,-2.3022,-2.3076,-2.2476,-2.2853,-2.2539,-2.1794,-2.171,-2.1532,-2.1277,-2.1131,-2.1082,-2.1095,-2.0974,-2.1059,-2.1229,-2.1568,-2.171,-2.1843,-2.1873,-2.1589,-2.1227,-2.1225,-2.1061,-2.0991,-2.1293,-2.1631,-2.1986,-2.2321,-2.2525,-2.2764,-2.3095,-2.336,-2.3616,-2.3999,-2.4154,-2.4063,-2.3488,-2.3324,-2.305,-2.23,-2.2044,-2.1834,-2.1607,-2.1251,-2.0923,-2.0655,-1.9836,-1.9127,-1.8629,-1.8329,-1.8076,-1.7919,-1.7442,-1.7043,-1.6831,-1.5792,-1.489,-1.4263,-1.3191,-1.2299,-1.1522,-1.1132,-1.083,-1.0687,-1.0687,-1.0797,-1.1065,-1.124,-1.1805,-1.3017,-1.7314,-2.0567,-2.314,-2.5928,-2.8218,-2.9975,-3.0734,-3.2165,-3.3824,-3.1053,0.0,0.0,-3.2562,-3.2724,-3.3064,-3.4088,-3.435,-3.4399,-3.4399,-3.4464,-3.4399,-3.4101,-3.3949,-3.3694,-3.3346,-3.324,-3.3065,-3.2602,-3.2437,-3.2287,-3.2135,-3.2038,-3.1334,-3.0023,-2.9932,-2.9267,-2.7996,-2.7097,-2.6341,-2.571,-2.473,0.0,-2.3068,-2.3653,-2.3763,-2.3558,-2.423,-2.4305,-2.3898,-2.3955,-2.344,-2.2622,-2.2572,-2.2179,-2.1568,-2.1423,-2.1375,-2.1326,-2.1229,-2.118,-2.1277,-2.1664,-2.156,-2.1386,-2.1787,-2.1322,-2.0737,-2.1088,-2.1061,-2.0974,-2.1246,-2.1601,-2.1957,-2.2237,-2.246,-2.2685,-2.297,-2.3319,-2.366,-2.3876,-2.3978,-2.4037,-2.4003,-2.3966,-2.3812,-2.3557,-2.3408,-2.3181,-2.2867,-2.2,-2.1343,-2.107,-2.0209,-1.9522,-1.9246,-1.8252,-1.7549,-1.7296,-1.6894,-1.6659,-1.6622,-1.6159,-1.5732,-1.5348,-1.4775,-1.4075,-1.3369,-1.2851,-1.2463,-1.2209,-1.2209,-1.2355,-1.2618,-1.2861,-1.4206,-1.6323,-1.8782,-2.1061,-2.3188,-2.5297,-2.7252,-2.9112,-3.0564,-3.1976,-3.3353,-3.1596,-3.1773,-3.2095,-3.315,-3.3329,-3.3577,-3.4202,-3.4399,-3.4546,-3.4594,-3.4594,-3.4546,-3.4349,-3.4151,-3.3949,-3.3797,-3.3555,-3.3293,-3.3065,-3.2904,-3.2687,-3.2453,-3.2028,-3.1275,-3.0166,-2.9754,-2.9032,-2.802,-2.7273,-2.6788,-2.65,-2.5664,-2.4984,-2.4501,-2.4673,-2.4634,-2.4452,-2.5019,-2.4876,-2.4347,-2.4717,-2.4162,-2.3049,-2.3028,-2.254,-2.1793,-2.1712,-2.1616,-2.152,-2.1471,-2.1375,-2.1307,-2.1285,-2.1226,-2.1161,-2.0865,-2.0676,-2.061,-2.0635,-2.0798,-2.0958,-2.1293,-2.1631,-2.1957,-2.2237,-2.246,-2.2659,-2.2842,-2.3175,-2.3481,-2.3682,-2.3768,-2.3831,-2.3855,-2.3852,-2.3747,-2.3549,-2.3342,-2.3102,-2.2782,-2.2173,-2.1731,-2.1494,-2.0545,-1.9861,-1.961,-1.8864,-1.8313,-1.8008,-1.7668,-1.7532,-1.7619,-1.705,-1.6698,-1.652,-1.5874,-1.5186,-1.4479,-1.4143,-1.3805,-1.3521,-1.3521,-1.3758,-1.4236,-1.5047,-1.6383,-1.8078,-1.9809,-2.1629,-2.3466,-2.5266,-2.7068,-2.8869,-3.0375,-3.1873,-3.3284,-3.2097,-3.2275,-3.2588,-3.3511,-3.3694,-3.3848,-3.425,-3.4448,-3.4594,-3.4739,-3.4851,-3.4804,-3.4594,-3.4349,-3.4201,-3.4151,-3.3899,-3.3658,-3.3503,-3.3346,-3.3039,-3.2576,-3.2017,-3.1192,-3.0156,-2.9643,-2.8974,-2.8201,-2.7664,-2.7265,-2.7052,-2.6181,-2.5678,-2.5411,-2.5461,-2.5404,-2.5267,-2.572,-2.5632,-2.5156,-2.5535,-2.4861,-2.3589,-2.3554,-2.2901,-2.1996,-2.1902,-2.1746,-2.1664,-2.1664,-2.1616,-2.1459,-2.1043,-2.0952,-2.0867,-2.0203,-2.0185,-2.0347,-2.0323,-2.0579,-2.0974,-2.1293,-2.1631,-2.1928,-2.2209,-2.2405,-2.2569,-2.2764,-2.3045,-2.3313,-2.3481,-2.3567,-2.3611,-2.358,-2.3576,-2.3499,-2.3289,-2.307,-2.2799,-2.25,-2.2141,-2.184,-2.1573,-2.0809,-2.0225,-1.9988,-1.9562,-1.9013,-1.8408,-1.8082,-1.7999,-1.8241,-1.7622,-1.7351,-1.756,-1.6896,-1.6357,-1.5927,-1.5661,-1.5301,-1.4887,-1.498,-1.5246,-1.5725,-1.6904,-1.8096,-1.9285,-2.0584,-2.1971,-2.3538,-2.5091,-2.676,-2.8405,-2.9896,-3.1421,-3.2901,-3.2648,-3.2897,-3.3043,-3.3607,-3.3694,-3.3848,-3.425,-3.4546,-3.4756,-3.4899,-3.5152,-3.5152,-3.4739,-3.4594,-3.4448,-3.43,-3.43,-3.4201,-3.3899,-3.3745,-3.3288,-3.2434,-3.2116,-3.1369,-2.9923,-2.9842,-2.9384,-2.8573,-2.8429,-2.7994,-2.7177,-2.6228,-2.5678,-2.5426,-2.5948,-2.6094,-2.6023,-2.6541,-2.6698,-2.6481,-2.6496,-2.5606,-2.4305,-2.4305,-2.3315,-2.1996,-2.1996,-2.1902,-2.1793,-2.1793,-2.1793,-2.1697,-2.1089,-2.0717,-2.0443,-2.0088,-1.9862,-1.9812,-2.02,-2.0579,-2.0958,-2.1246,-2.154,-2.1886,-2.2135,-2.2265,-2.2405,-2.2738,-2.297,-2.3126,-2.3289,-2.336,-2.3383,-2.3313,-2.3313,-2.3217,-2.2927,-2.279,-2.2561,-2.2153,-2.1928,-2.1648,-2.1247,-2.0958,-2.0679,-2.0395,-2.0135,-1.9417,-1.8064,-1.77,-1.768,-1.8093,-1.7511,-1.7595,-1.8484,-1.7965,-1.7726,-1.7869,-1.7581,-1.7063,-1.6268,-1.656,-1.6779,-1.702,-1.8101,-1.9178,-2.0254,-2.0973,-2.2028,-2.3231,-2.4739,-2.6177,-2.7598,-2.9059,-3.0537,-3.1969,-3.2742,-3.2951,-3.315,-3.3607,-3.3848,-3.4101,-3.4497,-3.4691,-3.493,-3.5211,-3.5304,-3.535,-3.5304,-3.5071,-3.4899,-3.4851,-3.4739,-3.4594,-3.4349,-3.425,-3.3777,-3.272,-3.2158,-3.1341,-3.0132,-2.9612,-2.9077,-2.8573,-2.8589,-2.8273,-2.7735,-2.7458,-2.7158,-2.6897,-2.687,-2.6872,-2.6835,-2.6797,-2.6779,-2.6712,-2.6712,-2.579,-2.4419,-2.4419,-2.3475,-2.2137,-2.2137,-2.2044,-2.1949,-2.1949,-2.1949,-2.1838,-2.1318,-2.085,-2.0358,-1.9609,-1.956,-1.9797,-2.02,-2.0561,-2.0893,-2.1167,-2.1464,-2.1768,-2.1886,-2.2123,-2.2394,-2.2659,-2.279,-2.2893,-2.307,-2.3102,-2.3119,-2.3095,-2.307,-2.2944,-2.2738,-2.2463,-2.2169,-2.1869,-2.1951,-2.1858,-2.1523,-2.1686,-2.1713,-2.1364,-2.1174,-2.0723,-1.9882,-1.9516,-1.9549,-1.994,-1.9486,-1.9265,-1.9304,-1.8892,-1.8578,-1.8367,-1.8179,-1.7984,-1.7738,-1.7903,-1.8134,-1.8422,-1.9377,-2.0167,-2.074,-2.1661,-2.2505,-2.3378,-2.5017,-2.6207,-2.7275,-2.9069,-3.0359,-3.1333,-3.2788,-3.3058,-3.3309,-3.3694,-3.4,-3.4349,-3.4804,-3.4977,-3.5211,-3.556,-3.565,-3.5756,-3.5932,-3.5756,-3.5532,-3.5321,-3.5211,-3.5071,-3.4804,-3.4739,-3.4103,-3.2755,-3.2159,-3.1276,-3.0051,-2.9435,-2.8998,-2.8684,-2.8525,-2.8299,-2.802,-2.7955,-2.779,-2.7575,-2.7321,-2.7181,-2.7181,-2.6937,-2.6779,-2.6779,-2.6779,-2.6,-2.4797,-2.4569,-2.368,-2.2493,-2.2269,-2.2137,-2.2091,-2.2091,-2.2137,-2.2072,-2.1513,-2.1238,-2.084,-1.9802,-1.959,-1.9797,-2.02,-2.0543,-2.0843,-2.1119,-2.1388,-2.1587,-2.1768,-2.2049,-2.2366,-2.2515,-2.2605,-2.2712,-2.2842,-2.2868,-2.2893,-2.285,-2.279,-2.2668,-2.2436,-2.2186,-2.1953,-2.1933,-2.1971,-2.1967,-2.19,-2.2024,-2.2002,-2.1729,-2.153,-2.1351,-2.1163,-2.0699,-2.0541,-2.0739,-2.0344,-2.0108,-2.0075,-1.9758,-1.9529,-1.9409,-1.9107,-1.8956,-1.893,-1.9097,-1.9331,-1.9588,-2.0516,-2.1101,-2.1453,-2.22,-2.2958,-2.3747,-2.5212,-2.6291,-2.7203,-2.8889,-2.9935,-3.0616,-3.2843,-3.315,-3.345,-3.3848,-3.4151,-3.4546,-3.5041,-3.5304,-3.5605,-3.5975,-3.6165,-3.6293,-3.6544,-3.6544,-3.6318,-3.5739,-3.5667,-3.5577,-3.5383,-3.5228,-3.4376,-3.2611,-3.2243,-3.1316,-2.973,-2.9457,-2.9137,-2.8794,-2.8396,-2.8137,-2.802,-2.7855,-2.774,-2.7575,-2.7335,-2.7181,-2.7181,-2.6937,-2.6779,-2.6779,-2.6779,-2.6246,-2.534,-2.4769,-2.395,-2.3027,-2.2451,-2.2259,-2.2231,-2.2231,-2.2324,-2.2331,-2.1778,-2.1786,-2.1743,-2.0556,-2.0019,-1.9858,-2.02,-2.0475,-2.0793,-2.1119,-2.123,-2.1402,-2.1721,-2.2049,-2.2282,-2.2282,-2.2432,-2.2579,-2.2579,-2.2632,-2.2659,-2.2579,-2.2525,-2.2388,-2.2124,-2.1961,-2.196,-2.2264,-2.2088,-2.2055,-2.2377,-2.2124,-2.1864,-2.1704,-2.1451,-2.1507,-2.1946,-2.1269,-2.0882,-2.0826,-2.0384,-2.0354,-2.0767,-2.0576,-2.0609,-2.0845,-2.0219,-1.9908,-1.9908,-2.0173,-2.0375,-2.059,-2.1464,-2.1983,-2.2263,-2.2572,-2.3281,-2.4244,-2.5377,-2.638,-2.7395,-2.8653,-2.9409,-2.9924,-3.2935,-3.3346,-3.3745,-3.4151,-3.4594,-3.5024,-3.5441,-3.5711,-3.6002,-3.6426,-3.6509,-3.6632,-3.6913,-3.6952,-3.6913,-3.6776,-3.6468,-3.6148,-3.5844,-3.5728,-3.4785,-3.2896,-3.2578,-3.1606,-2.973,-2.9563,-2.9245,-2.8794,-2.8396,-2.8137,-2.802,-2.7855,-2.769,-2.7437,-2.7284,-2.713,-2.7055,-2.6884,-2.6779,-2.6779,-2.6779,-2.6246,-2.5383,-2.524,-2.4319,-2.3069,-2.2929,-2.2673,-2.237,-2.237,-2.2417,-2.254,-2.2532,-2.2278,-2.1743,-2.0556,-2.0368,-2.0481,-2.0218,-2.0441,-2.0744,-2.0925,-2.1166,-2.1448,-2.1738,-2.1857,-2.1991,-2.2163,-2.2248,-2.2304,-2.2349,-2.2377,-2.2377,-2.2377,-2.2321,-2.2192,-2.1986,-2.22,-2.2361,-2.2162,-2.2733,-2.3064,-2.2802,-2.3028,-2.3061,-2.2746,-2.26,-2.2541,-2.2595,-2.2257,-2.2022,-2.1977,-2.1703,-2.1527,-2.1539,-2.1315,-2.1143,-2.1118,-2.0935,-2.0965,-2.1192,-2.1254,-2.1397,-2.1647,-2.1974,-2.231,-2.2618,-2.2799,-2.3509,-2.4657,-2.5469,-2.652,-2.7643,-2.8607,-2.9289,-2.9798,-3.3081,-3.3555,-3.4,-3.4349,-3.4851,-3.5321,-3.5711,-3.6019,-3.6343,-3.6776,-3.6873,-3.7031,-3.7319,-3.7356,-3.7356,-3.7356,-3.697,-3.6568,-3.6233,-3.6019,-3.5203,-3.3661,-3.2956,-3.1843,-3.0271,-2.9707,-2.9137,-2.8604,-2.8299,-2.8054,-2.7905,-2.779,-2.759,-2.7401,-2.7284,-2.7144,-2.7003,-2.6846,-2.6779,-2.6779,-2.6779,-2.6404,-2.5797,-2.5526,-2.4816,-2.3884,-2.3406,-2.3031,-2.28,-2.2562,-2.2569,-2.2689,-2.2795,-2.273,-2.2395,-2.1427,-2.0985,-2.0737,-2.0594,-2.0589,-2.0677,-2.0941,-2.1183,-2.1402,-2.157,-2.1721,-2.1857,-2.1974,-2.2061,-2.2118,-2.2147,-2.2147,-2.2163,-2.2135,-2.2362,-2.2445,-2.2217,-2.2589,-2.2891,-2.2845,-2.3224,-2.3409,-2.3307,-2.34,-2.3363,-2.3127,-2.2947,-2.2812,-2.2735,-2.2569,-2.2463,-2.2417,-2.2137,-2.1996,-2.1902,-2.1712,-2.1568,-2.1471,-2.1471,-2.1568,-2.1793,-2.1841,-2.2044,-2.2278,-2.2449,-2.2678,-2.2889,-2.3113,-2.3955,-2.5167,-2.5819,-2.6857,-2.803,-2.8748,-2.9213,-2.9576,-3.3293,-3.3797,-3.425,-3.4546,-3.5041,-3.5549,-3.6019,-3.636,-3.6713,-3.7147,-3.7317,-3.7484,-3.7739,-3.7774,-3.7774,-3.7739,-3.7337,-3.693,-3.6585,-3.6276,-3.5564,-3.4486,-3.3361,-3.2167,-3.094,-2.9793,-2.8951,-2.8411,-2.8118,-2.7905,-2.779,-2.7675,-2.7539,-2.735,-2.7233,-2.713,-2.6951,-2.6846,-2.6779,-2.6779,-2.6779,-2.6606,-2.6269,-2.574,-2.5379,-2.4944,-2.3971,-2.351,-2.3316,-2.2883,-2.2807,-2.2795,-2.2841,-2.3037,-2.3201,-2.2655,-2.1853,-2.1137,-2.1218,-2.0987,-2.0769,-2.1021,-2.1183,-2.1325,-2.1386,-2.1601,-2.1768,-2.1781,-2.1982,-2.2137,-2.2107,-2.2191,-2.2245,-2.2185,-2.2642,-2.293,-2.2671,-2.3121,-2.3519,-2.3698,-2.3537,-2.355,-2.3736,-2.3584,-2.3378,-2.3228,-2.3163,-2.3022,-2.2901,-2.2801,-2.2698,-2.2559,-2.2226,-2.2044,-2.1996,-2.1841,-2.1793,-2.1841,-2.1841,-2.1949,-2.2077,-2.2217,-2.2402,-2.2646,-2.2859,-2.3024,-2.3216,-2.3523,-2.4477,-2.5786,-2.6244,-2.7273,-2.8541,-2.8982,-2.9259,-2.947,-3.3555,-3.405,-3.4594,-3.5105,-3.5577,-3.6019,-3.6451,-3.6776,-3.7147,-3.7559,-3.7739,-3.7899,-3.8189,-3.8086,-3.8018,-3.7949,-3.7685,-3.7354,-3.6948,-3.6609,-3.5847,-3.4523,-3.381,-3.2659,-3.0956,-2.9578,-2.8732,-2.8411,-2.8118,-2.7905,-2.779,-2.7675,-2.7473,-2.7233,-2.7233,-2.7078,-2.6832,-2.6779,-2.6779,-2.6779,-2.6779,-2.6659,-2.6457,-2.6357,-2.5893,-2.5317,-2.5132,-2.4461,-2.3626,-2.3525,-2.3245,-2.2902,-2.3007,-2.3171,-2.329,-2.3404,-2.3047,-2.254,-2.2079,-2.1792,-2.1537,-2.1182,-2.1167,-2.1262,-2.1355,-2.1526,-2.165,-2.1708,-2.2264,-2.2756,-2.271,-2.3142,-2.3506,-2.3424,-2.3506,-2.3505,-2.3284,-2.3777,-2.4026,-2.3723,-2.3955,-2.4013,-2.3681,-2.3881,-2.3994,-2.3792,-2.4173,-2.4393,-2.4379,-2.3751,-2.3355,-2.334,-2.2686,-2.2231,-2.1996,-2.1841,-2.1902,-2.2137,-2.2137,-2.2278,-2.2509,-2.2572,-2.2709,-2.2859,-2.3127,-2.3348,-2.3551,-2.3839,-2.4844,-2.6289,-2.6557,-2.7621,-2.9045,-2.935,-2.956,-2.9766,-3.3848,-3.4399,-3.4947,-3.5412,-3.5844,-3.6301,-3.6678,-3.7091,-3.7485,-3.781,-3.802,-3.8174,-3.8354,-3.8271,-3.8171,-3.8068,-3.7792,-3.7411,-3.6974,-3.6533,-3.5891,-3.5009,-3.4034,-3.272,-3.0975,-3.0174,-2.9419,-2.8702,-2.8601,-2.8253,-2.7675,-2.7625,-2.7473,-2.7181,-2.7181,-2.7026,-2.6779,-2.6779,-2.6779,-2.6779,-2.6779,-2.6712,-2.651,-2.651,-2.6232,-2.5869,-2.5578,-2.5178,-2.4624,-2.4076,-2.3749,-2.3489,-2.3274,-2.329,-2.3451,-2.3566,-2.3398,-2.3029,-2.2493,-2.2373,-2.2362,-2.2269,-2.2274,-2.2375,-2.2508,-2.2606,-2.2704,-2.2736,-2.3063,-2.3309,-2.3293,-2.3556,-2.3736,-2.3651,-2.3943,-2.4083,-2.3851,-2.4425,-2.4668,-2.4225,-2.4225,-2.4288,-2.4265,-2.4207,-2.4288,-2.4528,-2.4655,-2.4681,-2.4681,-2.4345,-2.3966,-2.3607,-2.2883,-2.2463,-2.2324,-2.2278,-2.2278,-2.2417,-2.2449,-2.2572,-2.2768,-2.2949,-2.3113,-2.329,-2.3581,-2.3754,-2.3909,-2.4151,-2.5161,-2.6601,-2.682,-2.7889,-2.9335,-2.9665,-2.987,-3.0087,-3.4101,-3.4739,-3.5304,-3.565,-3.6114,-3.6557,-3.6995,-3.7431,-3.7792,-3.8052,-3.8238,-3.8387,-3.8415,-3.8354,-3.8223,-3.8052,-3.7703,-3.7299,-3.6838,-3.6266,-3.5749,-3.5333,-3.3902,-3.2514,-3.1174,-3.0798,-3.0151,-2.9286,-2.9234,-2.8858,-2.8141,-2.809,-2.7861,-2.7454,-2.7454,-2.7225,-2.6846,-2.6779,-2.6779,-2.6779,-2.6779,-2.6712,-2.6578,-2.6578,-2.6486,-2.639,-2.6021,-2.585,-2.5561,-2.482,-2.4491,-2.4288,-2.3762,-2.3644,-2.3747,-2.3713,-2.3644,-2.3498,-2.297,-2.3007,-2.3158,-2.3179,-2.3237,-2.3342,-2.3462,-2.3531,-2.3583,-2.3583,-2.3782,-2.3964,-2.3914,-2.4061,-2.4141,-2.4088,-2.4489,-2.4786,-2.4686,-2.5198,-2.5425,-2.5123,-2.4932,-2.4851,-2.5032,-2.4894,-2.4897,-2.5282,-2.5276,-2.5228,-2.5178,-2.5034,-2.4621,-2.3811,-2.3037,-2.2615,-2.2615,-2.2601,-2.2646,-2.2692,-2.2754,-2.2889,-2.3038,-2.326,-2.348,-2.3696,-2.3967,-2.4135,-2.4261,-2.4653,-2.5639,-2.6879,-2.7311,-2.8339,-2.9665,-3.0,-3.0231,-3.0384,-3.4349,-3.4961,-3.5498,-3.5968,-3.6498,-3.7034,-3.7503,-3.7774,-3.8052,-3.835,-3.8446,-3.8478,-3.8491,-3.8387,-3.8207,-3.7934,-3.7429,-3.6952,-3.6568,-3.5871,-3.5316,-3.5021,-3.3405,-3.2187,-3.1548,-3.0928,-3.0433,-3.0112,-2.997,-2.9849,-2.9629,-2.9537,-2.9047,-2.8307,-2.8187,-2.7703,-2.7003,-2.6846,-2.6779,-2.6779,-2.6779,-2.6779,-2.6779,-2.6779,-2.6779,-2.6779,-2.6841,-2.6484,-2.5994,-2.6056,-2.5678,-2.5121,-2.4563,-2.4447,-2.4433,-2.4079,-2.423,-2.4371,-2.3709,-2.3768,-2.3867,-2.3343,-2.3237,-2.3342,-2.3462,-2.3531,-2.3583,-2.3583,-2.419,-2.4683,-2.4577,-2.5098,-2.5517,-2.5438,-2.5503,-2.5686,-2.6094,-2.6182,-2.6306,-2.6514,-2.643,-2.618,-2.5788,-2.6174,-2.6273,-2.5971,-2.6506,-2.6753,-2.6649,-2.6054,-2.5203,-2.4136,-2.325,-2.2735,-2.2615,-2.2678,-2.2754,-2.2889,-2.3038,-2.3216,-2.3466,-2.3523,-2.3739,-2.3982,-2.4193,-2.4385,-2.4636,-2.5538,-2.6398,-2.727,-2.8265,-2.9205,-3.0017,-3.0342,-3.0576,-3.0804,-3.4706,-3.5316,-3.5915,-3.6433,-3.6917,-3.7339,-3.7774,-3.8119,-3.8382,-3.8546,-3.8621,-3.8652,-3.864,-3.8368,-3.807,-3.7792,-3.715,-3.6597,-3.6139,-3.5407,-3.4723,-3.4218,-3.332,-3.2619,-3.2261,-3.189,-3.1428,-3.0815,-3.0762,-3.0441,-2.9818,-2.9726,-2.9484,-2.9015,-2.8545,-2.8075,-2.7574,-2.7126,-2.6899,-2.6779,-2.6779,-2.6779,-2.6779,-2.6779,-2.6846,-2.6951,-2.7003,-2.6879,-2.6688,-2.6406,-2.6243,-2.6012,-2.5497,-2.5364,-2.5455,-2.5465,-2.5694,-2.5768,-2.5133,-2.4902,-2.4792,-2.4559,-2.4606,-2.4754,-2.4806,-2.4827,-2.4827,-2.4827,-2.5074,-2.5269,-2.5232,-2.5443,-2.5637,-2.5616,-2.5988,-2.6299,-2.6302,-2.6677,-2.692,-2.6701,-2.6585,-2.6517,-2.6641,-2.663,-2.6703,-2.6956,-2.7085,-2.7093,-2.7026,-2.641,-2.5824,-2.5404,-2.4725,-2.3946,-2.3053,-2.3038,-2.3127,-2.3275,-2.3392,-2.3566,-2.3812,-2.3967,-2.4135,-2.4333,-2.4605,-2.4766,-2.4934,-2.5926,-2.6775,-2.7605,-2.854,-2.9466,-3.0342,-3.0576,-3.0821,-3.1078,-3.4688,-3.5525,-3.6301,-3.6834,-3.7243,-3.7703,-3.8086,-3.8382,-3.859,-3.875,-3.8792,-3.8762,-3.8627,-3.8252,-3.7862,-3.7541,-3.6821,-3.619,-3.5732,-3.4849,-3.4101,-3.3555,-3.3134,-3.2812,-3.2523,-3.2453,-3.2112,-3.1558,-3.1558,-3.1165,-3.0546,-3.0507,-3.0277,-2.9779,-2.9083,-2.8521,-2.8071,-2.7334,-2.6951,-2.6846,-2.6832,-2.6779,-2.6779,-2.6846,-2.6899,-2.7003,-2.7107,-2.7196,-2.7225,-2.6932,-2.6916,-2.6879,-2.6346,-2.6138,-2.6153,-2.6423,-2.6601,-2.6682,-2.6351,-2.5941,-2.5566,-2.5342,-2.5448,-2.5616,-2.5616,-2.5616,-2.5616,-2.5616,-2.5616,-2.5616,-2.5616,-2.5616,-2.5697,-2.5924,-2.6377,-2.6767,-2.6983,-2.7422,-2.7662,-2.7491,-2.7328,-2.7303,-2.7547,-2.7306,-2.7244,-2.7645,-2.7423,-2.7284,-2.7218,-2.6855,-2.6515,-2.6308,-2.6024,-2.5297,-2.4164,-2.406,-2.3971,-2.3895,-2.4011,-2.4079,-2.4109,-2.4276,-2.4482,-2.4661,-2.4886,-2.5211,-2.5623,-2.6487,-2.7357,-2.8233,-2.9132,-2.9914,-3.0593,-3.0838,-3.1078,-3.1346,-3.4208,-3.5472,-3.6591,-3.7013,-3.754,-3.8038,-3.835,-3.8578,-3.875,-3.8881,-3.8833,-3.8683,-3.8415,-3.8034,-3.7613,-3.7129,-3.6374,-3.5688,-3.5224,-3.4134,-3.3398,-3.3112,-3.2757,-3.2523,-3.2398,-3.2398,-3.2398,-3.2398,-3.2247,-3.2191,-3.2191,-3.2038,-3.1576,-3.0784,-2.9988,-2.9167,-2.8337,-2.7386,-2.7018,-2.7003,-2.6846,-2.6779,-2.6832,-2.6951,-2.7003,-2.7055,-2.7299,-2.7401,-2.7452,-2.769,-2.779,-2.772,-2.7185,-2.675,-2.6454,-2.666,-2.6808,-2.6954,-2.7179,-2.6755,-2.615,-2.5486,-2.5464,-2.5616,-2.5616,-2.5616,-2.5616,-2.5616,-2.5616,-2.5616,-2.5616,-2.5616,-2.5859,-2.6571,-2.6701,-2.7163,-2.8426,-2.8474,-2.8598,-2.9042,-2.892,-2.87,-2.846,-2.8299,-2.8088,-2.784,-2.7675,-2.7473,-2.7233,-2.7473,-2.7325,-2.6617,-2.6877,-2.6701,-2.6047,-2.5755,-2.5317,-2.4836,-2.5087,-2.4909,-2.4317,-2.4457,-2.4701,-2.5005,-2.5005,-2.5639,-2.674,-2.7413,-2.8249,-2.9214,-3.0146,-3.0551,-3.0733,-3.1072,-3.1325,-3.1555,-3.4542,-3.5359,-3.6247,-3.7342,-3.7827,-3.8219,-3.8546,-3.8792,-3.8939,-3.895,-3.8881,-3.8683,-3.8415,-3.7879,-3.7301,-3.6781,-3.595,-3.5005,-3.4068,-3.3487,-3.3096,-3.2757,-3.2648,-3.2523,-3.2398,-3.2398,-3.2398,-3.2398,-3.2342,-3.2287,-3.2191,-3.2135,-3.1987,-3.1607,-3.0815,-3.0003,-2.9182,-2.8314,-2.7661,-2.713,-2.7078,-2.7078,-2.7078,-2.713,-2.7196,-2.7299,-2.735,-2.7503,-2.769,-2.779,-2.794,-2.8107,-2.8134,-2.8092,-2.8124,-2.8216,-2.8369,-2.8365,-2.8069,-2.7939,-2.7618,-2.6438,-2.5857,-2.5616,-2.5616,-2.5616,-2.5616,-2.5616,-2.5616,-2.5616,-2.5616,-2.6037,-2.6442,-2.6652,-2.7527,-2.8262,-2.8555,-2.8922,-2.9127,-2.9106,-2.8982,-2.8795,-2.87,-2.8444,-2.8299,-2.825,-2.8005,-2.7855,-2.7755,-2.7855,-2.7815,-2.7618,-2.7735,-2.7789,-2.7701,-2.6503,-2.5864,-2.5937,-2.5997,-2.5803,-2.5347,-2.5487,-2.5384,-2.5068,-2.5333,-2.5928,-2.6779,-2.7676,-2.8589,-2.9452,-3.0327,-3.0733,-3.0935,-3.1196,-3.1368,-3.1538,-3.3962,-3.5053,-3.6162,-3.7183,-3.7884,-3.8428,-3.8762,-3.8939,-3.9007,-3.9036,-3.8892,-3.8652,-3.8318,-3.7703,-3.7094,-3.6457,-3.5374,-3.4317,-3.3503,-3.3096,-3.2881,-3.2703,-3.2648,-3.2578,-3.2453,-3.2453,-3.2523,-3.2594,-3.2594,-3.2539,-3.2358,-3.2358,-3.2262,-3.2064,-3.1283,-3.0507,-2.9696,-2.8861,-2.8033,-2.7372,-2.7233,-2.7181,-2.7233,-2.7284,-2.7335,-2.7401,-2.7503,-2.764,-2.784,-2.794,-2.8137,-2.8381,-2.8525,-2.8716,-2.8858,-2.8967,-2.9059,-2.9118,-2.8901,-2.8714,-2.841,-2.7598,-2.6726,-2.6053,-2.6053,-2.5826,-2.5616,-2.5616,-2.5616,-2.5697,-2.5988,-2.6409,-2.6879,-2.7429,-2.8239,-2.8887,-2.9092,-2.938,-2.9518,-2.9275,-2.9075,-2.9046,-2.9264,-2.9088,-2.9036,-2.9249,-2.8885,-2.8599,-2.8534,-2.8339,-2.825,-2.825,-2.8396,-2.8493,-2.8556,-2.758,-2.7057,-2.6915,-2.6976,-2.6736,-2.632,-2.6404,-2.6188,-2.5734,-2.6234,-2.6763,-2.7359,-2.8316,-2.9218,-3.0011,-3.0606,-3.0935,-3.1095,-3.1291,-3.1445,-3.1614,-3.2852,-3.4619,-3.6185,-3.6757,-3.7717,-3.8573,-3.8942,-3.8989,-3.9036,-3.9101,-3.8921,-3.8572,-3.8135,-3.7524,-3.6825,-3.6079,-3.4721,-3.3694,-3.3309,-3.2866,-3.2703,-3.2843,-3.2718,-3.2648,-3.2648,-3.2648,-3.2718,-3.2897,-3.2897,-3.2843,-3.2648,-3.2648,-3.2484,-3.2216,-3.1619,-3.0823,-2.9963,-2.9117,-2.8284,-2.7625,-2.7386,-2.7233,-2.7284,-2.7401,-2.7401,-2.7437,-2.769,-2.779,-2.784,-2.8137,-2.8429,-2.8636,-2.8621,-2.8795,-2.8967,-2.9075,-2.9213,-2.9396,-2.9637,-2.9215,-2.8759,-2.8887,-2.7867,-2.6863,-2.6798,-2.6231,-2.5713,-2.5713,-2.5713,-2.5907,-2.6571,-2.6798,-2.73,-2.8579,-2.8854,-2.9113,-2.9821,-2.977,-2.9653,-2.9518,-2.9339,-2.9422,-2.9989,-2.9937,-3.012,-3.0561,-3.0064,-2.9673,-2.9508,-2.9022,-2.8714,-2.8714,-2.8763,-2.8794,-2.8794,-2.8842,-2.8514,-2.7796,-2.7964,-2.7737,-2.7189,-2.7301,-2.7128,-2.6726,-2.7413,-2.7939,-2.8372,-2.9185,-2.9978,-3.0733,-3.0935,-3.1112,-3.123,-3.144,-3.1538,-3.1654,-3.3138,-3.4056,-3.5169,-3.6803,-3.7539,-3.8153,-3.8934,-3.9129,-3.9129,-3.9101,-3.8785,-3.8396,-3.7929,-3.719,-3.6399,-3.5644,-3.435,-3.3414,-3.3005,-3.2897,-3.2773,-3.2648,-3.2773,-3.2881,-3.2989,-3.2881,-3.2843,-3.2897,-3.2897,-3.2897,-3.2843,-3.2843,-3.2718,-3.2523,-3.2259,-3.1413,-3.0136,-2.9841,-2.8994,-2.7905,-2.774,-2.769,-2.764,-2.759,-2.7575,-2.7575,-2.774,-2.7855,-2.8005,-2.8381,-2.8636,-2.8794,-2.8842,-2.9013,-2.9198,-2.9259,-2.9457,-2.9637,-2.9697,-2.9673,-2.9632,-2.9632,-2.8984,-2.819,-2.7608,-2.696,-2.6458,-2.6458,-2.6458,-2.6506,-2.6668,-2.7591,-2.8433,-2.8741,-2.9259,-2.974,-2.9902,-2.977,-2.9697,-2.9653,-2.9922,-3.018,-3.0291,-3.0557,-3.072,-3.0775,-3.06,-3.0522,-3.0522,-2.9884,-2.9559,-2.9559,-2.9124,-2.8873,-2.8873,-2.9075,-2.8996,-2.8638,-2.8762,-2.8553,-2.8037,-2.8222,-2.7991,-2.7478,-2.7785,-2.8434,-2.9251,-2.9463,-3.0106,-3.0935,-3.0975,-3.1117,-3.1312,-3.1423,-3.1538,-3.1654,-3.2739,-3.3659,-3.479,-3.6395,-3.7243,-3.8035,-3.8998,-3.9129,-3.9045,-3.8942,-3.8597,-3.815,-3.7578,-3.6865,-3.5959,-3.488,-3.3933,-3.3309,-3.3005,-3.2966,-3.2897,-3.2812,-3.2935,-3.3058,-3.3203,-3.3096,-3.3096,-3.3096,-3.3096,-3.3058,-3.3005,-3.3005,-3.2897,-3.2718,-3.2578,-3.1713,-3.0397,-3.0204,-2.9322,-2.8103,-2.7955,-2.7905,-2.7905,-2.784,-2.779,-2.779,-2.794,-2.8103,-2.825,-2.8493,-2.8684,-2.8826,-2.8873,-2.9106,-2.9305,-2.9366,-2.9547,-2.9697,-2.9786,-2.9874,-2.9918,-2.9918,-2.9626,-2.9113,-2.8385,-2.7672,-2.7187,-2.7187,-2.7187,-2.7284,-2.764,-2.8288,-2.8903,-2.9243,-2.9659,-2.9918,-2.9918,-2.983,-2.9899,-3.0132,-3.0364,-3.0783,-3.1421,-3.1992,-3.2238,-3.2084,-3.1785,-3.1596,-3.151,-3.0851,-3.0317,-2.9988,-2.9658,-2.9391,-2.9106,-2.9243,-2.9259,-2.9167,-2.9275,-2.9191,-2.8974,-2.9118,-2.8887,-2.8404,-2.8911,-2.9296,-2.9603,-3.0016,-3.0543,-3.1015,-3.1055,-3.1213,-3.1406,-3.1462,-3.1651,-3.1891,-3.2266,-3.338,-3.4601,-3.57,-3.6775,-3.7822,-3.8794,-3.8952,-3.8873,-3.8688,-3.8328,-3.7826,-3.7208,-3.6381,-3.5386,-3.4134,-3.3555,-3.3203,-3.3112,-3.3005,-3.3005,-3.3112,-3.3096,-3.3203,-3.3309,-3.3309,-3.3309,-3.3309,-3.3309,-3.3256,-3.315,-3.315,-3.3058,-3.2897,-3.2718,-3.1889,-3.0552,-3.0345,-2.9475,-2.8235,-2.8103,-2.8005,-2.8005,-2.802,-2.802,-2.8005,-2.8137,-2.8299,-2.8427,-2.8713,-2.8777,-2.8857,-2.9077,-2.9262,-2.935,-2.9502,-2.9608,-2.9786,-2.9858,-2.9918,-2.9902,-2.9946,-2.9946,-2.98,-2.9156,-2.8417,-2.7899,-2.7899,-2.7899,-2.8077,-2.8676,-2.8887,-2.9178,-2.9821,-2.9918,-2.9918,-2.9918,-3.0016,-3.0263,-3.0693,-3.0921,-3.1533,-3.2752,-3.3358,-3.3642,-3.3555,-3.3013,-3.2644,-3.2491,-3.1776,-3.1128,-3.0559,-3.0417,-3.0117,-2.9655,-2.9701,-2.9699,-2.9694,-2.9739,-2.972,-2.9697,-2.9782,-2.9615,-2.9321,-3.007,-3.0179,-2.9865,-3.0603,-3.0952,-3.1072,-3.1151,-3.1308,-3.1496,-3.1654,-3.1952,-3.2422,-3.2537,-3.3145,-3.3851,-3.4877,-3.5929,-3.6971,-3.7849,-3.8422,-3.8688,-3.8554,-3.7998,-3.7377,-3.6825,-3.5565,-3.448,-3.3797,-3.3361,-3.3096,-3.3096,-3.3112,-3.3112,-3.3096,-3.3203,-3.3309,-3.3309,-3.3309,-3.3309,-3.3309,-3.3309,-3.3309,-3.3256,-3.3256,-3.3203,-3.3058,-3.2951,-3.2011,-3.0603,-3.0412,-2.9592,-2.8348,-2.8235,-2.8186,-2.8137,-2.8054,-2.802,-2.8005,-2.8137,-2.8299,-2.8537,-2.9353,-2.9262,-2.8951,-2.9927,-2.9876,-2.9518,-2.9653,-2.9786,-2.9902,-2.9989,-2.9989,-3.0017,-3.0103,-3.0162,-3.0087,-2.9903,-2.9231,-2.8644,-2.8644,-2.8644,-2.8676,-2.8773,-2.9335,-2.9805,-2.9902,-2.9918,-2.9918,-2.9918,-3.0393,-3.0768,-3.0865,-3.1854,-3.2819,-3.3486,-3.3646,-3.3694,-3.3642,-3.3459,-3.336,-3.336,-3.2606,-3.2127,-3.2048,-3.1397,-3.1067,-3.1118,-3.1246,-3.1037,-3.0521,-3.0645,-3.0384,-2.9697,-2.9886,-3.0011,-3.0058,-3.0284,-3.0518,-3.0721,-3.0861,-3.0992,-3.119,-3.119,-3.1252,-3.1419,-3.2312,-3.2821,-3.3152,-3.2537,-3.3042,-3.3647,-3.4673,-3.5622,-3.6562,-3.7382,-3.8053,-3.8296,-3.7998,-3.7487,-3.6921,-3.6291,-3.5052,-3.4101,-3.3658,-3.3346,-3.3203,-3.3203,-3.3203,-3.3203,-3.3203,-3.3256,-3.3309,-3.3309,-3.3309,-3.3309,-3.3309,-3.3309,-3.3309,-3.3309,-3.3309,-3.3203,-3.3096,-3.2529,-3.1638,-3.0587,-3.0063,-2.9304,-2.8411,-2.8348,-2.8299,-2.8299,-2.8266,-2.8201,-2.8201,-2.8299,-2.8593,-2.9061,-2.9635,-2.984,-3.0014,-3.0718,-3.0847,-3.0637,-3.0328,-3.0351,-3.0405,-3.0087,-3.0017,-3.0017,-3.0146,-3.0189,-3.0146,-3.0017,-2.9745,-2.9475,-2.9432,-2.9432,-2.9432,-2.9432,-2.9691,-2.9918,-2.9918,-2.9918,-3.0048,-3.0409,-3.0733,-3.1235,-3.2044,-3.2967,-3.3645,-3.3917,-3.3899,-3.3899,-3.3797,-3.371,-3.3607,-3.3503,-3.3113,-3.2677,-3.2333,-3.1966,-3.1702,-3.1501,-3.1582,-3.1534,-3.1417,-3.1059,-3.0509,-2.983,-3.0033,-3.0146,-3.0189,-3.0359,-3.0609,-3.0912,-3.0912,-3.1032,-3.119,-3.119,-3.1562,-3.2161,-3.3088,-3.3542,-3.3876]}]]